     2              OBSERVATION DATA    GPS                 RINEX VERSION / TYPE
TRRINEXO V2.8.4 LH                                          PGM / RUN BY / DATE
                                                            COMMENT
BIT 2 OF LLI (+4) FLAGS DATA COLLECTED UNDER "AS" CONDITION COMMENT
Original Marker Name: 0192                                  COMMENT
Campaign Name: coachelle valley 1990                        COMMENT
4-Character Station Name: 0192                              COMMENT
6-Character Antenna Code: TRMSST                            COMMENT
Vertical Measurement Point: TGP                             COMMENT
Vertical Offset to Rinex Ref. Point: 0.0629                 COMMENT
Radial Measurement Point: NGP                               COMMENT
Radial Offset to Rinex Ref. Point: 0.2334                   COMMENT
Antenna Height from Field Measurement: 1.1180 m             COMMENT
Original XYZ: -2346235.7256 -4763662.4606 3521259.5333      COMMENT
New XYZ position is based on association with SCEC monument COMMENT
E1D0T6U9+0011. Position of that monument is believed to be  COMMENT
valid to within 1 m horizontally; vertical accuracy         COMMENT
should be no worse than 3-times this value.                 COMMENT
                                                            COMMENT
Revised Rinex header created by UCSD GPS archive for        COMMENT
GSAC on 19-Apr-1999 (1999:109) 07:34:53 GMT                 COMMENT
For assistance contact dagnew@ucsd.edu or hjohnson@ucsd.edu COMMENT
                                                            COMMENT
TOWN 1990                                                   MARKER NAME
UNKNOWN OBSERVER CALIF INSTIT OF TECHNOLOGY                 OBSERVER / AGENCY
496 TRIMBLE 4000 SST 4.11 / 4.10                            REC # / TYPE / VERS
38 TR 4000SST L1/L2 GEO                                     ANT # / TYPE
 -2346236.0000 -4763666.0000  3521262.0000                  APPROX POSITION XYZ
        1.0305        0.0000        0.0000                  ANTENNA: DELTA H/E/N
     1     2     0                                          WAVELENGTH FACT L1/2
     3    C1    L1    L2                                    # / TYPES OF OBSERV
     0                                                      INTERVAL
  1990    10    17    11     2   30.000000                  TIME OF FIRST OBS
  1990    10    17    18     1   60.000000                  TIME OF LAST OBS
     0                                                      # OF SATELLITES
                                                            END OF HEADER
 90 10 17 11  2 30.0000000  0  5 02 06 11 18 15
  20887943.172          -0.21717
  22292307.781          -0.20116
  23861500.531          -0.61116
  21912547.414          -0.02717
  24751476.977          -0.34815
 90 10 17 11  2 45.0000000  0  5 02 06 11 18 15
  20885804.539      -11235.763 7
  22284539.727      -40821.795 6
  23867143.469       29675.097 6
  21918732.000       32508.816 7
  24743555.531      -41640.019 5
 90 10 17 11  3  0.0000000  0  5 02 06 11 18 15
  20883683.695      -22384.990 7        -0.14213
  22276777.766      -81606.046 6        -0.14311
  23872815.242       59473.877 6        -0.23811
  21924939.313       65129.424 7
  24735642.383      -83205.806 5
 90 10 17 11  3 15.0000000  0  5 02 06 11 18 15
  20881578.688      -33456.019 7     -8626.922 3
  22269022.164     -122360.973 6    -31757.233 1
  23878507.602       89387.326 6     23308.950 1
  21931167.234       97853.258 7        -0.08312
  24727743.016     -124705.628 5        -0.46711
 90 10 17 11  3 30.0000000  0  5 02 06 11 18 15
  20879487.031      -44441.520 7    -17187.051 3
  22261274.719     -163078.744 6    -63485.380 1
  23884225.367      119422.691 6     46713.123 1
  21937416.148      130687.529 7     25585.055 2
  24719859.695     -166131.497 5    -32280.356 1
 90 10 17 11  3 45.0000000  0  5 02 06 11 18 15
  20877412.055      -55344.200 7    -25682.651 3
  22253531.602     -203761.940 6    -95186.565 1
  23889963.211      149576.861 6     70209.889 1
  21943684.188      163629.135 7     51253.842 2
  24711993.180     -207485.539 5    -64504.267 1
 90 10 17 11  4  0.0000000  0  5 02 06 11 18 15
  20875351.508      -66170.546 7    -34118.769 3
  22245796.664     -244416.836 6   -126865.690 1
  23895720.188      179843.141 6     93794.009 1
  21949973.320      196671.872 7     77001.426 2
  24704136.281     -248773.773 5    -96676.889 1
 90 10 17 11  4 15.0000000  0  5 02 06 11 18 15
  20873307.797      -76916.550 7    -42492.281 3
  22238067.406     -285039.239 6   -158519.500 1
  23901501.898      210225.273 6    117468.388 1
  21956280.180      229819.329 7    102830.603 2
  24696297.500     -289991.585 5   -128794.649 1
 90 10 17 11  4 30.0000000  0  5 02 06 11 18 15
  20871278.820      -87578.613 7    -50800.377 3
  22230341.578     -325625.154 6   -190144.883 1
  23907306.180      240726.624 6    141235.683 1
  21962607.531      263074.679 7    128743.854 2
  24688464.594     -331135.301 5   -160854.673 1
 90 10 17 11  4 45.0000000  0  5 02 06 11 18 15
  20869264.617      -98156.076 7    -59042.550 3
  22222626.641     -366173.973 6   -221741.356 1
  23913137.086      271347.475 6    165096.077 1
  21968955.039      296438.123 7    154741.348 2
  24680643.930     -372203.639 5   -192855.953 1
 90 10 17 11  5  0.0000000  0  5 02 06 11 18 15
  20867269.266     -108652.413 7    -67221.515 3
  22214916.602     -406688.894 6   -253311.406 1
  23918984.922      302084.150 6    189046.715 1
  21975324.906      329906.134 7    180820.317 2
  24672846.688     -413199.765 5   -224800.982 1
 90 10 17 11  5 15.0000000  0  5 02 06 11 18 15
  20865287.164     -119064.910 7    -75335.145 3
  22207214.836     -447166.813 6   -284852.638 1
  23924853.695      332939.154 6    213089.566 1
  21981715.086      363481.493 7    206982.924 2
  24665059.180     -454120.287 5   -256687.083 1
 90 10 17 11  5 30.0000000  0  5 02 06 11 18 15
  20863321.266     -129393.440 7    -83383.345 3
  22199520.586     -487607.288 6   -316364.680 1
  23930747.750      363912.540 6    237224.666 1
  21988123.891      397163.758 7    233228.851 2
  24657285.805     -494964.293 5   -288513.548 1
 90 10 17 11  5 45.0000000  0  5 02 06 11 18 15
  20861370.180     -139644.729 7    -91371.362 3
  22191829.930     -528016.644 6   -347852.477 1
  23936666.266      394997.344 6    261446.581 1
  21994552.047      430946.419 7    259553.000 2
  24649525.602     -535738.302 5   -320285.484 1
 90 10 17 11  6  0.0000000  0  5 02 06 11 18 15
  20859435.367     -149813.544 7    -99295.123 3
  22184146.898     -568389.689 6   -379311.984 1
  23942603.734      426198.356 6    285759.061 1
  22001001.258      464834.115 7    285958.996 2
  24641784.969     -576436.822 5   -351998.585 1
 90 10 17 11  6 15.0000000  0  5 02 06 11 18 15
  20857515.977     -159902.072 7   -107156.320 3
  22176471.484     -608728.177 6   -410744.575 1
  23948561.047      457513.123 6    310160.166 1
  22007470.992      498824.405 7    312444.930 2
  24634054.094     -617061.630 5   -383654.259 1
 90 10 17 11  6 30.0000000  0  5 02 06 11 18 15
  20855610.008     -169912.740 7   -114956.830 3
  22168801.172     -649034.365 6   -442151.995 1
  23954539.461      488939.177 6    334647.993 1
  22013956.648      532914.991 7    339009.012 2
  24626334.805     -657614.136 5   -415253.590 1
 90 10 17 11  6 45.0000000  0  5 02 06 11 18 15
  20853721.508     -179843.146 7   -122694.813 3
  22161136.445     -689305.474 6   -473532.075 1
  23960543.086      520478.604 6    359224.168 1
  22020462.711      567108.027 7    365652.940 2
  24618634.406     -698091.603 5   -446794.455 1
 90 10 17 11  7  0.0000000  0  5 02 06 11 18 15
  20851847.000     -189692.196 7   -130369.406 3
  22153479.961     -729540.404 6   -504883.952 1
  23966566.633      552132.118 6    383889.242 1
  22026991.023      601404.078 7    392377.135 2
  24610945.039     -738492.621 5   -478275.748 1
 90 10 17 11  7 15.0000000  0  5 02 06 11 18 15
  20849986.727     -199463.338 7   -137983.288 3
  22145830.875     -769742.256 6   -536210.074 1
  23972610.438      583896.076 6    408640.363 1
  22033535.211      635799.591 7    419178.818 1
  24603271.578     -778820.453 5   -509699.996 1
 90 10 17 11  7 30.0000000  0  5 02 06 11 18 15
  20848143.320     -209157.747 7   -145537.375 3
  22138188.250     -809911.875 6
  23978675.195      615769.070 5    433476.466 1
  22040098.461      670292.942 7    446056.751 2
  24595605.984     -819075.237 5
 90 10 17 11  7 45.0000000  0  5 02 06 11 18 15
  20846312.320     -218771.935 7   -153028.957 3
  22130547.359     -850045.738 6
  23984764.297      647754.164 5    458399.918 1
  22046682.250      704887.377 7    473013.453 2
  24587966.688     -859253.696 5
 90 10 17 11  8  0.0000000  0  5 02 06 11 18 15
  20844499.977     -228303.725 7   -160456.320 3
  22122920.352     -890141.261 6
  23990870.023      679853.412 6    483412.318 1
  22053284.750      739584.903 7    500050.475 2
  24580335.734     -899352.736 5
 90 10 17 11  8 15.0000000  0  5 02 06 11 18 15
  20842700.320     -237754.752 7   -167820.737 3
  22115297.086     -930199.623 6
  23997001.297      712065.078 5    508512.326 1
  22059906.664      774384.130 7    527166.746 2
  24572716.609     -939373.356 5
 90 10 17 11  8 30.0000000  0  5 02 06 11 18 15
  20840918.898     -247124.953 7   -175122.185 3
  22107681.586     -970220.564 6   -692426.899 1
  24003152.766      744388.837 5    533699.667 1
  22066547.969      809284.562 7    554361.883 1
  24565116.148     -979315.203 5   -665929.579 1
 90 10 17 11  8 45.0000000  0  5 02 06 11 18 15
  20839149.227     -256417.186 7   -182362.890 3
  22100072.570    -1010206.802 6   -723584.997 1
  24009322.852      776821.645 5    558971.977 1
  22073209.672      844283.255 7    581633.584 2
  24557534.289    -1019180.669 5   -696993.544 1
 90 10 17 11  9  0.0000000  0  6 02 06 11 18 15 13
  20837396.586     -265628.110 7   -189540.238 3
  22092470.695    -1050154.854 6   -754713.345 1
  24015516.242      809366.452 5    584331.553 1
  22079887.773      879382.912 7    608983.951 1
  24549961.891    -1058966.128 5   -727995.172 1
  24709336.461          -0.06014
 90 10 17 11  9 15.0000000  0  6 02 06 11 18 15 13
  20835658.805     -274760.324 7   -196656.239 3
  22084874.086    -1090067.067 6   -785813.766 1
  24021729.570      842020.426 5    609776.220 1
  22086584.992      914580.936 7    636410.984 2
  24542405.719    -1098673.559 5   -758936.017 1
  24696032.594      -69907.977 4
 90 10 17 11  9 30.0000000  0  6 02 06 11 18 15 13
  20833936.539     -283812.747 7   -203710.066 3
  22077287.859    -1129942.049 6   -816885.183 1
  24027963.000      874784.450 5    635306.624 1
  22093300.867      949878.264 7    663915.371 2
  24534864.008    -1138301.662 5   -789815.031 1
  24682733.039     -139786.625 4
 90 10 17 11  9 45.0000000  0  6 02 06 11 18 15 13
  20832229.055     -292784.235 7   -210700.839 3
  22069704.633    -1169778.241 6   -847926.360 1
  24034224.023      907659.493 5    660923.556 1
  22100037.242      985275.769 7    691497.830 1
  24527340.305    -1177848.326 5   -820630.587 1
  24669443.375     -209634.247 5
 90 10 17 11 10  0.0000000  0  6 02 06 11 18 15 13
  20830536.477     -301677.932 7   -217630.985 3
  22062132.875    -1209578.668 6   -878939.670 1
  24040501.203      940642.071 6    686624.241 1
  22106792.117     1020770.084 7    719155.713 1
  24519825.227    -1217316.601 5   -851385.059 1
  24656159.523     -279453.868 4
 90 10 17 11 10 15.0000000  0  6 02 06 11 18 15 13
  20828859.578     -310488.148 7   -224496.077 3
  22054566.875    -1249337.305 6   -909920.421 1
  24046794.008      973737.552 5    712412.928 1
  22113565.828     1056366.544 7    746893.192 1
  24512331.617    -1256700.292 5   -882073.623 1
  24642881.172     -349239.106 5
 90 10 17 11 10 30.0000000  0  6 02 06 11 18 15 13
  20827197.023     -319223.503 7   -231302.847 3
  22047007.383    -1289062.570 6   -940875.152 1
  24053114.023     1006937.211 5    738282.793 1
  22120356.594     1092056.384 7    774703.458 1
  24504854.961    -1296007.344 5   -912702.459 1
  24629602.719     -418998.143 5
 90 10 17 11 10 45.0000000  0  6 02 06 11 18 15 13
  20825551.500     -327876.445 7   -238045.400 3
  22039454.906    -1328746.411 6   -971797.613 1
  24059450.406     1040248.271 5    764239.448 1
  22127169.039     1127846.839 7    802592.120 1
  24497388.445    -1335229.590 5   -943265.220 1
  24616340.641     -488723.034 5
 90 10 17 11 11  0.0000000  0  6 02 06 11 18 15 13
  20823919.719     -336450.521 7   -244726.494 3
  22031911.195    -1368392.467 6  -1002690.624 1
  24065811.758     1073666.985 5    790279.994 1
  22133997.617     1163734.015 7    830556.156 1
  24489938.094    -1374370.673 5   -973764.747 1
  24603076.266     -558416.764 5
 90 10 17 11 11 15.0000000  0  6 02 06 11 18 15 13
  20822303.328     -344944.455 7   -251345.140 3
  22024374.656    -1407999.105 6  -1033552.920 1
  24072190.859     1107194.249 5    816405.145 1
  22140845.180     1199719.054 7    858596.442 1
  24482509.102    -1413428.794 5  -1004199.622 1
  24589818.891     -628077.779 5        -0.34611
 90 10 17 11 11 30.0000000  0  6 02 06 11 18 15 13
  20820701.820     -353361.951 7   -257904.227 3
  22016844.375    -1447569.648 6  -1064387.075 1
  24078589.031     1140826.074 5    842611.742 1
  22147709.672     1235798.122 7    886709.997 2
  24475093.000    -1452406.725 4  -1034572.020 1
  24576566.492     -697709.078 5    -54258.465 1
 90 10 17 11 11 45.0000000  0  6 02 06 11 18 15 13
  20819114.648     -361702.063 7   -264403.011 3
  22009322.703    -1487102.878 6  -1095192.177 1
  24085010.758     1174563.299 5    868900.480 1
  22154592.742     1271972.089 7    914897.498 2
  24467687.516    -1491303.421 4  -1064881.115 1
  24563324.828     -767309.255 4   -108492.373 1
 90 10 17 11 12  0.0000000  0  6 02 06 11 18 15 13
  20817541.898     -369967.557 7   -270843.658 3
  22001804.977    -1526601.506 6  -1125970.314 1
  24091451.570     1208402.697 5    895268.837 1
  22161496.867     1308237.499 7    943156.249 2
  24460301.852    -1530121.071 4  -1095128.610 1
  24550081.906     -836880.800 3   -162703.905 1
 90 10 17 11 12 15.0000000  0  6 02 06 11 18 15 13
  20815985.031     -378153.245 7   -277222.119 3
  21994295.414    -1566060.063 6  -1156717.243 1
  24097911.070     1242349.116 5    921720.595 1
  22168415.953     1344599.451 7    971490.244 1
  24452933.109    -1568853.999 5  -1125310.086 1
  24536846.711     -906417.839 3   -216888.598 1
 90 10 17 11 12 30.0000000  0  6 02 06 11 18 15 13
  20814439.859     -386264.963 7   -283542.941 3
  21986794.539    -1605484.087 6  -1187437.258 1
  24104391.250     1276396.572 5    948251.095 1
  22175353.172     1381051.920 7    999894.764 1
  24445577.961    -1607507.686 5  -1155429.849 1
  24523619.953     -975926.113 2   -271050.817 1
 90 10 17 11 12 45.0000000  0  6 02 06 11 18 15 13
  20812911.719     -394296.920 7   -289801.614 3
  21979299.203    -1644867.495 6  -1218125.615 1
  24110887.000     1310550.581 5    974864.614 1
  22182306.797     1417600.352 7   1028374.069 1
  24438238.117    -1646075.902 5  -1185482.986 1
  24510402.453    -1045399.220 2   -325185.658 1
 90 10 17 11 13  0.0000000  0  6 02 06 11 18 15 13
  20811397.305     -402254.788 7   -296002.549 3
  21971811.211    -1684215.550 6  -1248786.422 1
  24117408.086     1344805.476 5   1001556.720 1
  22189280.016     1454239.005 7   1056923.667 1
  24430911.555    -1684563.730 5  -1215473.476 1
  24497186.672    -1114842.089 4   -379296.943 1
 90 10 17 11 13 15.0000000  0  6 02 06 11 18 15 13
  20809897.148     -410137.381 7   -302144.829 3
  21964332.219    -1723526.802 6  -1279418.553 1
  24123943.195     1379162.042 5   1028328.067 1
  22196269.938     1490968.824 7   1085544.293 1
  24423603.680    -1722969.446 5  -1245400.014 1
  24483979.570    -1184253.198 5   -433383.508 1
 90 10 17 11 13 30.0000000  0  6 02 06 11 18 15 13
  20808411.891     -417944.246 7   -308228.097 3
  21956857.492    -1762800.765 6  -1310021.643 1
  24130503.438     1413620.321 5   1055178.658 1
  22203275.414     1527789.739 7   1114235.898 1
  24416316.812    -1761292.221 5  -1275261.883 1
  24470778.352    -1253631.877 5   -487444.846 1
 90 10 17 11 13 45.0000000  0  6 02 06 11 18 15 13
  20806940.672     -425675.278 7   -314252.270 3
  21949390.789    -1802036.943 6  -1340595.290 1
  24137079.117     1448180.315 6   1082108.530 1
  22210299.094     1564701.884 7   1142998.617 1
  24409034.258    -1799531.689 5  -1305058.853 1
  24457583.063    -1322977.313 5   -541480.173 1
 90 10 17 11 14  0.0000000  0  6 02 06 11 18 15 13
  20805483.148     -433333.070 7   -320219.374 3
  21941931.664    -1841237.557 6  -1371141.219 1
  24143674.336     1482839.167 6   1109115.416 1
  22217340.539     1601702.386 7   1171830.178 1
  24401773.172    -1837689.811 5  -1334792.459 1
  24444392.555    -1392291.584 5   -595491.317 1
 90 10 17 11 14 15.0000000  0  6 02 06 11 18 15 13
  20804040.078     -440917.632 7   -326129.426 3
  21934478.375    -1880402.540 6  -1401659.385 1
  24150288.016     1517596.472 5   1136199.036 1
  22224398.500     1638790.781 7   1200730.215 1
  24394527.117    -1875766.322 5  -1364462.466 1
  24431204.719    -1461574.548 5   -649478.026 1
 90 10 17 11 14 30.0000000  0  6 02 06 11 18 15 13
  20802611.922     -448426.252 7   -331980.293 3
  21927032.156    -1919528.698 6  -1432147.288 1
  24156921.648     1552454.731 5   1163361.316 1
  22231473.492     1675969.880 7   1229700.916 1
  24387300.297    -1913757.749 5  -1394066.142 1
  24418029.563    -1530822.811 5   -703437.645 1
 90 10 17 11 14 45.0000000  0  6 02 06 11 18 15 13
  20801196.180     -455858.305 7   -337771.504 3
  21919595.078    -1958615.241 6  -1462604.321 1
  24163573.109     1587414.221 5   1190602.466 1
  22238565.438     1713239.687 7   1258742.307 1
  24380085.859    -1951663.171 5  -1423602.836 1
  24404859.297    -1600035.506 5   -757369.604 1
 90 10 17 11 15  0.0000000  0  6 02 06 11 18 15 13
  20799795.711     -463219.398 7   -343507.432 3
  21912162.836    -1997667.506 6  -1493034.646 2
  24170247.000     1622469.251 5   1217918.068 1
  22245673.109     1750594.757 7   1287850.148 1
  24372890.352    -1989487.653 5  -1453076.431 1
  24391693.070    -1669217.373 5   -811277.538 1
 90 10 17 11 15 15.0000000  0  6 02 06 11 18 15 13
  20798408.055     -470509.771 7   -349188.255 3
  21904741.484    -2036685.393 6  -1523438.186 1
  24176933.461     1657619.297 5   1245307.702 1
  22252797.773     1788034.521 7   1317023.991 1
  24365704.891    -2027230.815 5  -1482486.663 1
  24378535.867    -1738368.075 5   -865161.153 1
 90 10 17 11 15 30.0000000  0  6 02 06 11 18 15 13
  20797037.086     -477724.279 7   -354809.952 3
  21897322.586    -2075663.505 6  -1553810.741 2
  24183644.438     1692869.300 5   1272775.228 1
  22259940.773     1825563.785 7   1346267.590 1
  24358541.102    -2064887.184 5  -1511829.283 1
  24365381.539    -1807482.543 4   -919016.562 1
 90 10 17 11 15 45.0000000  0  6 02 06 11 18 15 13
  20795679.313     -484861.027 7   -360371.057 3
  21889910.664    -2114599.881 6  -1584150.768 2
  24190367.344     1728220.630 5   1300321.701 1
  22267097.305     1863184.011 6   1375582.058 1
  24351393.594    -2102454.791 5  -1541102.730 1
  24352238.016    -1876558.297 3   -972841.786 1
 90 10 17 11 16  0.0000000  0  6 02 06 11 18 15 13
  20794333.297     -491925.579 7   -365875.902 3
  21882510.539    -2153499.462 6  -1614462.117 1
  24197111.914     1763667.730 5   1327942.828 1
  22274271.430     1900889.571 6   1404963.004 1
  24344260.164    -2139938.105 5  -1570310.467 1
  24339101.180    -1945599.961 3  -1026640.436 1
 90 10 17 11 16 15.0000000  0  6 02 06 11 18 15 13
  20793003.391     -498920.898 7   -371326.792 3
  21875114.656    -2192365.098 6  -1644747.021 1
  24203879.367     1799207.281 5   1355635.968 1
  22281462.984     1938677.285 6   1434407.976 1
  24337140.305    -2177339.979 5  -1599454.783 1
  24325969.867    -2014610.277 4  -1080414.663 1
 90 10 17 11 16 30.0000000  0  6 02 06 11 18 15 13
  20791684.695     -505844.192 7   -376721.577 3
  21867723.469    -2231193.636 6  -1675003.023 1
  24210659.297     1834841.880 5   1383403.172 1
  22288670.930     1976549.927 7   1463919.124 1
  24330037.648    -2214657.357 5  -1628533.248 1
  24312844.320    -2083585.886 5  -1134161.879 1
 90 10 17 11 16 45.0000000  0  6 02 06 11 18 15 13
  20790381.063     -512698.046 7   -382062.251 3
  21860344.664    -2269987.617 6  -1705232.093 2
  24217456.539     1870568.376 5   1411241.989 1
  22295892.734     2014504.200 6   1493493.865 1
  24322954.953    -2251892.247 5  -1657547.436 1
  24299723.883    -2152529.114 5  -1187883.816 1
 90 10 17 11 17  0.0000000  0  6 02 06 11 18 15 13
  20789091.273     -519473.777 7   -387342.043 3
  21852969.500    -2308737.982 6  -1735427.189 2
  24224271.773     1906395.379 5   1439159.130 1
  22303132.219     2052548.465 6   1523138.759 1
  24315885.555    -2289035.313 5  -1686490.067 1
  24286612.461    -2221430.971 5  -1241573.611 1
 90 10 17 11 17 15.0000000  0  6 02 06 11 18 15 13
  20787817.352     -526169.002 7   -392559.105 3
  21845604.328    -2347442.122 6  -1765586.278 1
  24231112.461     1942325.018 5   1467156.248 1
  22310388.781     2090685.189 6   1552855.699 1
  24308832.430    -2326083.766 5  -1715358.978 1
  24273508.672    -2290288.575 5  -1295228.873 1
 90 10 17 11 17 30.0000000  0  6 02 06 11 18 15 13
  20786557.141     -532789.427 7   -397717.867 3
  21838247.016    -2386105.512 6  -1795713.607 1
  24237966.211     1978351.184 5   1495228.600 1
  22317665.219     2128908.241 6   1582639.907 1
  24301802.734    -2363042.950 5  -1744158.312 1
  24260415.813    -2359107.176 5  -1348853.755 1
 90 10 17 11 17 45.0000000  0  6 02 06 11 18 15 13
  20785311.609     -539336.760 7   -402819.688 3
  21830896.570    -2424729.458 6  -1825810.192 2
  24244841.430     2014471.929 5   1523374.629 1
  22324953.273     2167215.602 6   1612489.803 1
  24294783.984    -2399914.239 5  -1772889.184 1
  24247326.781    -2427887.869 5  -1402449.071 1
 90 10 17 11 18  0.0000000  0  6 02 06 11 18 15 13
  20784079.430     -545811.452 7   -407864.908 3
  21823554.695    -2463314.084 6  -1855876.132 2
  24251730.813     2050686.658 5   1551593.872 1
  22332258.844     2205606.787 6   1642405.019 1
  24287787.531    -2436697.483 5  -1801551.435 1
  24234243.172    -2496630.253 5  -1456014.570 1
 90 10 17 11 18 15.0000000  0  6 02 06 11 18 15 13
  20782860.766     -552213.255 7   -412853.310 3
  21816219.555    -2501858.791 6  -1885910.965 2
  24258644.086     2086995.291 5   1579886.318 1
  22339579.945     2244082.008 6   1672385.720 1
  24280805.539    -2473391.880 5  -1830144.446 1
  24221171.438    -2565333.753 5  -1509549.749 1
 90 10 17 11 18 30.0000000  0  6 02 06 11 18 15 13
  20781657.891     -558537.304 7   -417781.131 3
  21808892.469    -2540358.636 6  -1915910.838 2
  24265569.492     2123402.426 5   1608255.501 1
  22346918.859     2282645.331 6   1702435.068 1
  24273839.859    -2509992.088 5  -1858664.060 1
  24208102.805    -2633993.497 5  -1563050.793 1
 90 10 17 11 18 45.0000000  0  6 02 06 11 18 15 13
  20780468.320     -564792.025 7   -422654.947 3
  21801574.297    -2578821.617 6  -1945881.995 2
  24272516.125     2159899.403 5   1636694.691 1
  22354273.727     2321288.272 6   1732546.444 1
  24266890.008    -2546506.039 5  -1887116.467 1
  24195043.102    -2702617.324 5  -1616523.880 1
 90 10 17 11 19  0.0000000  0  6 02 06 11 18 15 13
  20779290.500     -570978.399 7   -427475.487 3
  21794261.227    -2617248.652 6  -1975825.136 2
  24279477.438     2196484.782 5   1665202.786 1
  22361642.117     2360009.650 6   1762718.938 1
  24259958.859    -2582934.513 5  -1915502.258 1
  24181988.383    -2771205.703 5  -1669969.337 1
 90 10 17 11 19 15.0000000  0  6 02 06 11 18 15 13
  20778126.570     -577093.932 7   -432240.836 3
  21786957.492    -2655636.832 6  -2005738.004 2
  24286454.688     2233160.824 5   1693781.498 1
  22369026.297     2398811.629 6   1792954.237 1
  24253044.008    -2619274.558 5  -1943819.168 1
  24168948.164    -2839755.510 5  -1723384.758 1
 90 10 17 11 19 30.0000000  0  6 02 06 11 18 15 13
  20776977.008     -583137.299 7   -436949.949 3
  21779660.109    -2693984.336 6  -2035619.170 2
  24293450.742     2269928.852 5   1722431.902 1
  22376424.141     2437695.442 6   1823253.302 1
  24246144.648    -2655524.551 5  -1972065.893 1
  24155911.773    -2908264.880 5  -1776768.652 1
 90 10 17 11 19 45.0000000  0  6 02 06 11 18 15 13
  20775840.750     -589112.738 7   -441606.127 3
  21772368.141    -2732295.390 6  -2065471.937 2
  24300465.133     2306784.250 5   1751150.361 1
  22383836.820     2476656.468 6   1853612.534 1
  24239261.852    -2691687.764 5  -2000244.987 1
  24142881.414    -2976737.843 5  -1830124.183 1
 90 10 17 11 20  0.0000000  0  6 02 06 11 18 15 13
  20774715.977     -595019.647 7   -446208.893 3
  21765085.797    -2770569.049 6  -2095295.559 2
  24307493.117     2343727.227 5   1779937.109 1
  22391268.344     2515695.238 6   1884032.355 1
  24232399.891    -2727763.432 5  -2028355.894 1
  24129861.008    -3045173.250 5  -1883450.472 1
 90 10 17 11 20 15.0000000  0  6 02 06 11 18 15 13
  20773603.852     -600858.078 7   -450758.303 3
  21757810.328    -2808805.019 6  -2125089.813 2
  24314543.695     2380757.587 5   1808791.913 1
  22398711.023     2554811.390 6   1914512.476 1
  24225551.492    -2763751.455 5  -2056398.484 1
  24116844.078    -3113570.500 5  -1936747.017 1
 90 10 17 11 20 30.0000000  0  6 02 06 11 18 15 13
  20772508.297     -606620.520 7   -455248.519 3
  21750540.992    -2846995.637 6  -2154848.730 2
  24321608.633     2417882.561 5   1837720.456 1
  22406170.125     2594011.911 6   1945058.338 1
  24218717.094    -2799643.524 5  -2084366.302 1
  24103835.250    -3181921.986 5  -1990007.896 1
 90 10 17 11 20 45.0000000  0  6 02 06 11 18 15 13
  20771424.266     -612318.348 7   -459688.390 3
  21743282.266    -2885151.884 6  -2184580.860 2
  24328686.023     2455090.352 5   1866713.534 1
  22413643.516     2633285.246 6   1975660.932 1
  24211904.672    -2835450.602 5  -2112267.922 1
  24090833.281    -3250238.461 5  -2043241.479 1
 90 10 17 11 21  0.0000000  0  6 02 06 11 18 15 13
  20770353.359     -617940.023 7   -464068.899 3
  21736029.000    -2923261.914 6  -2214276.974 2
  24335784.289     2492392.372 5   1895780.056 1
  22421134.352     2672642.897 6   2006329.221 1
  24205112.789    -2871160.670 5  -2140093.903 1
  24077843.031    -3318507.805 5  -2096438.379 1
 90 10 17 11 21 15.0000000  0  6 02 06 11 18 15 13
  20769296.922     -623493.791 7   -468396.514 3
  21728784.602    -2961333.686 6  -2243943.288 2
  24342901.047     2529780.000 5   1924913.281 1
  22428636.969     2712076.331 6   2037056.566 1
  24198334.289    -2906781.474 5  -2167850.362 1
  24064858.031    -3386737.744 4  -2149604.533 1
 90 10 17 11 21 30.0000000  0  6 02 06 11 18 15 13
  20768253.297     -628979.174 7   -472670.843 3
  21721546.813    -2999366.372 6  -2273579.150 2
  24350029.445     2567253.571 5   1954113.452 1
  22436156.914     2751585.842 6   2067843.198 1
  24191573.391    -2942312.020 5  -2195536.473 1
  24051885.180    -3454927.413 4  -2202739.292 1
 90 10 17 11 21 45.0000000  0  6 02 06 11 18 15 13
  20767221.031     -634396.587 7   -476892.217 3
  21714316.094    -3037360.306 6  -2303184.820 2
  24357176.695     2604812.152 5   1983379.881 1
  22443687.828     2791170.297 6   2098688.229 1
  24184828.508    -2977752.752 5  -2223152.620 1
  24038919.508    -3523076.989 5  -2255842.804 1
 90 10 17 11 22  0.0000000  0  6 02 06 11 18 15 13
  20766204.156     -639746.168 7   -481060.737 3
  21707094.977    -3075315.253 6  -2332760.103 2
  24364343.211     2642455.432 5   2012712.294 1
  22451236.641     2830829.655 6   2129591.616 1
  24178101.250    -3013102.916 5  -2250698.175 1
  24025957.578    -3591185.956 5  -2308914.696 1
 90 10 17 11 22 15.0000000  0  6 02 06 11 18 15 13
  20765199.523     -645029.508 7   -485177.646 3
  21699879.258    -3113232.429 6  -2362305.938 2
  24371519.609     2680181.666 5   2042109.358 1
  22458796.070     2870562.201 6   2160552.027 1
  24171392.695    -3048363.728 5  -2278174.096 1
  24013001.844    -3659255.390 5  -2361955.767 1
 90 10 17 11 22 30.0000000  0  6 02 06 11 18 15 13
  20764206.211     -650242.394 7   -489239.643 3
  21692671.328    -3151107.463 6  -2391818.950 2
  24378717.625     2717994.818 5   2071574.131 1
  22466370.750     2910371.669 6   2191572.383 1
  24164696.352    -3083530.787 5  -2305576.996 1
  24000058.234    -3727280.617 5  -2414962.453 1
 90 10 17 11 22 45.0000000  0  6 02 06 11 18 15 13
  20763229.469     -655381.141 7   -493243.870 3
  21685472.242    -3188936.303 6  -2421295.970 2
  24385930.484     2755898.307 5   2101109.299 1
  22473963.039     2950261.385 6   2222655.272 1
  24158025.344    -3118600.098 5  -2332903.703 1
  23987121.727    -3795257.397 5  -2467931.332 1
 90 10 17 11 23  0.0000000  0  6 02 06 11 18 15 13
  20762264.133     -660455.512 7   -497197.930 3
  21678280.633    -3226728.368 6  -2450744.326 2
  24393157.320     2793882.082 5   2130707.056 1
  22481566.773     2990221.664 6   2253793.143 1
  24151363.711    -3153580.665 5  -2360161.269 1
  23974192.828    -3863195.130 5  -2520869.840 1
 90 10 17 11 23 15.0000000  0  6 02 06 11 18 15 13
  20761309.867     -665466.555 7   -501102.648 3
  21671095.961    -3264484.590 6  -2480164.744 2
  24400399.438     2831944.562 5   2160366.130 1
  22489184.563     3030250.919 6   2284984.772 1
  24144726.844    -3188473.082 5  -2387350.139 1
  23961276.125    -3931094.736 5  -2573778.539 1
 90 10 17 11 23 30.0000000  0  6 02 06 11 18 15 13
  20760369.117     -670410.121 7   -504954.784 3
  21663920.547    -3302200.415 6  -2509553.688 2
  24407659.047     2870090.008 5   2190089.829 1
  22496814.813     3070353.170 6   2316233.282 1
  24138105.977    -3223272.535 5  -2414466.569 1
  23948362.445    -3998951.076 5  -2626653.665 1
 90 10 17 11 23 45.0000000  0  6 02 06 11 18 15 13
  20759442.047     -675281.394 7   -508750.596 3
  21656749.758    -3339870.749 6  -2538907.187 2
  24414933.211     2908322.745 5   2219881.580 1
  22504460.320     3110532.757 6   2347542.045 1
  24131504.438    -3257974.158 5  -2441506.764 1
  23935455.227    -4066759.164 5  -2679491.089 1
 90 10 17 11 24  0.0000000  0  6 02 06 11 18 15 13
  20758528.406     -680087.329 7   -512495.482 3
  21649590.227    -3377502.210 6  -2568230.396 2
  24422225.578     2946635.576 5   2249735.717 1
  22512121.719     3150782.561 6   2378905.513 1
  24124917.328    -3292584.244 5  -2468475.666 1
  23922562.875    -4134525.413 5  -2732295.890 1
 90 10 17 11 24 15.0000000  0  6 02 06 11 18 15 13
  20757625.500     -684824.340 7   -516186.662 3
  21642438.875    -3415091.038 7  -2597520.382 2
  24429529.844     2985031.793 5   2279654.846 1
  22519793.930     3191106.062 6   2410326.395 1
  24118347.969    -3327098.746 5  -2495370.070 1
  23909675.234    -4202245.650 5  -2785064.926 1
 90 10 17 11 24 30.0000000  0  6 02 06 11 18 15 13
  20756737.172     -689500.028 7   -519830.058 3
  21635291.250    -3452644.397 6  -2626782.725 2
  24436853.234     3023503.547 5   2309632.810 1
  22527479.000     3231495.294 6   2441798.511 1
  24111798.266    -3361525.227 5  -2522195.868 1
  23896797.484    -4269927.271 5  -2837803.805 1
 90 10 17 11 24 45.0000000  0  6 02 06 11 18 15 13
  20755859.547     -694105.746 7   -523418.926 3
  21628153.891    -3490153.495 6  -2656010.585 2
  24444191.383     3062059.143 5   2339676.131 1
  22535178.180     3271958.734 6   2473328.454 1
  24105263.250    -3395854.417 5  -2548945.859 1
  23883928.055    -4337561.143 5  -2890505.494 1
 90 10 17 11 25  0.0000000  0  6 02 06 11 18 15 13
  20754996.219     -698646.490 7   -526957.164 3
  21621021.953    -3527623.090 6  -2685207.670 2
  24451545.484     3100693.189 5   2369780.567 1
  22542891.867     3312490.848 6   2504911.911 1
  24098748.961    -3430090.958 5  -2575623.669 1
  23871065.898    -4405151.750 5  -2943173.481 1
 90 10 17 11 25 15.0000000  0  6 02 06 11 18 15 13
  20754145.289     -703116.478 7   -530440.267 3
  21613899.266    -3565047.121 6  -2714369.241 2
  24458907.023     3139411.288 5   2399950.522 1
  22550620.336     3353097.313 6   2536553.317 1
  24092252.406    -3464228.471 5  -2602224.300 1
  23858209.633    -4472692.731 5  -2995802.809 1
 90 10 17 11 25 30.0000000  0  6 02 06 11 18 15 13
  20753308.367     -707518.352 7   -533870.294 3
  21606788.492    -3602427.636 6  -2743496.893 2
  24466294.828     3178210.687 5   2430183.789 1
  22558359.078     3393775.175 6   2568250.347 1
  24085775.414    -3498269.126 5  -2628749.448 1
  23845368.867    -4540186.227 5  -3048395.103 1
 90 10 17 11 25 45.0000000  0  6 02 06 11 18 15 13
  20752484.523     -711850.789 7   -537246.214 3
  21599682.563    -3639763.146 6  -2772589.488 2
  24473694.375     3217092.381 5   2460481.202 1
  22566113.844     3434525.540 6   2600003.858 1
  24079318.516    -3532211.012 5  -2655197.661 1
  23832532.594    -4607630.712 5  -3100949.219 1
 90 10 17 11 26  0.0000000  0  6 02 06 11 18 15 13
  20751670.992     -716121.070 7   -540573.687 3
  21592585.219    -3677060.811 7  -2801652.584 2
  24481105.398     3256048.605 5   2490836.711 1
  22573881.406     3475340.924 6   2631808.040 1
  24072874.656    -3566061.435 5  -2681574.603 1
  23819704.859    -4675032.919 5  -3153470.381 1
 90 10 17 11 26 15.0000000  0  6 02 06 11 18 15 13
  20750871.211     -720322.823 7   -543847.777 3
  21585497.203    -3714313.697 7  -2830680.794 2
  24488530.867     3295085.792 5   2521255.289 1
  22581662.109     3516227.625 6   2663667.802 1
  24066450.086    -3599813.145 5  -2707874.650 1
  23806888.211    -4742385.754 5  -3205953.078 1
 90 10 17 11 26 30.0000000  0  6 02 06 11 18 15 13
  20750084.883     -724451.859 7   -547065.204 3
  21578417.031    -3751517.386 7  -2859670.675 2
  24495975.633     3334207.697 5   2551739.883 1
  22589458.172     3557189.300 6   2695585.976 1
  24060050.563    -3633461.849 5  -2734094.399 1
  23794084.281    -4809684.793 5  -3258393.844 1
 90 10 17 11 26 45.0000000  0  6 02 06 11 18 15 13
  20749312.625     -728519.416 7   -550234.740 3
  21571345.383    -3788683.078 6  -2888630.950 2
  24503434.422     3373402.559 5   2582281.319 1
  22597264.570     3598214.533 6   2727553.676 1
  24053662.750    -3667018.267 5  -2760242.236 1
  23781286.836    -4876941.073 5  -3310801.311 1
 90 10 17 11 27  0.0000000  0  6 02 06 11 18 15 13
  20748549.875     -732521.551 7   -553353.293 3
  21564279.422    -3825806.288 6  -2917558.118 2
  24510911.180     3412674.347 5   2612882.691 1
  22605083.672     3639306.828 6   2759573.624 1
  24047297.031    -3700477.866 5  -2786314.641 1
  23768499.359    -4944149.761 5  -3363171.689 1
 90 10 17 11 27 15.0000000  0  6 02 06 11 18 15 13
  20747800.875     -736458.039 7   -556420.697 3
  21557223.695    -3862886.597 6  -2946451.862 2
  24518397.953     3452022.809 5   2643543.823 1
  22612914.992     3680466.263 6   2791645.908 1
  24040952.508    -3733840.177 5  -2812311.227 1
  23755716.344    -5011310.196 6  -3415504.527 1
 90 10 17 11 27 30.0000000  0  6 02 06 11 18 15 13
  20747064.492     -740329.572 7   -559437.495 3
  21550177.094    -3899924.283 6  -2975312.396 2
  24525899.492     3491447.147 5   2674264.080 1
  22620763.734     3721691.806 6   2823769.705 1
  24034614.883    -3767105.223 5  -2838232.025 1
  23742945.336    -5078422.620 6  -3467799.884 1
 90 10 17 11 27 45.0000000  0  6 02 06 11 18 15 13
  20746339.688     -744136.318 7   -562403.801 3
  21543135.305    -3936919.243 6  -3004139.631 2
  24533415.625     3530946.924 5   2705043.108 1
  22628619.203     3762983.111 6   2855944.745 1
  24028307.141    -3800272.926 5  -2864076.978 1
  23730181.766    -5145486.897 5  -3520057.773 1
 90 10 17 11 28  0.0000000  0  6 02 06 11 18 15 13
  20745627.836     -747872.152 7   -565314.848 3
  21536107.094    -3973865.093 7  -3032928.601 2
  24540948.234     3570527.883 5   2735885.414 1
  22636489.578     3804346.074 6   2888175.636 1
  24022014.438    -3833337.016 5  -2889841.196 1
  23717428.281    -5212496.449 5  -3572272.969 1
 90 10 17 11 28 15.0000000  0  6 02 06 11 18 15 13
  20744930.359     -751544.550 7   -568176.449 3
  21529082.406    -4010769.146 7  -3061685.020 2
  24548493.813     3610182.243 5   2766784.887 1
  22644374.453     3845773.209 6   2920456.536 1
  24015739.125    -3866304.277 5  -2915529.948 1
  23704688.438    -5279458.213 5  -3624450.943 1
 90 10 17 11 28 30.0000000  0  6 02 06 11 18 15 13
  20744242.922     -755153.713 7   -570988.771 3
  21522067.852    -4047631.090 7  -3090408.609 2
  24556055.609     3649909.601 5   2797741.268 1
  22652267.102     3887263.649 6   2952786.725 1
  24009483.523    -3899174.232 5  -2941142.871 1
  23691954.539    -5346371.825 5  -3676591.380 1
 90 10 17 11 28 45.0000000  0  6 02 06 11 18 15 13
  20743567.648     -758700.414 7   -573752.435 3
  21515062.375    -4084451.530 7  -3119099.845 2
  24563629.516     3689708.864 5   2828753.644 1
  22660174.781     3928816.253 6   2985165.374 1
  24003250.938    -3931947.697 5  -2966680.635 1
  23679229.859    -5413237.678 5  -3728694.622 1
 90 10 17 11 29  0.0000000  0  6 02 06 11 18 15 13
  20742905.844     -762183.896 7   -576466.845 3
  21508062.406    -4121229.222 7  -3147757.785 2
  24571218.531     3729580.648 5   2859822.560 1
  22668093.219     3970431.477 6   3017592.806 1
  23997030.141    -3964623.394 5  -2992142.192 1
  23666515.469    -5480054.577 5  -3780759.698 1
 90 10 17 11 29 15.0000000  0  6 02 06 11 18 15 13
  20742254.945     -765606.598 7   -579133.890 3
  21501072.617    -4157966.363 7  -3176384.121 2
  24578815.414     3769522.203 5   2890945.825 1
  22676025.953     4012107.037 6   3050067.259 1
  23990831.836    -3997203.140 5  -3017528.974 1
  23653809.648    -5546824.483 5  -3832788.204 1
 90 10 17 11 29 30.0000000  0  6 02 06 11 18 15 13
  20741615.297     -768963.788 7   -581749.896 3
  21494090.547    -4194657.954 7  -3204974.963 2
  24586432.625     3809537.895 5   2922126.871 1
  22683966.875     4053847.371 6   3082592.197 1
  23984649.266    -4029681.576 5  -3042836.851 1
  23641115.227    -5613542.214 6  -3884776.016 1
 90 10 17 11 29 45.0000000  0  6 02 06 11 18 15 13
  20740988.445     -772255.915 7   -584315.201 3
  21487116.484    -4231304.218 7  -3233530.484 2
  24594058.539     3849627.040 5   2953365.163 1
  22691925.383     4095651.587 6   3115166.906 1
  23978491.672    -4062059.129 5  -3068066.083 1
  23628431.273    -5680207.642 6  -3936723.099 1
 90 10 17 11 30  0.0000000  0  6 02 06 11 18 15 13
  20740373.656     -775486.718 7   -586832.707 3
  21480152.719    -4267908.615 7  -3262053.382 2
  24601699.180     3889785.395 5   2984657.346 1
  22699889.633     4137515.337 6   3147787.999 1
  23972348.680    -4094339.166 5  -3093219.330 1
  23615749.289    -5746824.413 5  -3988632.248 1
 90 10 17 11 30 15.0000000  0  6 02 06 11 18 15 13
  20739770.703     -778653.967 7   -589300.680 3
  21473192.508    -4304468.476 7  -3290541.584 2
  24609358.453     3930015.115 5   3016005.192 1
  22707869.148     4179441.200 6   3180457.503 1
  23966224.344    -4126518.922 5  -3118294.446 1
  23603085.297    -5813389.599 5  -4040501.217 1
 90 10 17 11 30 30.0000000  0  6 02 06 11 18 15 13
  20739180.367     -781759.423 7   -591720.513 3
  21466245.320    -4340985.346 7  -3318996.283 2
  24617027.516     3970314.072 5   3047406.962 1
  22715857.414     4221426.784 6   3213173.532 1
  23960117.359    -4158599.610 5  -3143292.362 1
  23590423.117    -5879904.470 5  -4092330.934 1
 90 10 17 11 30 45.0000000  0  6 02 06 11 18 15 13
  20738599.969     -784804.742 7   -594093.499 3
  21459305.063    -4377460.587 7  -3347418.548 2
  24624707.961     4010680.342 5   3078861.206 1
  22723856.734     4263470.427 6   3245934.810 1
  23954031.781    -4190582.610 5  -3168214.152 1
  23577778.344    -5946370.282 5  -4144122.456 1
 90 10 17 11 31  0.0000000  0  6 02 06 11 18 15 13
  20738033.180     -787787.682 7   -596417.865 3
  21452372.141    -4413891.711 7  -3375806.434 2
  24632401.273     4051115.934 5   3110369.463 1
  22731870.594     4305573.730 6   3278742.571 1
  23947962.516    -4222465.161 5  -3193057.691 1
  23565145.313    -6012784.254 5  -4195873.556 1
 90 10 17 11 31 15.0000000  0  6 02 06 11 18 15 13
  20737476.063     -790711.019 7   -598695.790 3
  21445448.273    -4450281.147 7  -3404161.834 2
  24640107.367     4091617.770 5   3141929.307 1
  22739893.758     4347733.784 6   3311594.562 1
  23941919.047    -4254249.740 5  -3217824.889 1
  23552514.141    -6079148.746 5  -4247586.126 1
 90 10 17 11 31 30.0000000  0  6 02 06 11 18 15 13
  20736932.797     -793568.698 7   -600922.543 3
  21438532.273    -4486622.502 7  -3432479.771 2
  24647831.789     4132191.673 5   3173545.341 1
  22747926.148     4389956.549 6   3344495.404 1
  23935888.039    -4285929.938 5  -3242510.723 1
  23539892.094    -6145457.346 6  -4299255.134 1
 90 10 17 11 31 45.0000000  0  6 02 06 11 18 15 13
  20736400.734     -796367.653 7   -603103.548 3
  21431623.375    -4522922.323 7  -3460765.350 2
  24655562.938     4172830.376 5   3205211.875 1
  22755971.000     4432234.713 6   3377439.415 1
  23929877.617    -4317511.901 5  -3267120.017 1
  23527283.469    -6211716.327 5  -4350885.483 1
 90 10 17 11 32  0.0000000  0  6 02 06 11 18 15 13
  20735880.141     -799106.853 7   -605237.990 3
  21424724.688    -4559179.391 7  -3489017.613 2
  24663306.688     4213534.578 5   3236929.394 1
  22764027.820     4474568.826 6   3410427.043 1
  23923890.992    -4348994.690 5  -3291652.040 1
  23514686.547    -6277924.326 5  -4402476.113 1
 90 10 17 11 32 15.0000000  0  6 02 06 11 18 15 13
  20735370.273     -801783.879 7   -607323.964 3
  21417831.336    -4595390.931 7  -3517234.392 2
  24671068.086     4254306.413 5   3268699.632 1
  22772095.359     4516960.979 6   3443459.873 1
  23917916.867    -4380375.213 5  -3316104.375 1
  23502096.133    -6344078.523 5  -4454024.832 1
 90 10 17 11 32 30.0000000  0  6 02 06 11 18 15 13
  20734871.633     -804402.683 7   -609364.585 3
  21410949.203    -4631560.796 7  -3545418.694 2
  24678838.586     4295141.740 5   3300519.366 1
  22780173.906     4559407.261 6   3476534.878 1
  23911965.172    -4411657.281 5  -3340479.995 1
  23489517.195    -6410182.202 5  -4505534.154 1
 90 10 17 11 32 45.0000000  0  6 02 06 11 18 15 13
  20734385.859     -806959.084 7   -611356.592 3
  21404077.195    -4667684.187 7  -3573566.777 2
  24686621.313     4336044.365 5   3332391.524 1
  22788262.328     4601911.516 6   3509655.062 1
  23906030.758    -4442836.105 5  -3364775.162 1
  23476952.484    -6476231.013 5  -4557000.728 1
 90 10 17 11 33  0.0000000  0  7 02 06 11 18 15 13 09
  20733910.695     -809449.693 7   -613297.334 3
  21397211.438    -4703757.371 7  -3601675.727 2
  24694418.867     4377017.624 5   3364318.720 1
  22796363.039     4644476.945 6   3542822.926 1
  23900118.063    -4473907.420 5  -3388986.566 1
  23464394.289    -6542220.978 5  -4608421.449 1
  24402340.672          -0.07612
 90 10 17 11 33 15.0000000  0  7 02 06 11 18 15 13 09
  20733448.375     -811878.365 7   -615189.789 3
  21390355.805    -4739784.122 7  -3629748.510 2
  24702228.180     4418057.123 5   3396297.563 1
  22804473.547     4687099.424 6   3576035.237 1
  23894223.625    -4504875.354 5  -3413117.389 1
  23451844.633    -6608155.519 5  -4659798.995 1
  24392368.445      -52411.877 3
 90 10 17 11 33 30.0000000  0  7 02 06 11 18 15 13 09
  20732997.359     -814251.265 7   -617038.794 3
  21383506.188    -4775770.219 6  -3657789.614 2
  24710050.539     4459156.567 5   3428323.048 1
  22812591.953     4729772.330 6   3609286.840 1
  23888350.195    -4535745.426 5  -3437171.963 1
  23439306.680    -6674040.297 5  -4711137.760 1
  24382394.789     -104832.768 3
 90 10 17 11 33 45.0000000  0  7 02 06 11 18 15 13 09
  20732558.469     -816561.173 7   -618838.721 3
  21376670.570    -4811708.238 6  -3685793.266 2
  24717882.430     4500322.839 5   3460400.706 1
  22820725.195     4772502.684 6   3642583.211 1
  23882493.664    -4566510.062 5  -3461144.398 1
  23426782.594    -6739867.568 5  -4762431.704 1
  24372417.156     -157255.470 3
 90 10 17 11 34  0.0000000  0  7 02 06 11 18 15 13 09
  20732129.203     -818812.153 7   -620592.721 3
  21369840.133    -4847601.834 7  -3713762.294 2
  24725725.398     4541551.472 5   3492526.877 1
  22828866.141     4815285.944 6   3675920.800 1
  23876661.563    -4597172.703 5  -3485037.340 1
  23414267.531    -6805641.015 5  -4813683.719 1
  24362439.203     -209683.830 3        -0.04811
 90 10 17 11 34 15.0000000  0  7 02 06 11 18 15 13 09
  20731714.062     -820997.658 7   -622295.713 3
  21363017.656    -4883444.247 7  -3741691.451 2
  24733586.031     4582848.770 5   3524706.598 1
  22837016.656     4858128.448 6   3709304.547 1
  23870844.500    -4627726.863 5  -3508845.761 1
  23401759.242    -6871353.787 5  -4864888.437 1
  24352459.188     -262110.987 2    -40852.397 1
 90 10 17 11 34 30.0000000  0  7 02 06 11 18 15 13 09
  20731308.734     -823121.788 7   -623950.874 3
  21356208.891    -4919239.058 7  -3769583.512 2
  24741455.258     4624210.508 5   3556936.493 1
  22845181.203     4901026.105 6   3742731.277 1
  23865053.727    -4658175.990 5  -3532572.324 1
  23389266.289    -6937009.365 5  -4916048.638 1
  24342483.680     -314541.054 3    -81707.009 1
 90 10 17 11 34 45.0000000  0  7 02 06 11 18 15 13 09
  20730916.648     -825182.816 7   -625556.864 3
  21349405.422    -4954984.258 7  -3797436.889 2
  24749341.773     4665638.144 5   3589217.760 1
  22853353.641     4943980.451 6   3776202.190 1
  23859275.953    -4688517.611 5  -3556215.114 1
  23376784.328    -7002605.577 5  -4967162.525 1
  24332507.172     -366971.658 3   -122561.989 1
 90 10 17 11 34 59.9990000  0  7 02 06 11 18 15 13 09
  20730535.159     -827185.792 7   -627117.617 3
  21342612.800    -4990682.497 7  -3825253.688 2
  24757235.229     4707123.261 5   3621543.823 1
  22861540.292     4986982.975 6   3809710.632 1
  23853524.347    -4718754.822 5  -3579776.550 1
  23364315.198    -7068142.948 6  -5018230.598 1
  24322526.183     -419404.712 3
 90 10 17 11 35 14.9990000  0  7 02 06 11 18 15 13 09
  20730166.198     -829132.029 7   -628634.164 3
  21335826.214    -5026339.126 7  -3853038.069 2
  24765139.769     4748670.199 5   3653918.052 1
  22869729.597     5030038.171 6   3843260.127 1
  23847789.815    -4748892.215 5  -3603260.205 1
  23351848.769    -7133630.549 5  -5069259.874 1
  24312550.089     -471847.851 3
 90 10 17 11 35 29.9990000  0  7 02 06 11 18 15 13 09
  20729805.448     -831019.460 7   -630104.884 3
  21329049.823    -5061949.602 7  -3880786.479 2
  24773057.276     4790277.737 5   3686339.498 1
  22877935.401     5073144.481 6   3876849.456 1
  23842075.972    -4778925.509 5  -3626662.759 1
  23339397.956    -7199061.878 6  -5120245.306 1
  24302571.565     -524295.609 3
 90 10 17 11 35 44.9990000  0  7 02 06 11 18 15 13 09
  20729457.136     -832849.412 7   -631530.805 3
  21322282.128    -5097514.856 7  -3908499.653 2
  24780987.229     4831944.315 5   3718806.922 1
  22886146.729     5116300.637 6   3910477.620 1
  23836381.425    -4808855.579 5  -3649984.868 1
  23326958.425    -7264437.529 6  -5171187.354 1
  24292589.019     -576749.013 3
 90 10 17 11 35 59.9990000  0  7 02 06 11 18 15 13 09
  20729121.440     -834623.279 7   -632913.023 3
  21315522.636    -5133036.274 7  -3936178.680 2
  24788929.565     4873668.115 5   3751318.948 1
  22894370.136     5159504.674 6   3944143.091 1
  23830701.714    -4838683.753 5  -3673227.560 1
  23314528.128    -7329758.552 6  -5222086.827 1
  24282603.979     -629209.351 4        -0.46011
 90 10 17 11 36 14.9990000  0  7 02 06 11 18 15 13 09
  20728794.519     -836340.679 7   -634251.232 3
  21308771.245    -5168512.876 7  -3963822.770 2
  24796878.448     4915449.332 5   3783875.729 1
  22902598.394     5202756.877 6   3977846.090 1
  23825047.198    -4868408.821 5  -3696389.958 1
  23302109.769    -7395024.184 6  -5272943.135 1
  24272626.925     -681676.201 4    -40883.722 1
 90 10 17 11 36 29.9990000  0  7 02 06 11 18 15 13 09
  20728478.253     -838000.692 7   -635544.741 3
  21302030.019    -5203943.459 7  -3991431.001 2
  24804838.808     4957288.597 5   3816477.767 1
  22910837.901     5246058.081 6   4011587.262 1
  23819414.167    -4898029.456 5  -3719470.940 1
  23289702.175    -7460233.066 6  -5323755.222 1
  24262637.925     -734148.141 4    -81770.971 1
 90 10 17 11 36 44.9990000  0  7 02 06 11 18 15 13 09
  20728173.776     -839599.199 7   -636790.322 3
  21295297.284    -5239323.731 7  -4019000.031 2
  24812815.089     4999189.654 5   3849127.904 1
  22919087.644     5289411.960 6   4045369.494 1
  23813793.769    -4927541.582 5  -3742467.383 1
  23277306.190    -7525380.430 6  -5374519.362 1
  24252652.526     -786620.984 4   -122658.911 1
 90 10 17 11 36 59.9990000  0  7 02 06 11 18 15 13 09
  20727879.534     -841141.305 7   -637991.962 3
  21288572.597    -5274658.222 7  -4046533.386 2
  24820801.144     5041147.382 5   3881822.241 1
  22927345.815     5332813.109 6   4079188.571 1
  23808198.222    -4956949.581 5  -3765382.700 1
  23264914.495    -7590470.886 6  -5425239.188 1
  24242670.050     -839099.426 5   -163551.211 1
 90 10 17 11 37 14.9990000  0  7 02 06 11 18 15 13 09
  20727597.019     -842626.919 7   -639149.598 3
  21281858.011    -5309946.887 7  -4074031.041 2
  24828794.745     5083161.422 4   3914560.447 1
  22935614.464     5376261.244 6   4113044.261 1
  23802621.448    -4986253.096 5  -3788216.574 1
  23252541.620    -7655504.443 6  -5475914.673 1
  24232681.667     -891583.422 4   -204447.793 1
 90 10 17 11 37 29.9990000  0  7 02 06 11 18 15 13 09
  20727327.144     -844050.310 7   -640258.754 3
  21275152.136    -5345183.295 7  -4101487.973 2
  24836804.003     5125237.433 4   3947346.924 1
  22943892.706     5419762.086 6   4146941.021 1
  23797066.097    -5015445.808 5  -3810964.118 1
  23240175.276    -7720474.564 6  -5526540.721 1
  24222688.362     -944067.034 4   -245344.131 1
 90 10 17 11 37 44.9990000  0  7 02 06 11 18 15 13 09
  20727066.339     -845417.578 7   -641324.158 3
  21268455.206    -5380373.607 7  -4128909.001 2
  24844818.644     5167368.748 4   3980176.482 1
  22952179.925     5463308.950 6   4180873.632 1
  23791530.034    -5044533.578 5  -3833629.892 1
  23227823.909    -7785387.048 6  -5577121.866 1
  24212702.284     -996556.139 4   -286244.737 1
 90 10 17 11 37 59.9990000  0  7 02 06 11 18 15 13 09
  20726818.136     -846727.692 7   -642345.023 3
  21261768.636    -5415516.339 7  -4156292.940 2
  24852843.300     5209556.115 3   4013049.747 1
  22960474.315     5506902.709 6   4214842.791 1
  23786017.222    -5073515.061 5  -3856212.836 1
  23215484.448    -7850240.286 6  -5627656.851 1
  24202713.753    -1049049.472 4   -327148.602 1
 90 10 17 11 38 14.9990000  0  7 02 06 11 18 15 13 09
  20726578.370     -847980.448 7   -643321.195 3
  21255091.339    -5450610.835 7  -4183639.286 2
  24860882.729     5251799.613 4   4045966.728 1
  22968779.651     5550543.300 6   4248848.448 1
  23780521.808    -5102390.043 5  -3878712.788 1
  23203153.753    -7915033.749 6  -5678145.244 1
  24192722.300    -1101546.627 5   -368055.481 1
 90 10 17 11 38 29.9990000  0  7 02 06 11 18 15 13 09
  20726351.112     -849173.455 7   -644250.802 3
  21248422.558    -5485654.390 7  -4210945.939 2
  24868932.214     5294101.384 3   4078929.135 1
  22977094.698     5594232.877 6   4282892.264 1
  23775047.675    -5131155.156 5  -3901127.120 1
  23190837.612    -7979764.242 6  -5728584.553 1
  24182732.995    -1154045.088 4   -408963.375 1
 90 10 17 11 38 44.9990000  0  7 02 06 11 18 15 13 09
  20726135.636     -850307.115 7   -645134.173 3
  21241762.644    -5520647.371 7  -4238213.201 2
  24877001.222     5336460.614 3   4111936.292 1
  22985417.831     5637970.712 6   4316973.677 1
  23769593.683    -5159810.508 5  -3923455.945 1
  23178529.354    -8044432.037 6  -5778975.030 1
  24172739.737    -1206544.907 4   -449872.310 1
 90 10 17 11 38 59.9990000  0  7 02 06 11 18 15 13 09
  20725930.886     -851386.417 7   -645975.174 3
  21235112.698    -5555594.279 7  -4265444.551 2
  24885060.206     5378872.013 3   4144984.092 1
  22993748.706     5681751.470 6   4351088.546 1
  23764162.347    -5188361.012 5  -3945703.074 1
  23166236.979    -8109041.807 6  -5829320.298 1
  24162754.284    -1259051.100 5   -490786.254 1
 90 10 17 11 39 14.9990000  0  7 02 06 11 18 15 13 09
  20725735.058     -852409.882 7   -646772.687 3
  21228471.690    -5590493.372 7  -4292638.640 2
  24893145.175     5421336.757 3   4178073.496 1
  23002086.886     5725576.432 6   4385237.875 1
  23758746.948    -5216804.573 5  -3967866.845 1
  23153953.503    -8173591.237 6  -5879618.517 1
  24152761.808    -1311561.728 5   -531703.641 1
 90 10 17 11 39 29.9990000  0  7 02 06 11 18 15 13 09
  20725551.479     -853376.062 7   -647525.566 3
  21221839.151    -5625342.606 7  -4319793.862 2
  24901236.417     5463856.228 3   4211205.539 1
  23010436.534     5769446.927 6   4419422.693 1
  23753357.909    -5245139.245 5  -3989945.793 1
  23141679.987    -8238078.465 6  -5929868.292 1
  24142768.269    -1364075.190 4   -572623.216 1
 90 10 17 11 39 44.9990000  0  7 02 06 11 18 15 13 09
  20725380.065     -854283.323 7   -648232.527 3
  21215218.917    -5660140.239 7  -4346908.893 2
  24909341.089     5506431.618 3   4244381.117 1
  23018793.589     5813364.023 6   4453643.808 1
  23747984.800    -5273363.048 5  -4011938.351 1
  23129421.292    -8302501.715 6  -5980068.222 1
  24132770.487    -1416589.693 4   -613543.560 1
 90 10 17 11 39 59.9990000  0  7 02 06 11 18 15 13 09
  20725218.097     -855132.220 7   -648894.013 3
  21208606.456    -5694886.908 7  -4373984.199 2
  24917450.401     5549061.935 2   4277599.533 1
  23027160.128     5857326.786 6   4487900.494 1
  23742636.034    -5301476.198 5  -4033844.645 1
  23117175.659    -8366861.272 6  -6030218.506 1
  24122781.065    -1469105.855 5   -654465.280 1
 90 10 17 11 40 14.9990000  0  7 02 06 11 18 15 13 09
  20725067.667     -855922.662 7   -649509.932 3
  21202004.925    -5729581.642 7  -4401019.056 2
  24925572.495     5591747.197 3   4310860.740 1
  23035532.956     5901335.326 6   4522192.845 1
  23737304.261    -5329478.400 5  -4055664.520 1
  23104942.769    -8431156.079 6  -6080318.317 1
  24112789.050    -1521623.052 5   -695387.764 1
 90 10 17 11 40 29.9990000  0  7 02 06 11 18 15 13 09
  20724925.683     -856659.662 7   -650084.204 3
  21195412.089    -5764229.091 7  -4428017.065 2
  24933703.542     5634482.267 3   4344160.792 1
  23043914.651     5945384.461 6   4556516.832 1
  23731998.987    -5357374.049 5  -4077401.351 1
  23092717.034    -8495390.674 6  -6130371.233 1
  24102789.362    -1574145.990 4   -736314.681 1
 90 10 17 11 40 44.9990000  0  6 02 06 18 15 13 09
  20724798.183     -857340.718 7   -650614.894 3
  21188828.065    -5798826.746 7  -4454976.267 2
  23052305.714     5989476.186 6   4590874.006 1
  23726714.112    -5385160.279 5  -4099052.931 1
  23080503.831    -8559562.448 6  -6180375.190 1
  24092793.706    -1626672.256 4   -777244.265 1
 90 10 17 11 40 59.9990000  0  6 02 06 18 15 13 09
  20724676.042     -857971.289 7   -651106.243 3
  21182252.339    -5833379.589 7  -4481900.559 2
  23060701.753     6033604.859 6   4625259.984 1
  23721441.253    -5412842.242 5  -4120623.263 1
  23068303.034    -8623676.227 6  -6230333.962 1
  24082795.636    -1679206.767 4   -818180.220 1
 90 10 17 11 41 14.9990000  0  6 02 06 18 15 13 09
  20724566.940     -858546.522 7   -651554.467 3
  21175685.612    -5867882.669 7  -4508786.078 2
  23069107.675     6077774.541 6   4659677.900 1
  23716195.026    -5440414.947 5  -4142108.455 1
  23056116.011    -8687727.019 6  -6280243.665 1
  24072802.347    -1731744.987 5   -859119.113 1
 90 10 17 11 41 29.9990000  0  6 02 06 18 15 13 09
  20724470.894     -859066.417 7   -651959.580 3
  21169130.456    -5902335.632 7  -4535632.536 2
  23077524.714     6121985.657 6   4694128.124 1
  23710970.815    -5467877.749 5  -4163508.040 1
  23043939.589    -8751714.001 6  -6330103.625 1
  24062800.878    -1784286.204 5   -900060.320 1
 90 10 17 11 41 44.9990000  0  6 02 06 18 15 13 09
  20724379.089     -859528.598 7   -652319.708 3
  21162584.605    -5936735.583 7  -4562437.702 2
  23085944.222     6166240.194 6   4728612.149 1
  23705767.534    -5495228.066 5  -4184819.943 1
  23031774.175    -8815634.446 6  -6379911.749 1
  24052802.729    -1836828.179 5   -941002.092 1
 90 10 17 11 41 59.9990000  0  6 02 06 18 15 13 09
  20724302.690     -859933.702 7   -652635.359 3
  21156047.081    -5971082.829 7  -4589201.790 2
  23094372.667     6210537.269 6   4763129.328 1
  23700582.815    -5522466.188 5  -4206044.431 1
  23019624.456    -8879488.390 6  -6429668.052 1
  24042807.159    -1889371.073 5   -981944.654 1
 90 10 17 11 42 14.9990000  0  6 02 06 18 15 13 09
  20724234.870     -860289.021 7   -652912.221 3
  21149520.511    -6005384.558 7  -4615930.398 2
  23102807.034     6254869.021 6   4797673.535 1
  23695418.370    -5549598.995 5  -4227186.858 1
  23007484.370    -8943282.967 6  -6479378.096 1
  24032804.581    -1941922.185 5  -1022893.558 1
 90 10 17 11 42 29.9990000  0  6 02 06 18 15 13 09
  20724180.886     -860587.611 7   -653144.884 3
  21143003.503    -6039633.362 7  -4642617.751 2
  23111252.245     6299242.093 6   4832249.940 1
  23690277.456    -5576619.236 5  -4248241.562 1
  22995358.503    -9007010.896 6  -6529036.195 1
  24022809.065    -1994474.433 5  -1063843.368 1
 90 10 17 11 42 44.9990000  0  6 02 06 18 15 13 09
  20724133.456     -860829.806 7   -653333.615 3
  21136496.003    -6073829.299 7  -4669263.923 2
  23119704.120     6343655.883 6   4866858.083 1
  23685160.019    -5603526.629 5  -4269208.342 1
  22983243.019    -9070672.011 6  -6578642.241 1
  24012806.839    -2047027.697 5  -1104793.973 1
 90 10 17 11 42 59.9990000  0  6 02 06 18 15 13 09
  20724096.745     -861016.379 7
  21129998.940    -6107972.928 7  -4695869.336 2
  23128165.128     6388109.688 6   4901497.404 1
  23680059.284    -5630321.594 6  -4290087.517 1
  22971143.456    -9134266.758 6  -6628196.565 1
  24002801.956    -2099582.654 4  -1145745.872 1
 90 10 17 11 43 14.9990000  0  6 02 06 18 15 13 09
  20724072.550     -861150.886 7
  21123510.729    -6142067.118 7  -4722436.227 2
  23136628.933     6432599.316 6   4936164.630 1
  23674980.948    -5657007.510 6  -4310881.723 1
  22959052.644    -9197797.726 6  -6677701.203 1
  23992804.464    -2152142.291 4  -1186701.424 1
 90 10 17 11 43 29.9990000  0  6 02 06 18 15 13 09
  20724057.448     -861225.722 7
  21117034.792    -6176104.215 7  -4748958.630 2
  23145104.386     6477132.203 6   4970865.569 1
  23669925.792    -5683576.281 6  -4331584.630 1
  22946974.112    -9261257.152 6  -6727150.116 1
  23982799.878    -2204699.114 5  -1227654.787 1
 90 10 17 11 43 44.9990000  0  6 02 06 18 15 13 09
  20724052.034     -861248.291 7
  21110564.292    -6210091.362 7  -4775442.122 2
  23153585.128     6521700.741 6   5005594.281 1
  23664887.745    -5710034.897 5  -4352201.710 1
  22934913.573    -9324652.197 6  -6776548.823 1
  23972800.675    -2257260.368 5  -1268611.569 1
 90 10 17 11 43 59.9990000  0  6 02 06 18 15 13 09
  20724064.456     -861209.602 7
  21104109.550    -6244019.270 7  -4801879.444 2
  23162073.073     6566313.360 6   5040357.338 1
  23659878.690    -5736374.306 6  -4372725.901 1
  22922864.128    -9387973.447 6  -6825890.024 1
  23962795.979    -2309816.975 4  -1309564.812 1
 90 10 17 11 44 14.9990000  0  6 02 06 18 15 13 09
  20724079.269     -861118.145 7
  21097663.354    -6277895.958 7  -4828276.844 2
  23170571.979     6610961.261 6   5075147.894 1
  23654887.651    -5762602.480 5  -4393163.412 1
  22910824.409    -9451228.846 6  -6875179.923 1
  23952795.519    -2362377.117 4  -1350520.752 1
 90 10 17 11 44 29.9990000  0  6 02 06 18 15 13 09
  20724106.261     -860977.953 7
  21091225.105    -6311725.270 7  -4854637.320 2
  23179075.550     6655640.462 6   5109962.835 1
  23649915.636    -5788723.059 6  -4413517.096 1
  22898800.651    -9514421.810 6  -6924421.198 1
  23942792.667    -2414944.474 4  -1391482.325 1
 90 10 17 11 44 44.9990000  0  6 02 06 18 15 13 09
  20724144.331     -860787.261 7
  21084797.206    -6345505.082 7  -4880959.240 2
  23187581.995     6700352.327 6   5144803.247 1
  23644968.979    -5814734.262 6  -4433785.540 1
  22886789.042    -9577550.433 6  -6973612.326 1
  23932787.245    -2467517.392 4  -1432448.212 1
 90 10 17 11 44 59.9990000  0  6 02 06 18 15 13 09
  20724187.722     -860543.590 7
  21078379.245    -6379232.694 7  -4907240.477 2
  23196095.526     6745098.928 6   5179670.744 1
  23640040.448    -5840632.937 6  -4453966.286 1
  22874787.831    -9640611.663 6  -7022750.927 1
  23922783.831    -2520092.939 5  -1473416.174 1
 90 10 17 11 45 14.9990000  0  6 02 06 18 15 13 09
  20724246.401     -860242.135 7
  21071972.698    -6412902.769 7  -4933476.891 2
  23204619.542     6789884.915 6   5214568.914 1
  23635127.831    -5866413.791 5  -4474055.262 1
  22862800.730    -9703600.267 6  -7071832.943 1
  23912777.769    -2572665.881 4  -1514382.111 1
 90 10 17 11 45 29.9990000  0  6 02 06 18 15 13 09
  20724311.151     -859889.893 7        -0.24713
  21065573.769    -6446522.107 7  -4959673.782 2
  23213149.948     6834702.869 6   5249491.981 1
  23630246.190    -5892083.774 6  -4494057.819 1
  22850826.261    -9766522.980 6  -7120863.602 1
  23902773.081    -2625243.254 4  -1555351.486 1
 90 10 17 11 45 44.9990000  0  6 02 06 18 15 13 09
  20724388.714     -859488.687 7       312.384 3
  21059186.854    -6480092.151 7  -4985832.267 2
  23221683.464     6879550.856 6   5284438.466 1
  23625381.073    -5917644.106 5  -4513974.936 1
  22838865.214    -9829380.774 6  -7169843.688 1
  23892770.401    -2677826.621 4  -1596325.526 1
 90 10 17 11 45 59.9990000  0  6 02 06 18 15 13 09
  20724477.386     -859031.159 7       668.896 3
  21052808.440    -6513605.216 7  -5011946.341 2
  23230222.487     6924435.887 6   5319413.813 1
  23620540.714    -5943087.340 5  -4533800.821 1
  22826918.183    -9892166.062 6  -7218767.276 1
  23882760.597    -2730408.405 4  -1637298.321 1
 90 10 17 11 46 14.9990000  0  6 02 06 18 15 13 09
  20724570.886     -858521.293 7      1066.205 3
  21046442.097    -6547065.153 7  -5038019.027 2
  23238771.511     6969353.777 6   5354414.765 1
  23615721.425    -5968417.077 6  -4553538.249 1
  22814984.206    -9954882.582 6  -7267637.278 1
  23872753.769    -2782992.366 4  -1678272.806 1
 90 10 17 11 46 29.9990000  0  6 02 06 18 15 13 09
  20724679.565     -857959.861 7      1503.686 3
  21040084.104    -6580472.112 7  -5064050.421 2
  23247325.222     7014303.451 6   5389440.475 1
  23610922.706    -5993633.447 6  -4573187.338 1
  22803064.448   -10017530.436 6  -7316453.762 1
  23862749.917    -2835579.023 4  -1719249.428 1
 90 10 17 11 46 44.9990000  0  6 02 06 18 15 13 09
  20724797.448     -857343.106 7      1984.258 3
  21033738.792    -6613822.092 7  -5090037.418 2
  23255885.120     7059288.223 6   5424493.543 1
  23606146.503    -6018732.622 6  -4592745.124 1
  22791154.284   -10080105.369 6  -7365213.442 1
  23852742.315    -2888164.552 4  -1760225.130 1
 90 10 17 11 46 59.9990000  0  6 02 06 18 15 13 09
  20724923.729     -856672.026 7      2507.187 3
  21027403.769    -6647116.041 7  -5115980.748 2
  23264450.878     7104306.736 6   5459572.911 1
  23601393.925    -6043715.304 6  -4612212.130 1
  22779261.370   -10142608.266 6  -7413916.977 1
  23842733.050    -2940749.769 4  -1801200.619 1
 90 10 17 11 47 14.9990000  0  6 02 06 18 15 13 09
  20725062.597     -855948.294 7      3071.137 3
  21021077.573    -6680355.134 7  -5141881.343 2
  23273024.331     7149356.965 6   5494676.972 1
  23596658.854    -6068582.859 6  -4631589.415 1
  22767382.183   -10205040.389 6  -7462565.357 1
  23832725.854    -2993335.842 4  -1842176.719 1
 90 10 17 11 47 29.9990000  0  6 02 06 18 15 13 09
  20725211.300     -855174.105 7      3674.415 3
  21014762.292    -6713541.198 7  -5167740.601 2
  23281602.394     7194436.801 6   5529804.120 1
  23591949.214    -6093336.983 6  -4650878.333 1
  22755513.315   -10267403.366 6  -7511159.870 1
  23822722.651    -3045925.162 4  -1883155.423 1
 90 10 17 11 47 44.9990000  0  6 02 06 18 15 13 09
  20725365.972     -854347.172 7      4318.792 3
  21008458.112    -6746671.469 7  -5193556.387 2
  23290188.972     7239548.177 6   5564955.840 1
  23587261.909    -6117974.797 6  -4670076.603 1
  22743659.667   -10329694.313 6  -7559698.261 1
  23812713.604    -3098514.650 4  -1924134.231 1
 90 10 17 11 47 59.9990000  0  6 02 06 18 15 13 09
  20725536.245     -853467.141 7      5004.550 3
  21002163.511    -6779745.455 7  -5219328.315 2
  23298779.042     7284691.123 6   5600132.153 1
  23582596.081    -6142495.961 6  -4689183.975 1
  22731820.144   -10391912.790 6  -7608180.166 1
  23802708.089    -3151104.179 4  -1965113.084 1
 90 10 17 11 48 14.9990000  0  6 02 06 18 15 13 09
  20725712.589     -852533.168 7      5732.327 3
  20995881.511    -6812762.096 7  -5245055.587 2
  23307372.128     7329866.148 6   5635333.476 1
  23577950.073    -6166899.349 6  -4708199.595 1
  22719993.995   -10454057.379 6  -7656604.502 1
  23792701.229    -3203692.368 5  -2006090.881 1
 90 10 17 11 48 29.9990000  0  6 02 06 18 15 13 09
  20725900.370     -851550.559 7      6498.010 3
  20989609.425    -6845726.207 7  -5270741.934 3
  23315975.245     7375067.567 6   5670555.369 1
  23573328.456    -6191189.728 6  -4727127.144 1
  22708179.136   -10516132.942 6  -7704975.057 1
  23782690.815    -3256284.711 4  -2047071.933 1
 90 10 17 11 48 44.9990000  0  6 02 06 18 15 13 09
  20726095.761     -850514.172 7      7305.597 3
  20983346.175    -6878632.259 7  -5296383.017 2
  23324582.472     7420300.561 6   5705801.845 1
  23568733.456    -6215361.459 6  -4745962.233 1
  22696379.581   -10578133.895 6  -7753287.464 1
  23772685.136    -3308875.425 4  -2088051.691 1
 90 10 17 11 48 59.9990000  0  6 02 06 18 15 13 09
  20726304.698     -849425.438 7      8153.967 3
  20977095.995    -6911481.397 7  -5321979.764 2
  23333198.550     7465563.325 6   5741071.532 1
  23564153.214    -6239415.846 6  -4764705.878 1
  22684599.112   -10640061.227 6  -7801542.504 1
  23762672.222    -3361465.761 4  -2129031.165 1
 90 10 17 11 49 14.9990000  0  6 02 06 18 15 13 09
  20726521.331     -848283.374 7      9043.886 3
  20970855.175    -6944272.390 7  -5347531.188 3
  23341816.573     7510856.140 6   5776364.631 1
  23559596.526    -6263351.386 6  -4783356.934 1
  22672829.198   -10701913.597 6  -7849739.128 1
  23752663.925    -3414054.735 4  -2170009.596 1
 90 10 17 11 49 29.9990000  0  6 02 06 18 15 13 09
  20726748.144     -847090.195 7      9973.625 3
  20964626.253    -6977007.131 7  -5373038.773 2
  23350439.269     7556176.781 6   5811679.422 1
  23555065.245    -6287170.181 6  -4801917.023 1
  22661073.862   -10763692.554 6  -7897878.551 1
  23742658.987    -3466644.185 4  -2210988.354 1
 90 10 17 11 49 44.9990000  0  6 02 06 18 15 13 09
  20726986.573     -845840.922 7     10947.089 3
  20958407.925    -7009680.181 7  -5398498.282 3
  23359070.347     7601530.339 5   5847019.853 1
  23550553.878    -6310867.024 6  -4820382.065 1
  22649333.503   -10825392.665 6  -7945956.539 1
  23732653.690    -3519228.994 4  -2251963.499 1
 90 10 17 11 49 59.9990000  0  6 02 06 18 15 13 09
  20727234.058     -844535.879 7     11964.014 3
  20952203.011    -7042291.826 7  -5423909.953 3
  23367705.698     7646915.526 5   5882384.931 1
  23546069.026    -6334442.029 6  -4838752.175 1
  22637604.120   -10887014.136 6  -7993973.247 1
  23722647.683    -3571809.389 4  -2292935.211 1
 90 10 17 11 50 14.9990000  0  6 02 06 18 15 13 09
  20727492.206     -843178.283 7     13021.869 3
  20946008.683    -7074844.985 7  -5449276.035 3
  23376350.370     7692328.561 5   5917771.688 1
  23541605.589    -6357897.896 6  -4857029.464 1
  22625892.769   -10948559.832 6  -8041930.919 1
  23712642.112    -3624388.446 4  -2333905.891 1
 90 10 17 11 50 29.9990000  0  6 02 06 18 15 13 09
  20727762.222     -841768.490 7     14120.414 3
  20939824.831    -7107339.207 7  -5474596.192 3
  23384995.354     7737769.746 5   5953180.401 1
  23537164.636    -6381234.691 6  -4875213.959 1
  22614195.604   -11010029.442 6  -8089829.304 1
  23702635.729    -3676965.800 4  -2374875.251 1
 90 10 17 11 50 44.9990000  0  6 02 06 18 15 13 09
  20728037.901     -840311.300 7     15255.881 3
  20933650.964    -7139779.255 7  -5499874.148 3
  23393649.831     7783233.762 6   5988606.903 1
  23532744.034    -6404456.808 6  -4893309.098 1
  22602512.972   -11071427.438 6  -8137671.883 1
  23692632.190    -3729546.393 4  -2415847.136 1
 90 10 17 11 50 59.9990000  0  6 02 06 18 15 13 09
  20728325.659     -838804.399 7     16430.086 3
  20927489.917    -7172162.717 7  -5525108.019 3
  23402302.464     7828722.322 5   6024052.526 1
  23528348.042    -6427561.593 6  -4911312.812 1
  22590843.487   -11132751.199 6  -8185456.598 1
  23682626.995    -3782127.609 4  -2456819.488 1
 90 10 17 11 51 14.9990000  0  6 02 06 18 15 13 09
  20728622.862     -837246.322 7     17644.170 3
  20921337.120    -7204487.435 7  -5550296.100 2
  23410964.269     7874236.633 5   6059518.222 1
  23523977.370    -6450547.046 6  -4929223.546 1
  22579188.519   -11193998.937 6  -8233182.110 1
  23672617.003    -3834707.817 4  -2497791.074 1
 90 10 17 11 51 29.9990000  0  6 02 06 18 15 13 09
  20728927.667     -835638.313 7     18897.162 3
  20915197.706    -7236754.484 7  -5575439.230 3
  23419629.409     7919775.440 5   6095002.986 1
  23519624.300    -6473414.355 6  -4947042.220 1
  22567547.440   -11255171.044 6  -8280848.663 1
  23662613.823    -3887287.894 5  -2538762.544 1
 90 10 17 11 51 44.9990000  0  6 02 06 18 15 13 09
  20729244.058     -833977.039 7     20191.659 3
  20909070.456    -7268960.394 7  -5600534.751 2
  23428299.909     7965341.599 5   6130509.098 1
  23515295.581    -6496160.090 6  -4964766.139 1
  22555921.690   -11316263.875 6  -8328453.452 1
  23652609.386    -3939864.383 5  -2579731.213 1
 90 10 17 11 51 59.9990000  0  6 02 06 18 15 13 09
  20729570.753     -832256.284 7     21532.495 3
  20902953.979    -7301098.183 7  -5625577.194 3
  23436977.448     8010941.098 5   6166041.178 1
  23510990.331    -6518777.584 6  -4982390.139 1
  22544312.581   -11377271.128 6  -8375991.558 1
  23642608.956    -3992430.691 5  -2620691.927 1
 90 10 17 11 52 14.9990000  0  6 02 06 18 15 13 09
  20729908.573     -830485.620 7     22912.229 3
  20896849.058    -7333177.334 7  -5650573.937 2
  23445659.144     8056564.066 5   6201591.533 1
  23506709.698    -6541276.019 6  -4999921.386 1
  22532716.534   -11438201.966 6  -8423470.130 1
  23632599.831    -4044996.422 4  -2661652.226 1
 90 10 17 11 52 29.9990000  0  6 02 06 18 15 13 09
  20730254.550     -828668.402 7     24328.237 3
  20890755.112    -7365201.010 7  -5675527.449 3
  23454349.019     8102206.670 5   6237157.194 1
  23502452.456    -6563658.430 6  -5017362.206 1
  22521137.917   -11499059.047 6  -8470891.218 1
  23622596.644    -4097564.376 5  -2702614.273 1
 90 10 17 11 52 44.9990000  0  6 02 06 18 15 13 09
  20730610.651     -826794.846 7     25788.149 3
  20884674.050    -7397158.946 7  -5700429.748 3
  23463037.503     8147878.612 5   6272745.718 1
  23498216.042    -6585914.652 6  -5034704.700 1
  22509571.870   -11559832.318 6  -8518247.006 1
  23612598.378    -4150124.846 5  -2743570.454 1
 90 10 17 11 52 59.9990000  0  6 02 06 18 15 13 09
  20730976.339     -824876.568 7     27282.914 3
  20878603.479    -7429062.559 7  -5725289.703 2
  23471732.831     8193568.006 5   6308347.852 1
  23494001.409    -6608056.083 6  -5051957.744 1
  22498018.878   -11620532.754 6  -8565546.038 1
  23602597.425    -4202689.119 5  -2784529.624 1
 90 10 17 11 53 14.9990000  0  6 02 06 18 15 13 09
  20731351.097     -822903.006 7     28820.763 3
  20872543.972    -7460900.887 7  -5750098.794 3
  23480431.558     8239284.933 5   6343971.422 1
  23489810.144    -6630071.870 6  -5069112.886 1
  22486484.472   -11681149.504 6  -8612779.852 1
  23592596.276    -4255246.319 5  -2825483.269 1
 90 10 17 11 53 29.9990000  0  6 02 06 18 15 13 09
  20731736.675     -820877.909 7     30398.773 3
  20866496.894    -7492677.343 7  -5774859.659 3
  23489135.308     8285025.442 5   6379613.376 1
  23485647.144    -6651965.595 6  -5086172.930 1
  22474968.050   -11741686.045 6  -8659951.164 1
  23582596.620    -4307800.220 5  -2866434.368 1
 90 10 17 11 53 44.9990000  0  6 02 06 18 15 13 09
  20732131.901     -818801.293 7     32016.927 3
  20860463.472    -7524391.538 7  -5799572.022 3
  23497843.995     8330789.426 5   6415273.631 1
  23481501.909    -6673736.629 6  -5103137.356 1
  22463463.847   -11802141.868 6  -8707059.583 1
  23572590.089    -4360350.288 5  -2907382.482 1
 90 10 17 11 53 59.9990000  0  6 02 06 18 15 13 09
  20732536.698     -816674.774 7     33673.968 3
  20854440.073    -7556044.915 7  -5824236.996 3
  23506555.347     8376574.527 5   6450950.325 1
  23477380.753    -6695386.306 6  -5120007.211 1
  22451973.097   -11862518.364 6  -8754106.191 1
  23562593.901    -4412898.104 5  -2948328.826 1
 90 10 17 11 54 14.9990000  0  6 02 06 18 15 13 09
  20732951.011     -814498.188 7     35370.021 3
  20848428.683    -7587636.975 7  -5848854.194 3
  23515271.808     8422381.119 5   6486643.763 1
  23473284.659    -6716914.353 6  -5136782.328 1
  22440497.269   -11922814.816 6  -8801090.434 1
  23552594.729    -4465443.202 5  -2989273.060 1
 90 10 17 11 54 29.9990000  0  6 02 06 18 15 13 09
  20733374.979     -812264.767 7     37110.352 3
  20842428.183    -7619160.562 7  -5873418.025 3
  23523997.245     8468215.759 5   6522359.044 1
  23469214.472    -6738313.800 6  -5153457.189 1
  22429040.456   -11983023.960 6  -8848006.639 1
  23542597.237    -4517978.698 5  -3030209.832 1
 90 10 17 11 54 44.9990000  0  6 02 06 18 15 13 09
  20733809.050     -809982.274 7     38888.925 3
  20836442.940    -7650623.132 7  -5897934.307 3
  23532722.526     8514069.783 5   6558089.443 1
  23465163.690    -6759591.974 6  -5170037.574 1
  22417600.487   -12043153.273 6  -8894860.633 1
  23532602.276    -4570512.029 5  -3071144.906 1
 90 10 17 11 54 59.9990000  0  6 02 06 18 15 13 09
  20734252.151     -807654.005 7     40703.153 3
  20830465.972    -7682027.764 7  -5922405.470 2
  23541449.940     8559939.958 5   6593832.434 1
  23461135.769    -6780751.738 6  -5186525.695 1
  22406172.878   -12103205.643 6  -8941654.654 1
  23522605.065    -4623046.320 5  -3112080.698 1
 90 10 17 11 55 14.9990000  0  6 02 06 18 15 13 09
  20734705.839     -805277.009 7     42555.349 3
  20824501.237    -7713370.857 7  -5946828.663 2
  23550182.487     8605829.084 5   6629590.206 1
  23457134.792    -6801790.196 6  -5202919.280 1
  22394758.651   -12163177.790 6  -8988386.196 1
  23512607.604    -4675578.195 5  -3153014.625 1
 90 10 17 11 55 29.9990000  0  6 02 06 18 15 13 09
  20735166.745     -802845.372 7     44450.130 3
  20818550.308    -7744646.394 7  -5971199.212 3
  23558919.433     8651742.358 5   6665366.762 1
  23453154.769    -6822700.830 6  -5219213.281 1
  22383362.714   -12223063.197 6  -9035050.136 1
  23502611.644    -4728101.773 5  -3193942.064 1
 90 10 17 11 55 44.9990000  0  6 02 06 18 15 13 09
  20735639.167     -800366.930 7     46381.377 3
  20812609.440    -7775862.210 7  -5995523.229 2
  23567659.628     8697671.503 5   6701155.685 1
  23449199.378    -6843491.333 6  -5235413.644 1
  22371980.401   -12282869.527 6  -9081652.446 1
  23492619.433    -4780624.744 5  -3234869.045 1
 90 10 17 11 55 59.9990000  0  6 02 06 18 15 13 09
  20736119.948     -797841.362 7     48349.354 3
  20806680.534    -7807017.202 7  -6019799.845 3
  23576400.761     8743617.141 5   6736957.512 1
  23445266.722    -6864160.743 6  -5251519.666 1
  22360616.901   -12342595.946 6  -9128192.508 1
  23482621.386    -4833146.187 5  -3275794.821 1
 90 10 17 11 56 14.9990000  0  6 02 06 18 15 13 09
  20736609.378     -795263.226 7     50358.294 3
  20800764.737    -7838105.662 7  -6044024.617 3
  23585146.097     8789584.393 5   6772776.155 1
  23441355.292    -6884703.912 6  -5267527.324 1
  22349267.675   -12402236.595 6  -9174665.716 1
  23472631.144    -4885660.491 5  -3316715.073 1
 90 10 17 11 56 29.9990000  0  6 02 06 18 15 13 09
  20737108.190     -792642.054 7     52400.783 3
  20794861.331    -7869136.946 7  -6068204.827 3
  23593898.417     8835563.102 5   6808603.714 1
  23437469.120    -6905130.087 6  -5283443.816 1
  22337931.620   -12461800.805 6  -9221079.366 1
  23462636.073    -4938177.093 5  -3357637.120 1
 90 10 17 11 56 44.9990000  0  6 02 06 18 15 13 09
  20737616.831     -789973.754 7     54479.988 3
  20788967.253    -7900106.517 7  -6092336.953 3
  23602655.292     8881557.247 5   6844443.283 1
  23433607.526    -6925434.511 6  -5299265.434 1
  22326613.628   -12521283.933 6  -9267429.847 1
  23452644.112    -4990691.666 5  -3398557.555 1
 90 10 17 11 56 59.9990000  0  6 02 06 18 15 13 09
  20738133.886     -787254.776 7     56598.667 3
  20783085.776    -7931010.665 7  -6116418.097 2
  23611408.081     8927570.046 5   6880297.403 1
  23429765.800    -6945613.353 6  -5314989.194 1
  22315311.081   -12580681.934 6  -9313713.994 1
  23442651.604    -5043200.404 5  -3439473.461 1
 90 10 17 11 57 14.9990000  0  6 02 06 18 15 13 09
  20738662.378     -784482.947 7     58758.538 3
  20777217.808    -7961846.606 7  -6140446.109 2
  23620166.112     8973603.351 5   6916167.491 1
  23425950.925    -6965664.267 6  -5330613.269 1
  22304025.323   -12639992.228 6  -9359929.788 1
  23432662.526    -5095700.761 5  -3480382.797 1
 90 10 17 11 57 29.9990000  0  6 02 06 18 15 13 09
  20739200.472     -781659.374 7     60958.727 3
  20771363.144    -7992615.103 7  -6164421.566 3
  23628932.097     9019655.937 5   6952052.607 1
  23422160.706    -6985587.945 6  -5346138.207 1
  22292755.034   -12699215.360 6  -9406077.669 1
  23422672.198    -5148193.548 5  -3521286.266 1
 90 10 17 11 57 44.9990000  0  6 02 06 18 15 13 09
  20739745.339     -778789.151 7     63195.265 3
  20765519.886    -8023321.173 7  -6188348.367 2
  23637695.339     9065722.420 5   6987948.571 1
  23418393.604    -7005389.327 6  -5361567.839 1
  22281500.276   -12758355.968 6  -9452161.252 1
  23412682.909    -5200683.734 5  -3562187.684 1
 90 10 17 11 57 59.9990000  0  6 02 06 18 15 13 09
  20740300.964     -775873.638 7     65467.093 3
  20759688.753    -8053965.771 7  -6212227.278 3
  23646466.198     9111801.171 5   7023854.103 1
  23414646.878    -7025069.400 6  -5376902.944 1
  22270260.565   -12817415.270 6  -9498181.471 1
  23402697.464    -5253172.532 5  -3603088.029 1
 90 10 17 11 58 14.9990000  0  6 02 06 18 15 13 09
  20740865.019     -772907.987 7     67777.991 3
  20753869.815    -8084543.704 7  -6236054.222 3
  23655241.151     9157896.544 5   7059772.582 1
  23410924.604    -7044623.120 6  -5392139.604 1
  22259038.972   -12876388.364 6  -9544134.531 1
  23392707.815    -5305654.935 5  -3643983.393 1
 90 10 17 11 58 29.9990000  0  6 02 06 18 15 13 09
  20741438.042     -769888.735 7     70130.651 3
  20748063.737    -8115051.241 7  -6259826.312 3
  23664014.198     9204011.634 5   7095706.406 1
  23407230.448    -7064046.805 6  -5407274.924 1
  22247836.933   -12935271.126 6  -9590017.184 1
  23382722.933    -5358127.197 5  -3684870.853 1
 90 10 17 11 58 44.9990000  0  6 02 06 18 15 13 09
  20742022.198     -766824.517 7     72518.362 3
  20742270.675    -8145496.713 7  -6283550.035 3
  23672790.550     9250137.463 5   7131648.622 1
  23403556.464    -7083348.637 6  -5422315.303 1
  22236646.003   -12994071.872 6  -9635835.931 1
  23372738.276    -5410597.377 5  -3725756.691 1
 90 10 17 11 58 59.9990000  0  6 02 06 18 15 13 09
  20742614.565     -763711.369 7     74944.181 3
  20736489.542    -8175875.787 7  -6307222.033 2
  23681569.089     9296277.777 5   7167602.090 1
  23399906.800    -7102524.749 6  -5437257.709 1
  22225470.870   -13052786.073 6  -9681587.237 1
  23362755.479    -5463061.626 5  -3766637.898 1
 90 10 17 11 59 14.9990000  0  6 02 06 18 15 13 09
  20743214.956     -760551.264 7     77406.601 3
  20730721.183    -8206190.108 7  -6330843.586 2
  23690353.761     9342430.414 5   7203565.177 1
  23396281.534    -7121577.010 6  -5452103.616 1
  22214315.448   -13111415.421 6  -9727272.437 1
  23352771.784    -5515521.520 5  -3807515.707 1
 90 10 17 11 59 29.9990000  0  6 02 06 18 15 13 09
  20743826.792     -757339.895 7     79908.967 3
  20724963.034    -8236435.325 7  -6354411.301 2
  23699139.847     9388599.230 5   7239540.858 1
  23392678.058    -7140500.370 6  -5466849.079 1
  22203175.144   -13169955.399 6  -9772887.982 1
  23342789.394    -5567972.793 5  -3848386.807 1
 90 10 17 11 59 44.9990000  0  6 02 06 18 15 13 09
  20744447.331     -754079.227 7     82449.737 3
  20719223.081    -8266612.595 7  -6377926.046 3
  23707930.003     9434782.221 5   7275527.598 1
  23389104.089    -7159296.517 6  -5481495.423 1
  22192053.175   -13228407.282 6  -9818434.902 1
  23332812.347    -5620416.897 5  -3889252.319 1
 90 10 17 11 59 59.9990000  0  6 02 06 18 15 13 09
  20745077.206     -750769.268 7     85028.926 3
  20713492.894    -8296721.797 7  -6401387.786 3
  23716719.792     9480979.267 5   7311525.277 1
  23385549.690    -7177965.317 6  -5496042.528 1
  22180948.292   -13286770.755 6  -9863912.912 1
  23322831.745    -5672853.613 5  -3930112.075 1
 90 10 17 12  0 14.9990000  0  6 02 06 18 15 13 09
  20745716.464     -747413.391 7     87643.894 3
  20707775.464    -8326766.018 7  -6424798.880 3
  23725509.487     9527186.308 5   7347530.785 1
  23382022.980    -7196509.652 6  -5510492.635 1
  22169856.042   -13345048.887 6  -9909324.434 1
  23312854.933    -5725286.073 5  -3970968.505 1
 90 10 17 12  0 29.9990000  0  6 02 06 18 15 13 09
  20746365.581     -744005.548 7     90299.355 3
  20702072.019    -8356738.808 7  -6448154.288 3
  23734306.065     9573409.314 5   7383548.694 1
  23378519.995    -7214923.466 6  -5524841.059 1
  22158782.440   -13403235.331 6  -9954664.514 1
  23302879.831    -5777708.001 5  -4011816.725 1
 90 10 17 12  0 44.9990000  0  6 02 06 18 15 13 09
  20747022.433     -740548.397 7     92993.239 3
  20696382.042    -8386642.443 7  -6471455.821 2
  23743107.589     9619645.164 5   7419576.636 1
  23375040.761    -7233209.003 6  -5539089.504 1
  22147729.401   -13461332.041 6  -9999934.666 1
  23292903.628    -5830121.787 5  -4052658.619 1
 90 10 17 12  0 59.9990000  0  6 02 06 18 15 13 09
  20747690.261     -737043.387 7     95724.401 3
  20690704.167    -8416478.206 7  -6494704.475 3
  23751906.269     9665892.253 5   7455613.340 1
  23371581.972    -7251367.443 6  -5553238.942 1
  22136690.034   -13519340.321 6 -10045135.901 1
  23282933.159    -5882528.726 5  -4093495.224 1
 90 10 17 12  1 14.9990000  0  6 02 06 18 15 13 09
  20748365.487     -733494.777 7     98489.546 3
  20685037.479    -8446249.939 7  -6517903.227 3
  23760705.792     9712146.080 5   7491655.281 1
  23368152.448    -7269403.044 6  -5567292.651 1
  22125666.081   -13577264.079 6 -10090271.282 1
  23272960.245    -5934932.770 5  -4134329.501 1
 90 10 17 12  1 29.9990000  0  6 02 06 18 15 13 09
  20749050.620     -729896.648 7    101293.292 3
  20679388.214    -8475951.332 7  -6541047.160 3
  23769510.120     9758412.232 5   7527706.836 1
  23364745.612    -7287309.299 6  -5581245.558 1
  22114662.909   -13635096.690 6 -10135335.646 1
  23262992.081    -5987327.721 5  -4175156.724 1
 90 10 17 12  1 44.9990000  0  6 02 06 18 15 13 09
  20749743.894     -726248.297 7    104136.154 3
  20673748.261    -8505581.607 7  -6564135.667 2
  23778316.354     9804690.981 5   7563768.178 1
  23361360.034    -7305085.290 6  -5595096.977 1
  22103674.581   -13692837.445 6 -10180328.424 1
  23253022.425    -6039712.779 5  -4215976.213 1
 90 10 17 12  1 59.9990000  0  6 02 06 18 15 13 09
  20750447.597     -722553.026 7    107015.570 3
  20668122.683    -8535143.601 7  -6587170.970 3
  23787128.026     9850978.585 5   7599836.434 1
  23358003.222    -7322734.009 6  -5608849.210 1
  22092702.104   -13750489.250 6 -10225251.887 1
  23243055.964    -6092090.889 5  -4256790.299 1
 90 10 17 12  2 14.9990000  0  6 02 06 18 15 13 09
  20751158.808     -718811.486 7    109931.051 3
  20662511.222    -8564637.589 7  -6610153.270 2
  23795936.183     9897274.442 5   7635911.101 1
  23354666.667    -7340256.055 6  -5622502.750 1
  22081750.300   -13808052.044 7 -10270105.994 1
  23233090.214    -6144462.423 5  -4297599.278 1
 90 10 17 12  2 29.9990000  0  6 02 06 18 15 13 09
  20751880.956     -715020.234 7    112885.277 3
  20656911.487    -8594059.606 7  -6633079.493 2
  23804749.433     9943581.453 5   7671994.472 1
  23351359.167    -7357647.939 6  -5636054.850 1
  22070814.933   -13865522.155 7 -10314887.883 1
  23223125.558    -6196823.647 5  -4338400.221 1
 90 10 17 12  2 44.9990000  0  6 02 06 18 15 13 09
  20752610.183     -711181.737 7    115876.305 3
  20651326.745    -8623412.385 7  -6655951.771 3
  23813559.979     9989896.865 5   7708084.379 1
  23348071.714    -7374911.800 6  -5649507.193 1
  22059894.003   -13922901.727 7 -10359599.215 1
  23213161.722    -6249177.123 5  -4379195.127 1
 90 10 17 12  2 59.9990000  0  6 02 06 18 15 13 09
  20753349.565     -707297.621 7    118902.896 3
  20645753.870    -8652696.812 7  -6678770.796 2
  23822376.761    10036219.096 5   7744179.610 1
  23344813.456    -7392048.921 6  -5662860.788 1
  22048992.870   -13980191.979 6 -10404240.965 1
  23203200.026    -6301523.925 5  -4419984.831 1
 90 10 17 12  3 14.9990000  0  6 02 06 18 15 13 09
  20754098.854     -703361.712 7    121969.831 3
  20640194.089    -8681906.502 7  -6701531.603 2
  23831192.456    10082553.698 5   7780284.494 1
  23341575.362    -7409052.648 6  -5676110.433 1
  22038110.714   -14037386.244 7 -10448807.911 1
  23193242.948    -6353857.578 5  -4460764.300 1
 90 10 17 12  3 29.9990000  0  6 02 06 18 15 13 09
  20754858.104     -699374.963 7    125076.388 3
  20634650.042    -8711042.060 7  -6724234.626 2
  23840012.511    10128899.489 5   7816398.095 1
  23338364.917    -7425923.968 6  -5689256.901 1
  22027242.878   -14094485.180 6 -10493300.569 1
  23183287.050    -6406179.025 5  -4501534.243 1
 90 10 17 12  3 44.9990000  0  6 02 06 18 15 13 09
  20755624.214     -695342.160 7    128218.845 3
  20629119.940    -8740107.965 7  -6746883.388 2
  23848836.972    10175251.346 5   7852516.414 1
  23335179.081    -7442667.579 6  -5702303.861 1
  22016394.058   -14151493.324 6 -10537722.483 1
  23173332.925    -6458492.688 5  -4542298.119 1
 90 10 17 12  3 59.9990000  0  6 02 06 18 15 13 09
  20756402.995     -691257.342 7    131401.823 3
  20623602.823    -8769097.840 7  -6769472.897 2
  23857657.229    10221615.341 5   7888644.200 1
  23332021.683    -7459276.936 6  -5715246.206 1
  22005563.800   -14208404.422 6 -10582068.773 1
  23163378.761    -6510792.434 5  -4583051.194 1
 90 10 17 12  4 14.9990000  0  6 02 06 18 15 13 09
  20757188.034     -687130.010 7    134617.931 3
  20618098.800    -8798021.006 7  -6792010.420 2
  23866481.753    10267981.255 5   7924773.484 1
  23328881.894    -7475761.417 6  -5728091.238 1
  21994752.948   -14265227.678 7 -10626346.624 1
  23153425.839    -6563087.559 5  -4623800.641 1
 90 10 17 12  4 29.9990000  0  6 02 06 18 15 13 09
  20757983.026     -682953.390 7    137872.437 3
  20612609.722    -8826870.415 7  -6814490.465 2
  23875304.729    10314355.584 5   7960909.305 1
  23325769.261    -7492114.004 6  -5740833.501 1
  21983958.644   -14321955.764 7 -10670550.318 1
  23143474.612    -6615370.812 5  -4664540.830 1
 90 10 17 12  4 44.9990000  0  6 02 06 18 15 13 09
  20758785.784     -678733.467 7    141160.683 3
  20607133.284    -8855651.351 7  -6836917.160 3
  23884129.761    10360732.316 5   7997047.025 1
  23322682.933    -7508340.327 6  -5753477.383 1
  21973178.120   -14378594.048 7 -10714684.026 1
  23133531.355    -6667647.916 5  -4705276.213 1
 90 10 17 12  4 59.9990000  0  6 02 06 18 15 13 09
  20759597.128     -674470.055 7    144482.824 3
  20601668.378    -8884363.405 7  -6859290.175 3
  23892954.573    10407111.185 5   8033186.404 1
  23319620.222    -7524440.279 6  -5766022.796 1
  21962416.542   -14435142.136 7 -10758747.465 1
  23123581.526    -6719918.411 5  -4746006.458 1
 90 10 17 12  5 14.9990000  0  6 02 06 18 15 13 09
  20760416.917     -670160.275 7    147841.098 3
  20596219.089    -8913003.470 7  -6881607.096 3
  23901784.511    10453494.717 5   8069329.394 1
  23316577.792    -7540410.363 6  -5778467.001 1
  21951676.706   -14491596.694 7 -10802738.012 1
  23113635.995    -6772179.161 5  -4786729.096 1
 90 10 17 12  5 29.9990000  0  6 02 06 18 15 13 09
  20761246.401     -665800.505 7    151238.331 3
  20590782.581    -8941567.727 7  -6903864.954 3
  23910609.464    10499886.204 5   8105478.639 1
  23313564.628    -7556246.973 6  -5790807.210 1
  21940951.979   -14547954.060 7 -10846652.825 1
  23103695.362    -6824426.484 5  -4827441.278 1
 90 10 17 12  5 44.9990000  0  6 02 06 18 15 13 09
  20762084.479     -661395.435 7    154670.862 3
  20585361.597    -8970060.407 7  -6926067.035 2
  23919434.753    10546280.840 5   8141630.325 1
  23310577.933    -7571954.451 6  -5803046.798 1
  21930242.815   -14604218.239 7 -10890495.031 1
  23093757.284    -6876664.750 5  -4868146.416 1
 90 10 17 12  5 59.9990000  0  6 02 06 18 15 13 09
  20762932.144     -656943.294 7    158140.081 3
  20579952.698    -8998479.730 7  -6948211.958 2
  23928267.565    10592679.780 5   8177785.320 1
  23307612.581    -7587530.932 6  -5815184.292 1
  21919555.347   -14660387.574 7 -10934263.341 1
  23083815.972    -6928892.205 5  -4908843.134 1
 90 10 17 12  6 14.9990000  0  6 02 06 18 15 13 09
  20763789.354     -652442.551 7    161647.142 3
  20574559.792    -9026823.758 7  -6970298.215 2
  23937094.229    10639084.275 5   8213944.669 1
  23304674.409    -7602975.002 6  -5827218.625 1
  21908885.112   -14716459.964 7 -10977956.098 1
  23073880.425    -6981106.880 5  -4949529.853 1
 90 10 17 12  6 29.9990000  0  6 02 06 18 15 13 09
  20764650.925     -647899.141 7    165187.445 3
  20569178.886    -9055097.680 7  -6992329.836 3
  23945927.409    10685488.284 5   8250103.650 1
  23301758.636    -7618291.662 6  -5839153.684 1
  21898233.034   -14772440.568 7 -11021577.338 1
  23063943.401    -7033314.192 5  -4990210.832 1
 90 10 17 12  6 44.9990000  0  6 02 06 18 15 13 09
  20765525.605     -643309.562 7    168763.729 3
  20563813.276    -9083297.839 7  -7014303.980 2
  23954760.620    10731895.351 4   8286264.971 1
  23298866.745    -7633477.530 6  -5850986.830 1
  21887596.909   -14828325.811 7 -11065124.266 1
  23054014.729    -7085510.639 5  -5030883.357 1
 90 10 17 12  6 59.9990000  0  6 02 06 18 15 13 09
  20766410.081     -638667.307 7    172381.052 3
  20558462.675    -9111417.552 7  -7036215.439 3
  23963592.394    10778311.480 4   8322433.361 1
  23296008.698    -7648525.758 6  -5862712.704 1
  21876982.190   -14884108.698 7 -11108591.440 1
  23044081.581    -7137689.369 5  -5071542.090 1
 90 10 17 12  7 14.9990000  0  6 02 06 18 15 13 09
  20767301.604     -633980.785 7    176032.880 3
  20553124.534    -9139464.973 7  -7058070.570 2
  23972422.519    10824727.955 4   8358602.017 1
  23293166.104    -7663444.736 6  -5874337.859 1
  21866386.198   -14939797.532 7 -11151985.329 1
  23034155.136    -7189858.572 5  -5112193.405 1
 90 10 17 12  7 29.9990000  0  6 02 06 18 15 13 09
  20768203.073     -629251.476 7    179718.055 3
  20547801.136    -9167441.085 7  -7079870.134 3
  23981259.511    10871142.814 4   8394769.433 1
  23290351.784    -7678235.713 6  -5885863.300 1
  21855807.386   -14995393.336 7 -11195306.730 1
  23024231.597    -7242019.401 5  -5152838.176 1
 90 10 17 12  7 44.9990000  0  6 02 06 18 15 13 09
  20769110.058     -624473.471 7    183441.167 3
  20542491.214    -9195339.645 7  -7101609.263 3
  23990091.378    10917561.779 4   8430940.018 1
  23287564.526    -7692892.399 6  -5897284.074 1
  21845244.979   -15050889.827 7 -11238550.730 1
  23014307.190    -7294165.789 5  -5193471.697 1
 90 10 17 12  7 59.9990000  0  6 02 06 18 15 13 09
  20770028.292     -619649.113 7    187200.407 3
  20537197.651    -9223162.931 7  -7123289.734 2
  23998922.776    10963982.055 5   8467111.677 1
  23284797.230    -7707417.004 6  -5908601.952 1
  21834702.308   -15106289.124 7 -11281719.014 1
  23004385.448    -7346299.930 5  -5234095.683 1
 90 10 17 12  8 14.9990000  0  6 02 06 18 15 13 09
  20770954.394     -614783.496 7    190991.784 3
  20531916.933    -9250915.361 7  -7144914.998 2
  24007758.534    11010398.463 5   8503280.279 1
  23282060.394    -7721814.370 6  -5919820.684 1
  21824178.722   -15161595.642 7 -11324814.994 1
  22994466.534    -7398426.440 5  -5274713.735 1
 90 10 17 12  8 29.9990000  0  6 02 06 18 15 13 09
  20771888.979     -609874.037 7    194817.332 3
  20526650.050    -9278594.261 7  -7166482.970 2
  24016585.620    11056813.061 5   8539447.504 1
  23279346.237    -7736081.905 6  -5930938.230 1
  21813671.862   -15216806.683 7 -11367836.572 1
  22984551.370    -7450542.629 5  -5315323.732 1
 90 10 17 12  8 44.9990000  0  6 02 06 18 15 13 09
  20772832.386     -604921.291 7    198676.606 3
  20521396.542    -9306199.908 7  -7187993.872 2
  24025420.542    11103225.368 5   8575612.930 1
  23276654.214    -7750219.929 6  -5941954.867 1
  21803183.714   -15271922.309 7 -11410783.809 1
  22974634.972    -7502648.741 5  -5355925.887 1
 90 10 17 12  8 59.9990000  0  6 02 06 18 15 13 09
  20773782.448     -599921.237 7    202572.752 3
  20516157.237    -9333727.719 7  -7209444.105 2
  24034254.784    11149638.981 5   8611779.397 1
  23273989.331    -7764223.786 6  -5952866.971 1
  21792716.073   -15326938.092 7 -11453653.230 1
  22964719.722    -7554740.421 5  -5396516.795 1
 90 10 17 12  9 14.9990000  0  6 02 06 18 15 13 09
  20774742.479     -594876.472 7    206503.747 3
  20510932.776    -9361179.929 7  -7230835.437 2
  24043086.222    11196050.911 5   8647944.526 1
  23271348.159    -7778096.161 6  -5963676.609 1
  21782263.636   -15381856.466 7 -11496446.760 1
  22954812.612    -7606819.930 5  -5437098.219 1
 90 10 17 12  9 29.9990000  0  6 02 06 18 15 13 09
  20775712.534     -589791.748 7    210465.870 3
  20505722.222    -9388561.217 7  -7252171.515 2
  24051916.651    11242456.117 5   8684104.424 1
  23268733.120    -7791841.623 6  -5974387.364 1
  21771832.847   -15436681.747 7 -11539167.754 1
  22944904.167    -7658892.011 5  -5477673.846 1
 90 10 17 12  9 44.9990000  0  6 02 06 18 15 13 09
  20776685.847     -584662.130 7    214462.974 3
  20500525.769    -9415866.561 7  -7273448.410 3
  24060744.183    11288859.058 5   8720262.557 1
  23266145.112    -7805455.185 6  -5984995.338 1
  21761417.823   -15491408.819 7 -11581812.217 1
  22934995.823    -7710951.672 5  -5518239.804 1
 90 10 17 12  9 59.9990000  0  6 02 06 18 15 13 09
  20777671.917     -579487.913 7    218494.828 3
  20495346.245    -9443095.750 7  -7294665.957 3
  24069572.737    11335259.081 5   8756418.415 1
  23263578.901    -7818937.002 6  -5995500.657 1
  21751021.558   -15546037.523 7 -11624380.024 1
  22925091.542    -7762998.630 5  -5558795.857 1
 90 10 17 12 10 14.9990000  0  6 02 06 18 15 13 09
  20778665.198     -574266.874 7    222563.178 3
  20490179.065    -9470246.140 7  -7315822.109 2
  24078403.800    11381658.234 5   8792573.581 1
  23261041.081    -7832284.300 6  -6005901.145 1
  21740644.425   -15600565.237 7 -11666869.139 1
  22915188.026    -7815030.470 5  -5599340.142 1
 90 10 17 12 10 29.9990000  0  6 02 06 18 15 13 09
  20779666.979     -568999.538 7    226667.601 3
  20485026.808    -9497317.958 7  -7336917.027 2
  24087234.339    11428056.143 5   8828727.788 1
  23258524.690    -7845497.598 6  -6016197.210 1
  21730290.128   -15654992.349 7 -11709279.857 1
  22905291.956    -7867047.315 5  -5639872.737 1
 90 10 17 12 10 44.9990000  0  6 02 06 18 15 13 09
  20780678.112     -563687.156 7    230807.117 3
  20479891.214    -9524311.917 7  -7357951.277 2
  24096063.042    11474451.072 5   8864879.689 1
  23256036.214    -7858577.740 6  -6026389.526 1
  21719950.573   -15709319.263 7 -11751612.506 1
  22895397.550    -7919050.132 5  -5680394.405 1
 90 10 17 12 10 59.9990000  0  6 02 06 18 15 13 09
  20781699.003     -558325.423 7    234985.091 3
  20474768.909    -9551223.571 7  -7378921.396 3
  24104890.620    11520846.681 5   8901032.091 1
  23253571.058    -7871520.474 6  -6036474.768 1
  21709631.214   -15763541.539 7 -11793863.621 1
  22885502.620    -7971034.602 5  -5720901.781 1
 90 10 17 12 11 14.9990000  0  6 02 06 18 15 13 09
  20782727.620     -552921.484 7    239195.963 3
  20469663.206    -9578059.729 7  -7399832.678 3
  24113720.034    11567235.878 5   8937179.509 1
  23251134.972    -7884332.540 6  -6046458.202 1
  21699332.995   -15817666.129 7 -11836038.610 1
  22875611.136    -8023007.272 5  -5761399.949 1
 90 10 17 12 11 29.9990000  0  6 02 06 18 15 13 09
  20783763.042     -547474.265 7    243440.544 3
  20464570.144    -9604819.238 7  -7420684.245 2
  24122545.089    11613619.328 5   8973322.463 1
  23248720.917    -7897012.997 6  -6056339.062 1
  21689050.917   -15871691.678 7 -11878136.429 1
  22865725.136    -8074967.211 5  -5801888.213 1
 90 10 17 12 11 44.9990000  0  6 02 06 18 15 13 09
  20784808.417     -541983.937 7    247718.730 3
  20459493.370    -9631501.846 7  -7441475.883 2
  24131369.706    11659996.451 5   9009460.457 1
  23246334.909    -7909561.583 6  -6066117.177 1
  21678790.362   -15925617.933 7 -11920156.875 1
  22855839.472    -8126914.261 5  -5842366.416 1
 90 10 17 12 11 59.9990000  0  6 02 06 18 15 13 09
  20785860.425     -536448.198 7    252032.297 3
  20454430.933    -9658104.793 7  -7462205.455 2
  24140194.565    11706369.307 5   9045595.181 1
  23243971.229    -7921975.923 6  -6075790.699 1
  21668547.854   -15979442.445 7 -11962098.048 1
  22845956.401    -8178845.759 5  -5882832.494 1
 90 10 17 12 12 14.9990000  0  6 02 06 18 15 13 09
  20786923.511     -530863.841 7    256383.741 3
  20449383.753    -9684624.799 7  -7482870.391 3
  24149016.331    11752740.945 5   9081728.942 1
  23241632.190    -7934252.511 6  -6085356.861 1
  21658325.464   -16033161.576 7 -12003957.103 1
  22836078.659    -8230758.031 5  -5923283.625 1
 90 10 17 12 12 29.9990000  0  6 02 06 18 15 13 09
  20787995.542     -525236.108 7    260768.995 3
  20444352.651    -9711066.584 7  -7503474.366 2
  24157844.167    11799105.744 5   9117857.347 1
  23239323.136    -7946396.777 6  -6094819.917 1
  21648122.870   -16086780.194 7 -12045737.836 1
  22826202.683    -8282656.495 5  -5963723.981 1
 90 10 17 12 12 44.9990000  0  6 02 06 18 15 13 09
  20789075.597     -519564.799 7    265188.224 3
  20439335.347    -9737429.686 7  -7524017.043 3
  24166667.792    11845463.482 5   9153980.269 1
  23237038.050    -7958408.217 6  -6104179.470 1
  21637936.190   -16140297.458 7 -12087439.593 1
  22816332.065    -8334540.452 5  -6004153.024 1
 90 10 17 12 12 59.9990000  0  6 02 06 18 15 13 09
  20790160.487     -513852.840 7    269639.117 3
  20434333.151    -9763716.598 7  -7544500.348 2
  24175484.519    11891811.100 4   9190095.297 1
  23234775.269    -7970289.503 6  -6113437.610 1
  21627773.417   -16193716.329 7 -12129064.682 1
  22806459.167    -8386412.429 5  -6044572.741 1
 90 10 17 12 13 14.9990000  0  6 02 06 18 15 13 09
  20791256.144     -508096.043 7    274124.947 3
  20429347.058    -9789922.649 7  -7564920.644 3
  24184300.847    11938152.584 4   9226205.558 1
  23232541.628    -7982035.868 6  -6122590.621 1
  21617627.065   -16247031.919 7 -12170609.290 1
  22796591.644    -8438268.021 5  -6084979.676 1
 90 10 17 12 13 29.9990000  0  6 02 06 18 15 13 09
  20792360.526     -502295.491 7    278644.859 3
  20424374.323    -9816049.135 7  -7585278.944 2
  24193121.089    11984486.352 4   9262309.742 1
  23230332.003    -7993648.775 6  -6131639.626 1
  21607500.722   -16300245.344 7 -12212074.288 1
  22786727.073    -8490108.123 5  -6125374.537 1
 90 10 17 12 13 44.9990000  0  6 02 06 18 15 13 09
  20793471.050     -496455.697 7    283195.355 3
  20419417.308    -9842099.956 7  -7605578.270 2
  24201934.745    12030807.945 3   9298404.486 1
  23228146.487    -8005132.336 6  -6140587.834 1
  21597393.972   -16353360.527 7 -12253462.722 1
  22776862.753    -8541936.729 5  -6165760.457 1
 90 10 17 12 13 59.9990000  0  6 02 06 18 15 13 09
  20794592.128     -490569.033 7    287782.373 3
  20414475.800    -9868067.080 7  -7625812.379 2
  24210751.604    12077124.177 4   9334495.016 1
  23225987.034    -8016478.513 6  -6149428.991 1
  21587306.839   -16406369.827 7 -12294768.661 1
  22767003.815    -8593746.491 5  -6206131.685 1
 90 10 17 12 14 14.9990000  0  6 02 06 18 15 13 09
  20795721.308     -484632.581 7    292408.187 3
  20409551.495    -9893947.520 7  -7645978.929 3
  24219565.534    12123437.853 4   9370583.577 1
  23223854.097    -8027684.726 6  -6158161.103 1
  21577238.925   -16459269.816 7 -12335989.429 1
  22757150.815    -8645533.926 5  -6246485.513 1
 90 10 17 12 14 29.9990000  0  6 02 06 18 15 13 09
  20796860.308     -478646.091 7    297072.999 3
  20404641.979    -9919740.607 7  -7666077.422 2
  24228376.417    12169748.852 5   9406670.050 1
  23221751.050    -8038750.147 6  -6166783.498 1
  21567195.167   -16512060.139 7 -12377124.737 1
  22747297.097    -8697298.438 5  -6286821.482 1
 90 10 17 12 14 44.9990000  0  6 02 06 18 15 13 09
  20798007.839     -472613.994 7    301773.337 3
  20399751.706    -9945450.339 7  -7686110.971 2
  24237183.261    12216052.908 5   9442751.116 1
  23219667.722    -8049679.178 6  -6175299.600 1
  21557167.175   -16564744.641 7 -12418177.586 1
  22737450.300    -8749044.230 5  -6327142.860 1
 90 10 17 12 14 59.9990000  0  6 02 06 18 15 13 09
  20799165.362     -466533.620 7    306511.293 3
  20394874.862    -9971073.814 7  -7706077.311 2
  24245992.487    12262352.189 5   9478828.453 1
  23217615.550    -8060468.744 6  -6183707.052 1
  21547163.050   -16617320.262 7 -12459145.598 1
  22727610.714    -8800768.343 5  -6367447.352 1
 90 10 17 12 15 14.9990000  0  6 02 06 18 15 13 09
  20800330.847     -460410.440 7    311282.607 3
  20390013.167    -9996616.353 7  -7725980.606 2
  24254801.620    12308640.717 5   9514897.464 1
  23215587.534    -8071124.367 6  -6192010.125 1
  21537180.245   -16669792.328 7 -12500032.916 1
  22717769.065    -8852476.317 5  -6407739.254 1
 90 10 17 12 15 29.9990000  0  6 02 06 18 15 13 09
  20801504.112     -454244.251 7    316087.442 3
  20385168.573   -10022077.284 7  -7745820.283 3
  24263610.354    12354918.433 5   9550958.025 1
  23213583.886    -8081645.854 6  -6200208.670 1
  21527213.636   -16722160.359 7 -12540839.165 1
  22707933.925    -8904167.224 5  -6448017.867 1
 90 10 17 12 15 44.9990000  0  6 02 06 18 15 13 09
  20802686.370     -448036.066 7    320924.984 3
  20380339.206   -10047457.273 7  -7765596.902 2
  24272416.003    12401184.087 5   9587009.169 1
  23211608.745    -8092034.076 6  -6208303.386 1
  21517267.440   -16774424.779 7 -12581564.679 1
  22698101.089    -8955841.847 5  -6488283.804 1
 90 10 17 12 15 59.9990000  0  6 02 06 18 15 13 09
  20803875.104     -441781.466 7    325798.691 3
  20375526.362   -10072751.493 7  -7785306.680 2
  24281218.972    12447441.887 5   9623054.229 1
  23209660.229    -8102284.349 6  -6216290.585 1
  21507342.464   -16826581.026 7 -12622205.900 1
  22688270.026    -9007495.611 5  -6528533.488 1
 90 10 17 12 16 14.9990000  0  6 02 06 18 15 13 09
  20805074.487     -435482.485 7    330706.986 3
  20370727.909   -10097961.932 7  -7804951.171 3
  24290017.722    12493689.498 5   9659091.301 1
  23207733.573    -8112398.380 6  -6224171.647 1
  21497436.831   -16878630.775 7 -12662764.136 1
  22678443.769    -9059130.454 5  -6568768.406 1
 90 10 17 12 16 29.9990000  0  6 02 06 18 15 13 09
  20806279.886     -429141.963 7    335647.657 3
  20365946.862   -10123090.897 7  -7824532.173 3
  24298816.354    12539923.740 4   9695117.998 1
  23205833.784    -8122379.030 6  -6231948.785 1
  21487551.948   -16930576.651 7 -12703241.440 1
  22668624.167    -9110748.695 5  -6608990.404 1
 90 10 17 12 16 44.9990000  0  6 02 06 18 15 13 09
  20807495.011     -422760.216 7    340620.458 3
  20361179.019   -10148138.792 7  -7844050.011 2
  24307610.464    12586143.904 4   9731133.721 1
  23203961.972    -8132226.509 6  -6239622.129 1
  21477687.925   -16982418.714 7 -12743637.835 1
  22658803.714    -9162350.614 5  -6649199.680 1
 90 10 17 12 16 59.9990000  0  6 02 06 18 15 13 09
  20808718.917     -416334.434 7    345627.576 3
  20356429.659   -10173102.039 7  -7863501.887 3
  24316404.815    12632352.521 3   9767140.421 1
  23202113.253    -8141937.894 6  -6247189.422 1
  21467842.300   -17034153.527 7 -12783950.669 1
  22648988.323    -9213932.909 5  -6689393.664 1
 90 10 17 12 17 14.9990000  0  6 02 06 18 15 13 09
  20809949.144     -409863.797 7    350669.640 3
  20351696.878   -10197979.573 7  -7882886.979 3
  24325195.651    12678550.186 3   9803138.594 1
  23200292.745    -8151512.102 6  -6254649.844 1
  21458018.050   -17085780.263 7
  22639175.370    -9265494.515 5
 90 10 17 12 17 29.9990000  0  6 02 06 18 15 13 09
  20811189.800     -403344.664 7    355749.503 3
  20346978.792   -10222767.623 7  -7902202.338 2
  24333983.167    12724740.403 2   9839130.977 1
  23198496.683    -8160945.264 6  -6262000.354 1
  21448215.370   -17137294.870 7
  22629368.972    -9317031.666 5
 90 10 17 12 17 44.9990000  0  6 02 06 18 15 13 09
  20812440.175     -396781.098 7    360863.971 3
  20342278.925   -10247469.647 7  -7921450.664 2
  24342771.573    12770918.840 2   9875114.165 1
  23196725.190    -8170241.170 6  -6269243.904 1
  21438433.198   -17188700.929 7 -12904377.200 1
  22619565.276    -9368547.759 5  -6809872.725 1
 90 10 17 12 17 59.9990000  0  6 02 06 18 15 13 09
  20813695.534     -390175.754 7    366011.000 3
  20337593.503   -10272088.243 7  -7940633.989 2
  24351555.690    12817082.287 2   9911085.671 1
  23194982.839    -8179402.565 6  -6276382.638 1
  21428669.456   -17240000.913 7 -12944351.207 1
  22609764.323    -9420045.514 5  -6850000.830 1
 90 10 17 12 18 14.9990000  0  6 02 06 18 15 13 09
  20814960.034     -383530.425 7    371189.190 3
  20332924.214   -10296624.920 7  -7959753.478 3
  24360338.058    12863228.778 2   9947043.919 1
  23193266.183    -8188431.043 6  -6283417.827 1
  21418929.300   -17291196.171 7 -12984243.611 1
  22599967.831    -9471526.497 5  -6890115.860 1
 90 10 17 12 18 29.9990000  0  6 02 06 18 15 13 09
  20816235.573     -376832.792 7    376408.125 3
  20328273.112   -10321066.877 7  -7978799.162 3
  24369114.167    12909370.587 3   9982998.593 1
  23191575.948    -8197314.221 6  -6290339.788 1
  21409209.628   -17342274.162 7 -13024044.629 1
  22590174.104    -9522977.886 5  -6930207.831 1
 90 10 17 12 18 44.9990000  0  6 02 06 18 15 13 09
  20817518.940     -370089.324 7    381662.771 3
  20323638.417   -10345420.305 7  -7997775.853 3
  24377895.003    12955500.602 4  10018944.015 1
  23189910.104    -8206058.351 6  -6297153.379 1
  21399510.073   -17393241.305 7 -13063759.283 1
  22580390.847    -9574406.060 5  -6970281.695 1
 90 10 17 12 18 59.9990000  0  6 02 06 18 15 13 09
  20818809.761     -363306.526 7    386948.063 3
  20319020.144   -10369691.749 7  -8016688.661 3
  24386671.487    13001611.709 4  10054874.759 1
  23188270.339    -8214670.148 6  -6303863.866 1
  21389831.698   -17444103.802 7 -13103392.387 1
  22570607.214    -9625817.286 5  -7010342.356 1
 90 10 17 12 19 14.9990000  0  6 02 06 18 15 13 09
  20820106.706     -356482.504 7    392265.485 3
  20314417.894   -10393878.886 7  -8035535.759 3
  24395444.909    13047705.794 4  10090792.211 1
  23186658.839    -8223147.336 6  -6310469.470 1
  21380173.011   -17494859.449 7 -13142942.235 1
  22560825.862    -9677209.512 5  -7050388.225 1
 90 10 17 12 19 29.9990000  0  6 02 06 18 15 13 09
  20821413.800     -349614.443 7    397617.224 3
  20309830.823   -10417978.343 7  -8054314.550 3
  24404215.409    13093785.741 5  10126698.646 1
  23185071.276    -8231486.627 6  -6316967.613 1
  21370534.956   -17545504.884 7 -13182406.203 1
  22551054.956    -9728579.342 6  -7090416.633 1
 90 10 17 12 19 44.9990000  0  6 02 06 18 15 13 09
  20822729.261     -342703.975 7    403002.001 3
  20305261.753   -10441991.692 7  -8073026.240 3
  24412978.839    13139849.053 5  10162592.116 1
  23183511.987    -8239690.026 6  -6323359.891 1
  21360919.628   -17596041.826 7 -13221785.630 1
  22541280.714    -9779928.535 6  -7130428.981 1
 90 10 17 12 19 59.9990000  0  6 02 06 18 15 13 09
  20824051.605     -335752.853 7    408418.464 3
  20300708.128   -10465920.206 7  -8091671.822 2
  24421743.581    13185894.075 5  10198471.383 1
  23181975.644    -8247758.899 6  -6329647.310 1
  21351322.729   -17646471.472 7 -13261081.447 1
  22531515.503    -9831258.076 5  -7170426.008 1
 90 10 17 12 20 14.9990000  0  6 02 06 18 15 13 09
  20825383.901     -328758.419 7    413868.687 3
  20296172.394   -10489761.052 7  -8110249.111 3
  24430500.597    13231923.006 4  10234338.045 1
  23180466.745    -8255690.824 6  -6335828.018 1
  21341748.339   -17696790.693 7 -13300291.226 1
  22521749.019    -9882565.375 6  -7210405.703 1
 90 10 17 12 20 29.9990000  0  6 02 06 18 15 13 09
  20826722.667     -321715.901 7    419356.373 3
  20291652.097   -10513509.128 7  -8128754.117 2
  24439255.355    13277940.346 4
  23178983.831    -8263480.596 6  -6341897.945 1
  21332193.292   -17746994.383 7 -13339410.974 1
  22511991.667    -9933845.284 6  -7250364.060 1
 90 10 17 12 20 44.9990000  0  6 02 06 18 15 13 09
  20828070.714     -314631.898 7    424876.373 3
  20287150.409   -10537170.746 7  -8147191.736 2
  24448011.370    13323939.602 4
  23177526.284    -8271134.775 6  -6347862.238 1
  21322659.979   -17797088.995 7 -13378445.732 1
  22502236.855    -9985104.073 6  -7290305.965 1
 90 10 17 12 20 59.9990000  0  6 02 06 18 15 13 09
  20829427.698     -307504.075 7    430430.520 3
  20282664.401   -10560743.018 7  -8165559.751 2
  24456757.276    13369922.758 3
  23176096.495    -8278650.785 6  -6353718.867 1
  21313148.198   -17847071.850 7 -13417393.406 1
  22492486.745   -10036339.194 6  -7330229.423 1
 90 10 17 12 21 14.9990000  0  6 02 06 18 15 13 09
  20830792.120     -300332.315 7    436018.905 3
  20278195.737   -10584225.675 7  -8183857.925 2
  24465505.933    13415889.188 3
  23174694.792    -8286028.454 6  -6359467.689 1
  21303658.979   -17896942.486 7 -13456253.636 1
  22482740.394   -10087550.077 6  -7370133.979 1
 90 10 17 12 21 29.9990000  0  6 02 06 18 15 13 09
  20832165.034     -293123.023 7    441636.546 3
  20273742.628   -10607624.928 7  -8202091.110 3
  24474247.628    13461832.295 4
  23173315.401    -8293273.797 6  -6365113.402 1
  21294188.659   -17946707.122 7 -13495031.258 1
  22473000.940   -10138742.874 6  -7410024.443 1
 90 10 17 12 21 44.9990000  0  6 02 06 18 15 13 09
  20833542.714     -285873.566 7    447285.479 3
  20269306.581   -10630937.789 7  -8220256.969 3
  24482986.698    13507754.400 4
  23171959.214    -8300384.314 6  -6370654.068 1
  21284739.706   -17996363.005 7 -13533724.153 1
  22463261.206   -10189914.950 6  -7449898.772 1
 90 10 17 12 21 59.9990000  0  6 02 06 18 15 13 09
  20834931.479     -278583.673 7    452965.925 3
  20264887.612   -10654163.727 7  -8238355.104 2
  24491721.675    13553655.431 4
  23170634.815    -8307359.849 6  -6376089.558 1
  21275312.706   -18045909.395 7 -13572331.722 1
  22453530.745   -10241065.554 6  -7489756.363 1
 90 10 17 12 22 14.9990000  0  6 02 06 18 15 13 09
  20836325.722     -271249.799 7    458680.618 3
  20260484.237   -10677298.730 7  -8256382.377 2
  24500452.401    13599538.937 5
  23169335.026    -8314196.519 6  -6381416.829 1
  21265904.190   -18095342.464 7 -13610850.987 1
  22443801.034   -10292190.881 6  -7529594.266 1
 90 10 17 12 22 29.9990000  0  6 02 06 18 15 13 09
  20837731.042     -263869.794 7    464431.255 3
  20256099.909   -10700340.555 7  -8274337.034 3
  24509181.729    13645406.665 5
  23168058.237    -8320891.893 6  -6386633.990 1
  21256519.300   -18144659.796 7 -13649280.068 1
  22434077.159   -10343288.658 6  -7569410.697 1
 90 10 17 12 22 44.9990000  0  5 02 06 15 13 09
  20839143.909     -256447.109 7    470215.153 3
  20251731.550   -10723292.307 7  -8292221.500 2
  23166811.019    -8327449.813 6  -6391744.070 1
  21247156.550   -18193864.752 7 -13687621.587 1
  22424357.987   -10394362.010 6  -7609208.101 1
 90 10 17 12 22 59.9990000  0  5 02 06 15 13 09
  20840563.542     -248982.257 7    476031.913 3
  20247380.175   -10746154.089 7  -8310035.868 2
  23165590.784    -8333870.336 6  -6396747.086 1
  21237814.253   -18242957.333 7 -13725875.536 1
  22414640.198   -10445410.754 6  -7648986.339 1
 90 10 17 12 23 14.9990000  0  5 02 06 15 13 09
  20841993.651     -241471.102 7    481884.761 3
  20243048.948   -10768921.535 7  -8327776.742 3
  23164394.909    -8340149.455 6  -6401639.898 1
  21228494.151   -18291933.193 7 -13764038.542 1
  22404935.073   -10496431.025 6  -7688742.384 1
 90 10 17 12 23 29.9990000  0  5 02 06 15 13 09
  20843431.425     -233915.282 7    487772.412 3
  20238734.753   -10791595.726 7  -8345444.945 2
  23163224.839    -8346288.477 6  -6406423.554 1
  21219197.534   -18340793.447 7 -13802111.465 1
  22395233.120   -10547423.731 6  -7728476.960 1
 90 10 17 12 23 44.9990000  0  5 02 06 15 13 09
  20844876.276     -226320.122 7    493690.712 3
  20234437.300   -10814182.078 7  -8363044.704 2
  23162082.308    -8352292.396 6  -6411101.917 1
  21209920.831   -18389543.440 7 -13840098.460 1
  22385532.769   -10598394.101 6  -7768194.124 1
 90 10 17 12 23 59.9990000  0  5 02 06 15 13 09
  20846330.097     -218685.989 7    499639.380 3
  20230155.636   -10836680.559 7  -8380575.991 2
  23160967.581    -8358161.980 6  -6415675.606 1
  21200663.948   -18438183.238 7 -13877999.592 1
  22375838.456   -10649342.256 6  -7807893.966 1
 90 10 17 12 24 14.9990000  0  5 02 06 15 13 09
  20847790.573     -211012.340 7    505618.848 3
  20225891.300   -10859090.230 7  -8398038.073 2
  23159873.198    -8363896.523 6  -6420144.085 1
  21191428.698   -18486711.776 7 -13915814.034 1
  22366147.284   -10700267.412 6  -7847575.896 1
 90 10 17 12 24 29.9990000  0  5 02 06 15 13 09
  20849258.089     -203293.859 7    511633.250 3
  20221645.198   -10881405.747 7  -8415426.791 3
  23158810.339    -8369490.594 6  -6424503.079 1
  21182218.612   -18535123.854 7 -13953537.725 1
  22356463.003   -10751164.070 6  -7887235.619 1
 90 10 17 12 24 44.9990000  0  5 02 06 15 13 09
  20850735.417     -195533.037 7    517680.638 3
  20217415.128   -10903629.160 7  -8432743.740 3
  23157771.401    -8374946.526 6  -6428754.448 1
  21173026.394   -18583421.588 7 -13991172.310 1
  22346783.472   -10802034.245 6  -7926874.694 1
 90 10 17 12 24 59.9990000  0  5 02 06 15 13 09
  20852219.761     -187731.686 7    523759.625 3
  20213202.933   -10925761.852 7  -8449989.997 3
  23156758.683    -8380266.157 6  -6432899.601 1
  21163858.097   -18631606.349 7 -14028718.874 1
  22337103.065   -10852879.515 6  -7966494.383 1
 90 10 17 12 25 14.9990000  0  5 02 06 15 13 09
  20853713.581     -179884.908 7    529873.994 3
  20209010.245   -10947798.628 7  -8467161.504 2
  23155773.526    -8385444.205 6  -6436934.421 1
  21154710.995   -18679673.049 7 -14066173.436 1
  22327433.487   -10903694.696 6  -8006090.609 1
 90 10 17 12 25 29.9990000  0  5 02 06 15 13 09
  20855215.714     -171990.968 7    536025.116 3
  20204835.308   -10969737.596 7  -8484256.798 3
  23154814.659    -8390478.938 6  -6440857.601 1
  21145586.714   -18727619.607 7 -14103534.383 1
  22317770.808   -10954477.652 6  -8045661.733 1
 90 10 17 12 25 44.9990000  0  5 02 06 15 13 09
  20856724.909     -164057.772 7    542206.829 3
  20200676.433   -10991586.124 7  -8501281.626 2
  23153885.792    -8395378.160 6  -6444675.188 1
  21136483.315   -18775453.451 7 -14140807.501 1
  22308113.300   -11005236.029 6  -8085213.712 1
 90 10 17 12 25 59.9990000  0  5 02 06 15 13 09
  20858243.565     -156079.296 7    548423.819 3
  20196538.651   -11013337.909 7  -8518231.081 2
  23152978.464    -8400135.856 6  -6448382.473 1
  21127402.714   -18823168.513 7 -14177988.057 1
  22298459.050   -11055963.524 6  -8124741.621 1
 90 10 17 12 26 14.9990000  0  5 02 06 15 13 09
  20859768.519     -148056.936 7    554675.006 3
  20192417.854   -11034994.399 7  -8535106.259 2
  23152101.440    -8404753.247 6  -6451980.445 1
  21118345.229   -18870766.239 7 -14215077.187 1
  22288811.386   -11106661.404 6  -8164246.448 1
 90 10 17 12 26 29.9990000  0  5 02 06 15 13 09
  20861303.222     -139995.882 7    560956.346 3
  20188313.526   -11056560.403 7  -8551910.927 3
  23151248.675    -8409235.695 6  -6455473.274 1
  21109308.690   -18918251.311 7 -14252078.535 1
  22279169.183   -11157334.669 6  -8203732.110 1
 90 10 17 12 26 44.9990000  0  5 02 06 15 13 09
  20862846.081     -131889.686 7    567272.858 3
  20184227.354   -11078029.275 7  -8568639.922 2
  23150421.089    -8413576.596 6  -6458855.801 1
  21100297.183   -18965617.088 7 -14288986.921 1
  22269530.089   -11207976.387 6  -8243193.190 1
 90 10 17 12 26 59.9990000  0  5 02 06 15 13 09
  20864397.300     -123739.824 7    573623.399 3
  20180160.956   -11099401.818 7  -8585293.861 2
  23149624.612    -8417777.064 6  -6462128.905 1
  21091305.300   -19012864.583 7 -14325803.148 1
  22259899.362   -11258587.690 6  -8282630.572 1
 90 10 17 12 27 14.9990000  0  5 02 06 15 13 09
  20865954.503     -115549.825 7    580005.208 3
  20176111.144   -11120681.532 7  -8601875.454 2
  23148847.831    -8421840.692 6  -6465295.382 1
  21082336.261   -19059997.182 7 -14362529.841 1
  22250275.190   -11309171.964 6  -8322046.875 1
 90 10 17 12 27 29.9990000  0  5 02 06 15 13 09
  20867522.651     -107322.413 7    586416.174 3
  20172077.683   -11141871.008 7  -8618386.723 2
  23148101.995    -8425770.283 6  -6468357.417 1
  21073387.386   -19107017.485 7 -14399169.029 1
  22240654.776   -11359731.485 6  -8361443.888 1
 90 10 17 12 27 44.9990000  0  5 02 06 15 13 09
  20869095.862      -99051.696 7    592860.880 3
  20168065.050   -11162963.566 7  -8634822.486 2
  23147379.956    -8429559.658 6  -6471310.179 1
  21064464.003   -19153919.033 7 -14435715.672 1
  22231037.847   -11410260.138 6  -8400816.847 1
 90 10 17 12 27 59.9990000  0  5 02 06 15 13 09
  20870677.456      -90737.629 7    599339.366 3
  20164070.972   -11183959.219 7  -8651182.739 2
  23146687.519    -8433208.963 6  -6474153.795 1
  21055561.011   -19200701.726 7 -14472169.705 1
  22221431.636   -11460757.555 6  -8440165.467 1
 90 10 17 12 28 14.9990000  0  5 02 06 15 13 09
  20872268.745      -82380.438 7    605851.467 3
  20160092.753   -11204857.874 7  -8667467.400 2
  23146016.112    -8436718.300 6  -6476888.346 1
  21046684.081   -19247365.365 7 -14508530.976 1
  22211826.534   -11511223.787 6  -8479489.790 1
 90 10 17 12 28 29.9990000  0  5 02 06 15 13 09
  20873865.886      -73981.826 7    612395.838 3
  20156133.354   -11225660.832 7  -8683677.494 3
  23145377.495    -8440089.160 6  -6479515.021 1
  21037823.940   -19293911.437 7 -14544800.633 1
  22202230.925   -11561660.119 6  -8518790.783 1
 90 10 17 12 28 44.9990000  0  5 02 06 15 13 09
  20875472.089      -65541.274 7    618972.893 3
  20152193.433   -11246367.453 7  -8699812.525 2
  23144761.675    -8443321.088 6  -6482033.388 1
  21028989.784   -19340339.284 7 -14580978.182 2
  22192635.019   -11612065.842 6  -8558067.958 1
 90 10 17 12 28 59.9990000  0  5 02 06 15 13 09
  20877085.597      -57058.684 7    625582.690 3
  20148271.753   -11266977.419 7  -8715872.233 2
  23144173.417    -8446413.956 6  -6484443.416 1
  21020176.792   -19386648.807 7 -14617063.519 1
  22183051.862   -11662440.628 6  -8597321.021 1
 90 10 17 12 29 14.9990000  0  5 02 06 15 13 09
  20878708.386      -48534.375 7    632225.003 3
  20144368.886   -11287490.480 7  -8731856.427 2
  23143610.073    -8449367.840 6  -6486745.133 1
  21011387.769   -19432839.906 7 -14653056.581 1
  22173469.909   -11712784.495 6  -8636549.978 1
 90 10 17 12 29 29.9980000  0  5 02 06 15 13 09
  20880339.154      -39968.331 7    638899.823 3
  20140484.561   -11307904.637 7  -8747763.570 2
  23143075.732    -8452182.170 6  -6488938.118 1
  21002621.943   -19478908.457 7 -14688954.147 1
  22163895.115   -11763093.188 6  -8675751.546 1
 90 10 17 12 29 44.9980000  0  5 02 06 15 13 09
  20881976.561      -31361.967 7    645606.068 3
  20136617.381   -11328224.904 7  -8763597.558 2
  23142568.521    -8454859.830 6  -6491024.629 1
  20993875.475   -19524863.033 7 -14724762.903 1
  22154327.678   -11813375.443 6  -8714932.498 1
 90 10 17 12 29 59.9980000  0  5 02 06 15 13 09
  20883622.396      -22714.504 7    652344.353 3
  20132768.686   -11348448.244 7  -8779355.999 2
  23142083.365    -8457399.215 6  -6493003.359 1
  20985154.529   -19570699.045 7 -14760479.273 1
  22144765.889   -11863626.659 6  -8754089.286 1
 90 10 17 12 30 14.9980000  0  5 02 06 15 13 09
  20885275.584      -14019.312 7    659119.821 3
  20128939.975   -11368567.596 7  -8795033.413 2
  23141627.256    -8459793.428 6  -6494868.941 1
  20976453.568   -19616409.642 7 -14796097.911 1
  22135211.178   -11913839.696 6  -8793216.321 1
 90 10 17 12 30 29.9980000  0  5 02 06 15 13 09
  20886939.295       -5282.326 7    665927.857 3
  20125130.068   -11388588.892 7  -8810634.422 2
  23141199.131    -8462049.052 6  -6496626.579 1
  20967779.514   -19662000.700 7 -14831623.406 1
  22125663.389   -11964020.444 6  -8832318.184 1
 90 10 17 12 30 44.9980000  0  5 02 06 15 13 09
  20888609.561        3499.394 7    672770.755 3
  20121339.404   -11408508.738 7  -8826156.380 2
  23140794.936    -8464162.364 6  -6498273.332 1
  20959126.264   -19707468.811 7 -14867053.096 1
  22116118.600   -12014165.455 6  -8871392.204 1
 90 10 17 12 30 59.9980000  0  5 02 06 15 13 09
  20890288.373       12319.095 7    679643.252 3
  20117567.912   -11428333.536 7  -8841604.282 2
  23140420.990    -8466140.008 6  -6499814.360 1
  20950497.170   -19752820.215 7 -14902391.855 1
  22106582.350   -12064280.944 6  -8910443.218 1
 90 10 17 12 31 14.9980000  0  5 02 06 15 13 09
  20891974.107       21178.963 7    686547.036 3
  20113812.584   -11448060.737 7  -8856976.130 2
  23140069.428    -8467979.740 6  -6501247.884 1
  20941890.678   -19798052.633 7 -14937637.882 2
  22097053.264   -12114364.538 6  -8949469.379 1
 90 10 17 12 31 29.9980000  0  5 02 06 15 13 09
  20893668.561       30085.235 7    693486.989 3
  20110078.850   -11467683.956 7  -8872266.939 2
  23139745.287    -8469675.407 6  -6502569.192 1
  20933307.006   -19843159.840 7 -14972786.351 2
  22087528.623   -12164409.995 6  -8988465.841 1
 90 10 17 12 31 44.9980000  0  5 02 06 15 13 09
  20895371.264       39029.500 7    700456.541 3
  20106362.678   -11487211.363 7  -8887483.097 2
  23139450.279    -8471235.360 6  -6503784.744 1
  20924744.318   -19888150.085 7 -15007843.668 1
  22078011.107   -12214425.268 6  -9027438.785 1
 90 10 17 12 31 59.9980000  0  5 02 06 15 13 09
  20897081.068       48016.478 7    707459.382 3
  20102666.350   -11506637.997 7  -8902620.744 2
  23139177.451    -8472655.180 6  -6504891.076 1
  20916205.232   -19933018.263 7 -15042805.883 2
  22068502.311   -12264405.233 6  -9066384.210 1
 90 10 17 12 32 14.9980000  0  5 02 06 15 13 09
  20898797.592       57042.256 7    714492.441 3
  20098986.975   -11525967.420 7  -8917682.629 2
  23138934.459    -8473938.406 6  -6505890.997 1
  20907692.256   -19977767.891 7 -15077675.712 2
  22058995.396   -12314353.554 6  -9105304.986 1
 90 10 17 12 32 29.9980000  0  5 02 06 15 13 09
  20900524.717       66105.075 7    721554.382 3
  20095328.545   -11545201.191 7  -8932669.966 2
  23138716.756    -8475087.076 6  -6506786.058 1
  20899197.303   -20022400.469 7 -15112454.333 1
  22049497.318   -12364272.009 6  -9144202.465 1
 90 10 17 12 32 44.9980000  0  5 02 06 15 13 09
  20902256.467       75214.029 7    728652.269 3
  20091687.600   -11564330.093 7  -8947575.608 2
  23138522.021    -8476092.158 6  -6507569.257 1
  20890728.967   -20066907.035 7 -15147134.766 2
  22040005.178   -12414151.086 6  -9183069.259 1
 90 10 17 12 32 59.9980000  0  5 02 06 15 13 09
  20903997.131       84362.191 7    735780.722 3
  20088065.764   -11583360.540 7  -8962404.518 2
  23138360.725    -8476960.215 6  -6508245.654 1
  20882280.701   -20111294.037 7 -15181722.033 2
  22030520.561   -12463997.339 6  -9221910.473 1
 90 10 17 12 33 14.9980000  0  5 02 06 15 13 09
  20905746.061       93553.838 7    742943.058 3
  20084464.709   -11602288.024 7  -8977153.206 2
  23138220.889    -8477686.967 6  -6508811.940 1
  20873859.764   -20155556.971 7 -15216212.621 2
  22021042.756   -12513806.109 6  -9260722.491 1
 90 10 17 12 33 29.9980000  0  5 02 06 15 13 09
  20907503.693      102787.424 7    750138.062 3
  20080882.889   -11621113.815 7  -8991822.650 2
  23138106.826    -8478274.108 6  -6509269.451 1
  20865458.951   -20199697.195 7 -15250607.593 1
  22011570.482   -12563578.690 6  -9299506.311 1
 90 10 17 12 33 44.9980000  0  5 02 06 15 13 09
  20909267.686      112059.198 7    757362.823 3
  20077317.600   -11639841.206 7  -9006415.415 2
  23138023.592    -8478724.915 6  -6509620.736 1
  20857082.873   -20243718.049 7 -15284909.553 2
  22002105.615   -12613318.454 6  -9338264.555 1
 90 10 17 12 33 59.9980000  0  5 02 06 15 13 09
  20911041.404      121373.480 7    764620.701 3
  20073774.037   -11658465.662 7  -9020927.969 2
  23137966.451    -8479035.270 6  -6509862.541 1
  20848728.225   -20287615.053 7 -15319115.000 1
  21992646.842   -12663020.721 6  -9376993.600 1
 90 10 17 12 34 14.9980000  0  5 02 06 15 13 09
  20912821.686      130730.093 7    771911.562 3
  20070250.123   -11676987.309 7  -9035360.433 2
  23137934.920    -8479205.393 6
  20840398.576   -20331388.384 7 -15353224.084 2
  21983194.365   -12712685.484 6  -9415693.414 1
 90 10 17 12 34 29.9980000  0  5 02 06 15 13 09
  20914610.193      140130.391 7    779236.470 3
  20066744.771   -11695404.472 7  -9049711.469 2
  23137925.264    -8479233.967 6
  20832093.014   -20375036.577 7 -15387235.657 2
  21973750.717   -12762311.358 6  -9454362.931 1
 90 10 17 12 34 44.9980000  0  5 02 06 15 13 09
  20916407.443      149571.216 7    786592.972 3
  20063259.451   -11713720.226 7  -9063983.485 2
  23137947.412    -8479124.342 6
  20823810.873   -20418562.803 7 -15421152.190 1
  21964312.615   -12811901.144 6  -9493004.321 1
 90 10 17 12 34 59.9980000  0  5 02 06 15 13 09
  20918211.350      159056.127 7    793983.810 3
  20059794.420   -11731930.670 7  -9078173.456 2
  23137995.686    -8478873.106 6
  20815550.842   -20461962.942 7 -15454970.470 2
  21954886.842   -12861450.904 6  -9531614.519 1
 90 10 17 12 35 14.9980000  0  5 02 06 15 13 09
  20920023.772      168582.228 7    801406.742 3
  20056347.678   -11750038.219 7  -9092283.237 2
  23138070.404    -8478482.424 6
  20807316.029   -20505239.526 7 -15488692.479 2
  21945462.397   -12910962.898 6  -9570195.296 1
 90 10 17 12 35 29.9980000  0  5 02 06 15 13 09
  20921845.092      178146.266 7    808859.241 3
  20052923.006   -11768046.145 7  -9106315.388 2
  23138169.459    -8477955.952 6        -0.02411
  20799103.553   -20548395.886 7 -15522320.797 2
  21936046.748   -12960440.705 6  -9608749.427 1
 90 10 17 12 35 44.9980000  0  5 02 06 15 13 09
  20923673.045      187758.372 7    816349.177 3
  20049515.896   -11785943.678 7  -9120261.509 2
  23138296.795    -8477283.584 6       523.879 1
  20790915.576   -20591421.632 7 -15555847.351 2
  21926643.092   -13009873.385 6  -9647268.407 1
 90 10 17 12 35 59.9980000  0  5 02 06 15 13 09
  20925509.686      197412.862 7    823872.156 3
  20046131.139   -11803736.112 7  -9134125.746 2
  23138454.084    -8476470.864 6      1157.161 1
  20782752.272   -20634321.935 7 -15589276.151 1
  21917243.107   -13059266.192 6  -9685756.305 1
 90 10 17 12 36 14.9980000  0  5 02 06 15 13 09
  20927353.912      207101.886 7    831422.041 3
  20042763.467   -11821431.418 7  -9147914.303 2
  23138631.123    -8475525.432 6      1893.856 1
  20774610.834   -20677104.603 7 -15622613.295 2
  21907851.889   -13108627.001 6  -9724219.277 1
 90 10 17 12 36 29.9980000  0  5 02 06 15 13 09
  20929204.693      216833.453 7    839005.079 3
  20039416.670   -11839021.266 7  -9161620.676 2
  23138837.975    -8474439.663 6      2739.919 1
  20766494.311   -20719761.348 7 -15655852.308 2
  21898462.756   -13157947.397 6  -9762650.728 1
 90 10 17 12 36 44.9980000  0  5 02 06 15 13 09
  20931067.209      226610.175 7    846623.301 3
  20036089.303   -11856502.851 7  -9175242.711 2
  23139072.217    -8473210.734 6      3697.544 1
  20758402.693   -20762289.375 7 -15688991.023 2
  21889087.670   -13207224.503 6  -9801048.462 1
 90 10 17 12 36 59.9980000  0  5 02 06 15 13 09
  20932935.475      236427.996 7    854273.545 3
  20032781.365   -11873879.752 7  -9188783.151 2
  23139335.553    -8471842.868 6      4763.404 1
  20750332.897   -20804692.372 7 -15722032.312 2
  21879718.803   -13256462.339 6  -9839415.592 1
 90 10 17 12 37 14.9980000  0  5 02 06 15 13 09
  20934811.272      246291.668 7    861959.531 3
  20029497.639   -11891147.027 7  -9202238.175 2
  23139622.897    -8470330.764 6      5941.685 1
  20742287.107   -20846965.521 7 -15754972.430 2
  21870358.545   -13305655.366 6  -9877747.816 1
 90 10 17 12 37 29.9980000  0  5 02 06 15 13 09
  20936696.584      256193.271 7    869675.070 3
  20026230.764   -11908312.257 7  -9215613.677 2
  23139933.584    -8468682.827 5      7225.802 1
  20734268.006   -20889116.666 7 -15787817.469 1
  21861003.014   -13354811.414 6  -9916051.229 1
 90 10 17 12 37 44.9980000  0  5 02 06 15 13 09
  20938588.709      266135.712 7    877422.425 3
  20022983.943   -11925372.269 7  -9228907.181 2
  23140273.506    -8466896.080 6      8618.063 1
  20726269.896   -20931142.663 7 -15820564.995 2
  21851658.029   -13403927.189 6  -9954323.257 1
 90 10 17 12 37 59.9980000  0  5 02 06 15 13 09
  20940488.279      276117.224 7    885200.224 3
  20019756.178   -11942328.690 7  -9242119.963 2
  23140639.881    -8464972.435 6     10117.001 1
  20718296.365   -20973045.264 7 -15853216.366 2
  21842318.107   -13453004.270 6  -9992565.133 1
 90 10 17 12 38 14.9980000  0  5 02 06 15 13 09
  20942395.381      286139.392 7    893009.699 3
  20016550.037   -11959179.880 7  -9255250.752 2
  23141032.982    -8462910.577 6     11723.648 1
  20710344.451   -21014823.015 7 -15885770.450 2
  21832986.279   -13502041.039 6 -10030775.621 1
 90 10 17 12 38 29.9980000  0  5 02 06 15 13 09
  20944310.725      296208.207 7    900855.520 3
  20013364.014   -11975919.368 7  -9268294.488 2
  23141453.920    -8460703.902 6     13443.130 1
  20702420.178   -21056469.042 7 -15918221.896 2
  21823663.475   -13551030.820 6 -10068949.478 1
 90 10 17 12 38 44.9980000  0  5 02 06 15 13 09
  20946234.998      306318.584 7    908733.719 3
  20010200.545   -11992551.878 7  -9281254.862 2
  23141899.514    -8458357.730 6     15271.292 1
  20694517.842   -21097988.349 7 -15950574.597 2
  21814352.732   -13599978.337 6 -10107090.394 1
 90 10 17 12 38 59.9980000  0  5 02 06 15 13 09
  20948165.764      316469.562 7    916643.570 3
  20007054.756   -12009078.232 7  -9294132.538 2
  23142370.154    -8455873.081 6     17207.386 1
  20686641.654   -21139381.697 7 -15982829.151 2
  21805043.693   -13648884.393 6 -10145198.993 1
 90 10 17 12 39 14.9980000  0  5 02 06 15 13 09
  20950104.201      326657.497 7    924582.222 3
  20003929.912   -12025501.855 7  -9306930.159 2
  23142870.584    -8453253.737 6     19248.436 1
  20678788.857   -21180652.668 7 -16014988.338 2
  21795745.670   -13697752.440 6 -10183277.967 1
 90 10 17 12 39 29.9980000  0  5 02 06 15 13 09
  20952051.709      336883.105 7    932550.225 3
  20000824.232   -12041821.727 7  -9319646.938 2
  23143396.693    -8450499.092 6     21394.910 1
  20670958.131   -21221800.597 7 -16047051.656 2
  21786452.795   -13746581.503 6 -10221326.589 1
 90 10 17 12 39 44.9980000  0  5 02 06 15 13 09
  20954005.373      347151.209 7    940551.329 3
  19997739.818   -12058032.820 7  -9332278.943 2
  23143946.959    -8447603.891 6     23650.907 1
  20663153.584   -21262819.984 7 -16079014.808 2
  21777168.592   -13795366.117 6 -10259340.568 1
 90 10 17 12 39 59.9980000  0  5 02 06 15 13 09
  20955965.475      357463.306 7    948586.726 3
  19994674.842   -12074133.274 7  -9344824.745 2
  23144525.123    -8444566.824 6     26017.452 1
  20655372.146   -21303709.413 7 -16110876.688 1
  21767893.428   -13844104.745 6 -10297318.707 1
 90 10 17 12 40 14.9980000  0  5 02 06 15 13 09
  20957937.467      367817.903 7    956655.237 3
  19991632.287   -12090124.439 7  -9357285.380 2
  23145131.404    -8441389.585 6     28493.225 1
  20647614.264   -21344470.344 7 -16142638.447 2
  21758628.240   -13892798.495 6 -10335261.877 1
 90 10 17 12 40 29.9980000  0  5 02 06 15 13 09
  20959914.225      378213.731 7    964755.887 3
  19988610.279   -12106007.453 7  -9369661.741 2
  23145761.748    -8438073.397 6     31077.287 1
  20639883.115   -21385103.760 7 -16174300.843 1
  21749370.584   -13941448.453 6 -10373170.915 1
 90 10 17 12 40 44.9980000  0  5 02 06 15 13 09
  20961901.154      388650.704 7    972888.603 2
  19985606.951   -12121781.930 7  -9381953.531 2
  23146419.162    -8434618.522 6     33769.376 1
  20632176.357   -21425609.355 7 -16205863.635 2
  21740118.873   -13990054.061 6 -10411045.394 1
 90 10 17 12 40 59.9980000  0  5 02 06 15 13 09
  20963896.147      399131.554 7    981055.501 2
  19982628.217   -12137444.881 7  -9394158.417 2
  23147101.232    -8431021.832 5     36571.985 1
  20624491.693   -21465984.378 7 -16237324.687 2
  21730879.725   -14038612.574 6 -10448883.162 1
 90 10 17 12 41 14.9980000  0  5 02 06 15 13 09
  20965897.670      409654.426 7    989255.147 3
  19979667.990   -12152998.314 7  -9406277.963 2
  23147813.873    -8427285.703 6     39483.265 1
  20616834.232   -21506230.693 7 -16268685.447 2
  21721649.170   -14087125.669 6 -10486685.550 1
 90 10 17 12 41 29.9980000  0  5 02 06 15 13 09
  20967909.521      420223.938 7    997491.141 3
  19976729.725   -12168437.063 7  -9418308.161 2
  23148552.225    -8423405.368 6     42506.902 1
  20609199.709   -21546343.358 7 -16299942.058 2
  21712426.522   -14135588.384 6 -10524448.695 1
 90 10 17 12 41 44.9980000  0  5 02 06 15 13 09
  20969928.568      430833.649 7   1005758.447 3
  19973812.318   -12183767.339 7  -9430253.832 2
  23149316.061    -8419387.271 6     45637.877 1
  20601590.295   -21586328.685 7 -16331099.452 2
  21703215.068   -14184006.704 6 -10562177.257 1
 90 10 17 12 41 59.9980000  0  5 02 06 15 13 09
  20971955.498      441479.719 7   1014054.090 3
  19970914.982   -12198992.802 7  -9442117.825 2
  23150105.748    -8415235.201 6     48873.240 1
  20594006.561   -21626190.383 7 -16362160.509 2
  21694004.787   -14232384.094 6 -10599873.917 1
 90 10 17 12 42 14.9980000  0  5 02 06 15 13 09
  20973989.584      452166.701 7   1022381.607 3
  19968038.850   -12214108.553 7  -9453896.334 2
  23150923.006    -8410944.961 5     52216.286 1
  20586446.162   -21665923.750 7 -16393121.566 2
  21684809.256   -14280716.051 6 -10637535.164 1
 90 10 17 12 42 29.9980000  0  5 02 06 15 13 09
  20976030.826      462897.868 7   1030743.556 2
  19965184.201   -12229111.105 7  -9465586.631 2
  23151767.123    -8406512.977 6     55669.792 1
  20578909.889   -21705525.198 7 -16423979.827 2
  21675622.240   -14328998.615 6 -10675157.919 1
 90 10 17 12 42 44.9980000  0  5 02 06 15 13 09
  20978079.795      473665.427 7   1039133.865 2
  19962348.826   -12244008.097 7  -9477194.669 2
  23152635.990    -8401947.148 5     59227.562 1
  20571397.678   -21745002.136 7 -16454741.078 2
  21666440.732   -14377239.186 6 -10712747.959 1
 90 10 17 12 42 59.9980000  0  5 02 06 15 13 09
  20980135.506      484474.940 7   1047556.876 2
  19959535.107   -12258793.618 7  -9488715.851 2
  23153529.396    -8397242.196 6     62893.757 1
  20563909.139   -21784349.106 7 -16485401.045 2
  21657270.693   -14425432.276 6 -10750301.000 1
 90 10 17 12 43 14.9980000  0  5 02 06 15 13 09
  20982200.326      495327.762 7   1056013.622 2
  19956744.084   -12273466.112 7  -9500148.962 2
  23154452.545    -8392396.614 6     66669.550 1
  20556446.311   -21823564.582 7 -16515958.554 2
  21648109.568   -14473576.113 6 -10787815.673 1
 90 10 17 12 43 29.9980000  0  5 02 06 15 13 09
  20984275.732      506223.621 7   1064503.896 3
  19953971.951   -12288025.552 7  -9511493.977 2
  23155400.178    -8387410.556 6     70554.766 1
  20549008.904   -21862648.804 7 -16546413.787 2
  21638956.584   -14521670.618 6 -10825291.905 1
 90 10 17 12 43 44.9980000  0  5 02 06 15 13 09
  20986357.725      517160.796 7   1073026.366 2
  19951224.037   -12302473.354 7  -9522751.997 2
  23156375.545    -8382286.042 5     74547.880 1
  20541596.467   -21901603.205 7 -16576767.859 2
  21629815.053   -14569716.902 6 -10862730.571 1
 90 10 17 12 43 59.9980000  0  5 02 06 15 13 09
  20988444.279      528135.764 7   1081578.282 2
  19948495.514   -12316812.844 7  -9533925.625 2
  23157376.209    -8377026.568 6     78646.151 1
  20534208.107   -21940430.964 7 -16607023.245 2
  21620680.545   -14617718.619 6 -10900134.498 1
 90 10 17 12 44 14.9980000  0  5 02 06 15 13 09
  20990541.592      539154.311 7   1090164.157 2
  19945788.037   -12331038.068 7  -9545010.215 2
  23158404.936    -8371626.445 5     82854.038 1
  20526845.998   -21979126.331 7 -16637175.476 2
  21611556.295   -14665669.303 6 -10937498.644 1
 90 10 17 12 44 29.9980000  0  5 02 06 15 13 09
  20992645.545      550214.164 7   1098782.221 2
  19943101.787   -12345151.255 7  -9556007.505 2
  23159458.865    -8366088.081 5     87169.616 1
  20519506.420   -22017691.584 7 -16667226.311 2
  21602439.732   -14713571.185 6 -10974824.772 1
 90 10 17 12 44 44.9980000  0  5 02 06 15 13 09
  20994759.178      561316.433 7   1107433.335 2
  19940438.521   -12359150.666 7  -9566916.138 2
  23160540.100    -8360410.223 6     91593.901 1
  20512191.568   -22056125.568 7 -16697174.867 2
  21593334.654   -14761422.753 6 -11012111.676 1
 90 10 17 12 44 59.9980000  0  5 02 06 15 13 09
  20996880.803      572462.039 7   1116118.217 3
  19937796.404   -12373035.547 7  -9577735.524 2
  23161648.107    -8354592.043 6     96127.541 1
  20504904.529   -22094426.992 7 -16727020.121 2
  21584237.967   -14809222.925 6 -11049358.548 1
 90 10 17 12 45 14.9980000  0  5 02 06 15 13 09
  20999008.662      583648.802 7   1124835.159 2
  19935173.850   -12386807.663 7  -9588467.050 2
  23162779.365    -8348635.994 6    100768.612 1
  20497639.725   -22132597.856 7 -16756763.647 2
  21575150.209   -14856973.346 6 -11086566.657 1
 90 10 17 12 45 29.9980000  0  5 02 06 15 13 09
  21001147.107      594881.273 7   1133587.730 2
  19932577.076   -12400462.145 7  -9599106.916 2
  23163939.326    -8342537.333 5    105520.806 1
  20490401.795   -22170633.374 7 -16786401.708 2
  21566075.209   -14904669.339 6 -11123732.343 1
 90 10 17 12 45 44.9980000  0  5 02 06 15 13 09
  21003290.342      606149.950 7   1142368.511 2
  19929999.225   -12414008.306 7  -9609662.384 2
  23165127.037    -8336305.579 6    110376.703 1
  20483187.482   -22208542.827 7 -16815941.532 2
  21557008.389   -14952319.868 6 -11160862.605 1
 90 10 17 12 45 59.9980000  0  5 02 06 15 13 09
  21005444.592      617463.638 7   1151184.366 2
  19927443.131   -12427437.137 7  -9620126.410 2
  23166337.326    -8329932.095 6    115343.056 1
  20476000.326   -22246317.266 7 -16845376.152 2
  21547949.912   -14999915.853 6 -11197950.364 1
 90 10 17 12 46 14.9980000  0  5 02 06 15 13 09
  21007602.803      628815.417 7   1160029.893 2
  19924910.420   -12440755.113 7  -9630504.056 2
  23167576.990    -8323423.789 5    120414.449 1
  20468834.592   -22283963.602 7 -16874710.949 2
  21538902.912   -15047464.044 6 -11235000.895 1
 90 10 17 12 46 29.9980000  0  5 02 06 15 13 09
  21009771.201      640201.984 7   1168902.529 2
  19922395.654   -12453965.536 7  -9640797.902 2
  23168837.732    -8316784.246 5    125588.102 1
  20461696.451   -22321484.950 7 -16903948.358 2
  21529862.482   -15094967.144 6 -11272016.284 1
 90 10 17 12 46 44.9980000  0  5 02 06 15 13 09
  21011946.334      651630.096 7   1177807.536 2
  19919903.115   -12467061.301 7  -9651002.387 2
  23170129.857    -8310006.673 5    130869.312 1
  20454580.771   -22358874.601 7 -16933083.141 2
  21520832.662   -15142418.280 6 -11308991.183 1
 90 10 17 12 46 59.9980000  0  5 02 06 15 13 09
  21014127.623      663100.497 7   1186745.508 2
  19917433.459   -12480041.799 7  -9661117.058 2
  23171448.357    -8303090.527 6    136258.502 1
  20447491.779   -22396131.819 7 -16962114.732 2
  21511812.154   -15189816.802 6 -11345925.085 1
 90 10 17 12 47 14.9980000  0  5 02 06 15 13 09
  21016318.256      674613.977 7   1195717.048 2
  19914986.154   -12492905.901 7  -9671141.025 2
  23172789.686    -8296035.404 6    141755.971 1
  20440426.967   -22433255.555 7 -16991042.308 2
  21502805.139   -15237161.243 6 -11382816.844 1
 90 10 17 12 47 29.9980000  0  5 02 06 15 13 09
  21018516.303      686165.668 7   1204718.360 2
  19912558.748   -12505657.953 7  -9681077.679 2
  23174155.764    -8288845.601 6    147358.402 1
  20433386.771   -22470250.339 7 -17019869.407 2
  21493803.857   -15284456.161 6 -11419670.013 1
 90 10 17 12 47 44.9980000  0  5 02 06 15 13 09
  21020723.709      697760.083 7   1213752.960 2
  19910154.014   -12518293.572 7  -9690923.614 2
  23175550.561    -8281516.958 5    153069.019 1
  20426373.311   -22507111.739 7 -17048592.566 2
  21484813.904   -15331696.865 6 -11456480.932 1
 90 10 17 12 47 59.9980000  0  5 02 06 15 13 09
  21022937.428      709395.493 7   1222819.509 2
  19907771.107   -12530814.196 7  -9700679.957 2
  23176972.045    -8274051.345 5    158886.366 1
  20419382.779   -22543841.161 7 -17077212.887 2
  21475834.584   -15378884.542 6 -11493250.534 1
 90 10 17 12 48 14.9980000  0  5 02 06 15 13 09
  21025158.412      721069.862 7   1231916.416 2
  19905410.896   -12543221.306 7  -9710347.832 2
  23178419.209    -8266450.451 6    164809.135 1
  20412417.248   -22580440.206 7 -17105731.618 2
  21466864.975   -15426020.855 6 -11529980.123 1
 90 10 17 12 48 29.9980000  0  5 02 06 15 13 09
  21027389.436      732785.552 7   1241045.522 2
  19903071.436   -12555512.337 7  -9719925.268 2
  23179892.764    -8258712.482 5    170838.732 1
  20405479.193   -22616906.700 7 -17134147.062 2
  21457905.936   -15473103.248 6 -11566667.695 1
 90 10 17 12 48 44.9980000  0  5 02 06 15 13 09
  21029625.959      744543.784 7   1250207.770 2
  19900755.248   -12567686.232 7  -9729411.421 2
  23181390.006    -8250836.249 5    176976.029 1
  20398564.514   -22653239.566 7 -17162458.377 2
  21448955.912   -15520130.353 6 -11603312.174 1
 90 10 17 12 48 59.9980000  0  5 02 06 15 13 09
  21031872.998      756344.307 7   1259402.969 2
  19898461.068   -12579743.004 7  -9738806.318 2
  23182917.482    -8242822.044 5    183220.861 1
  20391676.693   -22689438.914 7 -17190665.658 2
  21440018.850   -15567102.045 6 -11639913.472 1
 90 10 17 12 49 14.9980000  0  5 02 06 15 13 09
  21034126.600      768191.960 7   1268634.898 2
  19896189.678   -12591677.321 7  -9748105.793 2
  23184467.154    -8234664.990 5    189577.019 1
  20384814.271   -22725499.502 7 -17218764.794 2
  21431091.506   -15614013.099 6 -11676467.528 1
 90 10 17 12 49 29.9980000  0  5 02 06 15 13 09
  21036387.654      780081.677 7   1277899.612 2
  19893940.975   -12603494.180 7  -9757313.741 2
  23186046.131    -8226370.293 5    196040.421 1
  20377977.568   -22761426.301 7 -17246759.705 2
  21422175.396   -15660868.299 6 -11712978.064 1
 90 10 17 12 49 44.9980000  0  5 02 06 15 13 09
  21038658.834      792011.035 7   1287195.216 2
  19891713.951   -12615195.984 7  -9766432.035 2
  23187653.076    -8217940.609 6    202609.001 1
  20371166.201   -22797221.821 7 -17274652.310 2
  21413267.850   -15707669.982 6 -11749446.896 1
 90 10 17 12 49 59.9980000  0  5 02 06 15 13 09
  21040936.842      803977.963 7   1296520.088 2
  19889510.061   -12626784.245 7  -9775461.846 2
  23189278.256    -8209377.818 5    209281.291 1
  20364379.436   -22832887.593 7 -17302443.811 2
  21404373.154   -15754419.393 6 -11785874.994 1
 90 10 17 12 50 14.9980000  0  5 02 06 15 13 09
  21043220.826      815987.900 7   1305878.472 2
  19887327.123   -12638253.376 7  -9784398.841 2
  23190931.342    -8200676.966 5    216061.159 1
  20357618.053   -22868418.392 7 -17330130.139 2
  21395486.514   -15801111.043 6 -11822258.088 1
 90 10 17 12 50 29.9980000  0  5 02 06 15 13 09
  21045514.842      828039.534 7   1315269.356 2
  19885167.201   -12649604.455 7  -9793243.837 2
  23192615.631    -8191839.232 6    222947.689 1
  20350881.811   -22903815.520 7 -17357712.299 2
  21386613.607   -15847745.911 6 -11858596.937 1
 90 10 17 12 50 44.9980000  0  5 02 06 15 13 09
  21047816.146      840130.336 7   1324690.761 2
  19883028.959   -12660840.002 7  -9801998.817 2
  23194323.529    -8182867.107 6    229938.921 1
  20344171.420   -22939081.043 7 -17385191.928 2
  21377748.873   -15894326.446 6 -11894893.458 1
 90 10 17 12 50 59.9980000  0  5 02 06 15 13 09
  21050125.896      852267.661 7   1334148.409 2
  19880913.271   -12671952.248 7  -9810657.702 2
  23196052.311    -8173753.700 5    237040.267 1
  20337486.451   -22974207.631 7 -17412563.292 2
  21368898.943   -15940844.563 6 -11931141.333 1
 90 10 17 12 51 14.9980000  0  5 02 06 15 13 09
  21052444.311      864448.507 7   1343639.977 2
  19878822.998   -12682943.956 7  -9819222.661 2
  23197818.381    -8164501.803 6    244249.522 1
  20330827.912   -23009198.301 7 -17439828.739 2
  21360058.139   -15987303.029 6 -11967342.725 1
 90 10 17 12 51 29.9980000  0  5 02 06 15 13 09
  21054770.537      876671.511 7   1353164.392 2
  19876753.881   -12693816.628 7  -9827694.876 2
  23199604.811    -8155113.004 5    251565.453 1
  20324195.873   -23044054.288 7 -17466989.240 2
  21351225.982   -16033703.278 6 -12003498.765 1
 90 10 17 12 51 44.9980000  0  5 02 06 15 13 09
  21057100.975      888935.670 7   1362720.879 2
  19874707.357   -12704570.966 7  -9836074.877 2
  23201418.498    -8145588.483 5    258987.134 1
  20317588.896   -23078776.608 7 -17494045.583 2
  21342408.131   -16080045.728 6 -12039609.758 1
 90 10 17 12 51 59.9980000  0  5 02 06 15 13 09
  21059446.662      901239.603 7   1372308.363 2
  19872682.561   -12715207.929 7  -9844363.420 2
  23203256.326    -8135929.461 5    266513.622 1
  20311005.545   -23113366.375 7 -17520998.644 2
  21333599.818   -16126331.274 6 -12075676.410 1
 90 10 17 12 52 14.9980000  0  5 02 06 15 13 09
  21061794.334      913587.808 7   1381930.334 2
  19870681.639   -12725722.944 7  -9852556.939 2
  23205116.756    -8126131.944 5    274148.037 1
  20304449.936   -23147819.036 7 -17547844.867 2
  21324802.279   -16172555.456 6 -12111695.248 1
 90 10 17 12 52 29.9980000  0  5 02 06 15 13 09
  21064151.428      925975.954 7   1391583.441 2
  19868703.514   -12736120.134 7  -9860658.645 2
  23207013.568    -8116200.246 5    281887.019 1
  20297918.686   -23182138.744 7 -17574587.491 2
  21316018.740   -16218722.156 6 -12147669.290 1
 90 10 17 12 52 44.9980000  0  5 02 06 15 13 09
  21066516.865      938402.632 7   1401266.570 2
  19866747.764   -12746400.677 7  -9868669.466 2
  23208926.959    -8106135.880 5    289729.370 1
  20291413.561   -23216326.878 7 -17601227.577 2
  21307244.897   -16264832.473 6 -12183599.407 1
 90 10 17 12 52 59.9980000  0  5 02 06 15 13 09
  21068890.123      950872.870 7   1410983.637 2
  19864812.951   -12756559.260 7  -9876585.249 2
  23210869.256    -8095933.888 5    297678.969 1
  20284932.920   -23250378.218 7 -17627761.085 2
  21298482.506   -16310880.737 6 -12219481.161 1
 90 10 17 12 53 14.9980000  0  5 02 06 15 13 09
  21071272.232      963386.925 7   1420734.842 2
  19862905.107   -12766595.585 7  -9884405.765 2
  23212835.154    -8085594.269 5    305735.799 1
  20278480.256   -23284292.623 7 -17654187.886 2
  21289732.061   -16356866.682 6 -12255314.359 1
 90 10 17 12 53 29.9980000  0  5 02 06 15 13 09
  21073659.271      975939.725 7   1430516.245 2
  19861016.123   -12776514.393 7  -9892134.704 2
  23214826.889    -8075122.016 5    313895.973 1
  20272050.717   -23318074.855 7 -17680511.695 2
  21280990.623   -16402794.959 6 -12291102.621 1
 90 10 17 12 53 44.9980000  0  5 02 06 15 13 09
  21076054.326      988534.156 7   1440330.094 2
  19859151.514   -12786312.626 7  -9899769.695 2
  23216845.701    -8064514.424 6    322161.605 1
  20265648.920   -23351721.691 7 -17706730.002 2
  21272261.795   -16448662.648 6 -12326843.679 1
 90 10 17 12 53 59.9980000  0  5 02 06 15 13 09
  21078461.100     1001171.800 7   1450177.618 2
  19857310.271   -12795988.535 7  -9907309.371 2
  23218892.162    -8053769.655 6    330534.138 1
  20259271.529   -23385231.756 7 -17732841.734 2
  21263546.436   -16494467.510 6 -12362535.768 1
 90 10 17 12 54 14.9980000  0  5 02 06 15 13 09
  21080872.561     1013844.839 7   1460052.711 2
  19855491.389   -12805549.708 7  -9914759.634 2
  23220958.592    -8042895.754 6    339007.299 1
  20252919.232   -23418612.677 7 -17758852.830 2
  21254840.139   -16540216.862 6 -12398184.600 1
 90 10 17 12 54 29.9980000  0  5 02 06 15 13 09
  21083292.240     1026561.784 7   1469962.013 2
  19853694.850   -12814987.499 7  -9922113.758 2
  23223053.318    -8031884.769 5    347587.253 1
  20246593.061   -23451856.118 7 -17784756.804 2
  21246146.553   -16585902.416 6 -12433783.725 1
 90 10 17 12 54 44.9980000  0  5 02 06 15 13 09
  21085720.756     1039320.254 7   1479903.671 2
  19851922.303   -12824304.321 7  -9929373.626 2
  23225175.990    -8020739.106 6    356272.166 1
  20240292.928   -23484964.169 7 -17810555.276 2
  21237463.631   -16631526.053 6 -12469334.583 1
 90 10 17 12 54 59.9980000  0  5 02 06 15 13 09
  21088156.178     1052121.143 7   1489878.379 2
  19850173.389   -12833498.682 7  -9936538.068 2
  23227325.334    -8009457.847 5    365062.744 1
  20234017.272   -23517935.922 7 -17836247.546 2
  21228795.771   -16677086.390 6 -12504836.135 1
 90 10 17 12 55 14.9980000  0  5 02 06 15 13 09
  21090598.740     1064959.721 7   1499882.460 2
  19848446.232   -12842575.456 7  -9943610.878 2
  23229493.311    -7998046.298 6    373954.846 1
  20227768.920   -23550776.237 7 -17861837.392 2
  21220135.936   -16722588.259 6 -12540292.125 1
 90 10 17 12 55 29.9980000  0  5 02 06 15 13 09
  21093050.826     1077839.475 7   1509918.626 2
  19846740.748   -12851530.939 7  -9950589.168 2
  23231689.740    -7986500.867 6    382951.277 1
  20221544.912   -23583481.584 7 -17887322.069 2
  21211487.834   -16768027.665 6 -12575699.442 2
 90 10 17 12 55 44.9980000  0  5 02 06 15 13 09
  21095509.701     1090765.019 7   1519990.467 2
  19845062.857   -12860360.170 7  -9957469.093 2
  23233914.248    -7974816.914 5    392055.639 1
  20215349.381   -23616047.192 7 -17912697.866 2
  21202855.803   -16813399.490 6 -12611054.095 1
 90 10 17 12 55 59.9980000  0  5 02 06 15 13 09
  21097978.834     1103733.695 7   1530095.931 2
  19843404.357   -12869065.702 7  -9964252.622 2
  23236166.115    -7962997.169 6    401265.796 1
  20209177.693   -23648475.700 7 -17937966.819 2
  21194233.881   -16858706.111 6 -12646357.944 1
 90 10 17 12 56 14.9980000  0  5 02 06 15 13 09
  21100454.584     1116750.875 7   1540239.170 2
  19841771.467   -12877641.928 7  -9970935.392 2
  23238440.146    -7951036.485 5    410585.780 1
  20203033.506   -23680761.334 7 -17963124.446 2
  21185624.959   -16903941.959 6 -12681606.638 1
 90 10 17 12 56 29.9980000  0  5 02 06 15 13 09
  21102941.334     1129810.233 7   1550415.279 2
  19840165.139   -12886094.803 7  -9977522.051 2
  23240739.303    -7938941.272 5    420010.599 1
  20196916.318   -23712910.255 7 -17988175.550 2
  21177029.826   -16949112.747 6 -12716804.648 1
 90 10 17 12 56 44.9980000  0  5 02 06 15 13 09
  21105431.412     1142908.291 7   1560621.555 2
  19838577.795   -12894427.793 7  -9984015.283 2
  23243070.217    -7926715.386 6    429537.240 1
  20190823.287   -23744926.142 7 -18013122.983 2
  21168445.529   -16994221.888 6 -12751954.618 1
 90 10 17 12 56 59.9980000  0  5 02 06 15 13 09
  21107931.639     1156045.019 7   1570857.956 2
  19837015.357   -12902640.844 7  -9990415.066 2
  23245418.443    -7914358.710 5    439165.828 1
  20184757.264   -23776808.847 7 -18037966.643 2
  21159874.209   -17039269.009 6 -12787056.264 1
 90 10 17 12 57 14.9980000  0  5 02 06 15 13 09
  21110439.779     1169223.416 7   1581126.816 2
  19835476.811   -12910730.797 7  -9996718.926 2
  23247796.779    -7901868.430 5    448898.496 1
  20178714.436   -23808555.309 7 -18062704.136 2
  21151314.475   -17084250.908 6 -12822107.086 1
 90 10 17 12 57 29.9980000  0  5 02 06 15 13 09
  21112956.240     1182448.083 7   1591431.746 2
  19833961.521   -12918692.646 7 -10002922.964 2
  23250199.420    -7889240.020 6    458738.791 1
  20172701.045   -23840160.974 7 -18087331.916 2
  21142766.943   -17129162.463 6 -12857103.096 2
 90 10 17 12 57 44.9980000  0  5 02 06 15 13 09
  21115481.514     1195718.496 7   1601772.317 2
  19832470.521   -12926527.099 7 -10009027.730 2
  23252629.287    -7876474.402 5    468685.996 1
  20166714.053   -23871626.264 7 -18111850.321 2
  21134234.334   -17174004.218 6 -12892044.722 2
 90 10 17 12 57 59.9980000  0  5 02 06 15 13 09
  21118015.701     1209030.091 7   1612144.985 2
  19831003.592   -12934238.413 7 -10015036.545 2
  23255082.373    -7863576.222 5    478736.511 1
  20160750.693   -23902955.761 7 -18136262.903 2
  21125714.217   -17218780.311 6 -12926935.177 2
 90 10 17 12 58 14.9980000  0  5 02 06 15 13 09
  21120555.779     1222379.752 7   1622547.313 2
  19829558.240   -12941829.255 7 -10020951.477 2
  23257564.459    -7850548.768 6    488887.763 1
  20154815.975   -23934152.426 7 -18160571.986 2
  21117204.201   -17263493.286 6 -12961776.439 2
 90 10 17 12 58 29.9980000  0  5 02 06 15 13 09
  21123103.592     1235773.469 7   1632983.968 2
  19828137.545   -12949293.715 7 -10026767.943 2
  23260065.381    -7837386.101 5    499144.377 1
  20148905.053   -23965210.162 7 -18184772.809 2
  21108709.654   -17308137.105 6 -12996563.814 2
 90 10 17 12 58 44.9980000  0  5 02 06 15 13 09
  21125660.404     1249212.532 7
  19826742.975   -12956630.173 7 -10032484.674 2
  23262598.107    -7824086.813 5
  20143021.693   -23996127.616 7 -18208864.328 2
  21100226.639   -17352709.886 6 -13031295.844 2
 90 10 17 12 58 59.9980000  0  5 02 06 15 13 09
  21128228.506     1262692.768 7
  19825369.818   -12963842.816 7 -10038104.919 2
  23265152.365    -7810655.730 5
  20137163.779   -24026908.990 7 -18232849.802 2
  21091759.686   -17397215.630 6 -13065975.636 2
 90 10 17 12 59 14.9980000  0  5 02 06 15 13 09
  21130799.701     1276212.499 7
  19824019.818   -12970932.821 7 -10043629.604 2
  23267737.154    -7797094.561 6
  20131332.959   -24057555.650 7 -18256730.310 2
  21083301.998   -17441655.553 6 -13100604.139 2
 90 10 17 12 59 29.9980000  0  5 02 06 15 13 09
  21133379.467     1289775.036 7   1675063.066 2
  19822693.639   -12977896.897 7 -10049056.156 2
  23270340.006    -7783399.938 5    541211.464 1
  20125526.732   -24088064.625 7 -18280503.525 2
  21074858.936   -17486026.169 6 -13135178.639 2
 90 10 17 12 59 44.9980000  0  5 02 06 15 13 09
  21135969.850     1303380.014 7   1685664.339 2
  19821394.436   -12984735.329 7 -10054384.795 2
  23272972.967    -7769572.616 5    551985.997 1
  20119746.537   -24118436.040 7 -18304169.555 2
  21066427.920   -17530327.755 6 -13169699.353 2
 90 10 17 12 59 59.9980000  0  5 02 06 15 13 09
  21138566.006     1317029.016 7   1696299.910 2
  19820116.389   -12991446.486 7 -10059614.279 2
  23275629.920    -7755611.115 6    562865.054 1
  20113994.873   -24148668.167 7 -18327727.049 2
  21058010.459   -17574558.026 6 -13204164.502 2
 90 10 17 13  0 14.9980000  0  5 02 06 15 13 09
  21141171.670     1330722.350 7   1706970.030 2
  19818863.928   -12998029.702 7 -10064744.059 2
  23278312.014    -7741515.043 5    573849.010 1
  20108267.217   -24178760.669 7 -18351175.743 2
  21049608.357   -17618716.488 6 -13238573.689 2
 90 10 17 13  0 29.9980000  0  5 02 06 15 13 09
  21143785.326     1344457.510 7   1717672.753 2
  19817635.771   -13004487.253 7 -10069775.903 2
  23281019.170    -7727287.428 5    584935.420 1
  20102566.725   -24208716.149 7 -18374517.668 2
  21041217.178   -17662805.491 6 -13272928.755 2
 90 10 17 13  0 44.9980000  0  5 02 06 15 13 09
  21146407.092     1358231.332 7   1728405.592 2
  19816429.912   -13010822.268 7 -10074712.282 2
  23283752.600    -7712931.391 5    596121.924 1
  20096892.295   -24238537.732 7 -18397755.259 2
  21032842.396   -17706827.617 7 -13307231.714 2
 90 10 17 13  0 59.9980000  0  5 02 06 15 13 09
  21149035.811     1372044.215 7   1739168.859 2
  19815246.201   -13017034.360 7 -10079552.873 2
  23286507.311    -7698446.985 5    607408.450 1
  20091242.623   -24268225.043 7 -18420888.220 2
  21024476.982   -17750782.341 6 -13341482.142 2
 90 10 17 13  1 14.9980000  0  5 02 06 15 13 09
  21151673.279     1385907.257 7   1749971.210 2
  19814091.889   -13023111.975 7 -10084288.673 2
  23289290.857    -7683823.191 5    618803.592 1
  20085621.318   -24297766.830 7 -18443907.785 2
  21016127.490   -17794658.202 6 -13375671.122 2
 90 10 17 13  1 29.9980000  0  5 02 06 15 13 09
  21154319.334     1399812.093 7   1760806.132 2
  19812959.990   -13029063.228 7 -10088926.024 2
  23292095.576    -7669068.143 5    630301.013 1
  20080025.521   -24327171.213 7 -18466820.289 2
  21007791.646   -17838462.913 6 -13409804.648 2
 90 10 17 13  1 44.9980000  0  5 02 06 15 13 09
  21156972.873     1413758.944 7   1771673.800 2
  19811850.006   -13034888.101 7 -10093464.888 2
  23294929.365    -7654182.198 5    641900.468 1
  20074455.959   -24356438.476 7 -18489625.940 2
  20999469.053   -17882196.510 7 -13443882.776 2
 90 10 17 13  1 59.9980000  0  5 02 06 15 13 09
  21159633.787     1427743.021 7   1782570.473 2
  19810765.225   -13040591.164 7 -10097908.833 2
  23297787.186    -7639170.317 5    653598.017 1
  20068912.037   -24385573.024 7 -18512328.177 2
  20991160.342   -17925863.300 7 -13477908.854 2
 90 10 17 13  2 14.9980000  0  5 02 06 15 13 09
  21162303.951     1441765.910 7   1793497.383 2
  19809702.131   -13046170.453 7 -10102256.333 2
  23300668.482    -7624030.818 5    665395.017 1
  20063394.631   -24414573.011 7 -18534925.560 2
  20982864.678   -17969461.044 7 -13511881.131 2
 90 10 17 13  2 29.9980000  0  5 02 06 15 13 09
  21164979.475     1455832.838 7   1804458.609 2
  19808666.061   -13051620.568 7 -10106503.184 2
  23303573.232    -7608758.635 5    677295.390 1
  20057901.631   -24443433.498 7 -18557414.245 2
  20974580.545   -18012984.341 7 -13545795.394 2
 90 10 17 13  2 44.9980000  0  5 02 06 15 13 09
  21167666.186     1469940.588 7   1815451.649 2
  19807652.615   -13056944.793 7 -10110651.930 2
  23306505.295    -7593357.543 5    689296.201 1
  20052435.678   -24472157.462 7 -18579796.547 2
  20966314.162   -18056436.258 7 -13579654.029 2
 90 10 17 13  2 59.9980000  0  5 02 06 15 13 09
  21170356.623     1484089.617 7   1826476.842 2
  19806663.311   -13062142.449 7 -10114702.049 2
  23309461.639    -7577827.298 5    701397.656 1
  20046993.607   -24500744.630 7 -18602072.252 2
  20958059.529   -18099815.904 7 -13613456.339 2
 90 10 17 13  3 14.9980000  0  5 02 06 15 13 09
  21173058.607     1498278.688 7   1837533.250 2
  19805699.342   -13067214.675 7 -10118654.438 2
  23312438.764    -7562169.038 5    713598.878 1
  20041581.998   -24529196.216 7 -18624242.317 2
  20949815.701   -18143124.168 6 -13647203.028 2
 90 10 17 13  3 29.9980000  0  5 02 06 15 13 09
  21175765.998     1512508.716 7   1848621.566 2
  19804757.334   -13072160.128 7 -10122508.041 2
  23315445.131    -7546381.790 5    725900.608 1
  20036194.725   -24557511.103 7 -18646305.858 2
  20941589.967   -18186359.701 7 -13680893.047 2
 90 10 17 13  3 44.9980000  0  5 02 06 15 13 09
  21178480.647     1526779.345 7   1859741.521 2
  19803840.068   -13076979.370 7 -10126263.293 2
  23318471.154    -7530466.379 5    738302.226 1
  20030831.248   -24585689.782 7 -18668263.266 2
  20933377.178   -18229522.921 7 -13714526.715 2
 90 10 17 13  3 59.9980000  0  5 02 06 15 13 09
  21181204.732     1541092.328 7   1870894.484 2
  19802947.365   -13081670.237 7 -10129918.520 2
  23321525.201    -7514421.428 5    750804.766 1
  20025494.803   -24613730.076 7 -18690112.836 2
  20925176.920   -18272611.537 7 -13748102.261 2
 90 10 17 13  4 14.9980000  0  5 02 06 15 13 09
  21183935.396     1555444.498 7   1882077.980 2
  19802079.420   -13086235.861 7 -10133476.141 2
  23324603.600    -7498249.746 5    763406.067 1
  20020185.326   -24641635.368 7 -18711857.214 2
  20916989.537   -18315628.172 7 -13781621.721 2
 90 10 17 13  4 29.9980000  0  5 02 06 15 13 09
  21186676.162     1569841.386 7   1893296.329 2
  19801235.334   -13090670.707 7 -10136931.868 2
  23327707.514    -7481946.451 5    776109.927 1
  20014900.959   -24669400.368 7 -18733492.277 2
  20908818.350   -18358567.268 7 -13815080.753 2
 90 10 17 13  4 44.9980000  0  5 02 06 15 13 09
  21189423.693     1584279.777 7   1904547.013 2
  19800414.889   -13094977.786 7 -10140288.042 2
  23330836.334    -7465514.856 5    788913.773 1
  20009644.748   -24697028.369 7 -18755020.582 2
  20900661.725   -18401431.745 7 -13848481.628 2
 90 10 17 13  4 59.9980000  0  5 02 06 15 13 09
  21192178.693     1598760.742 7   1915830.866 2
  19799619.615   -13099155.743 7 -10143543.586 2
  23333983.092    -7448953.820 5    801818.445 1
  20004413.943   -24724517.918 7 -18776441.003 2
  20892520.545   -18444219.994 7 -13881823.118 2
 90 10 17 13  5 14.9980000  0  5 02 06 15 13 09
  21194940.521     1613281.524 7   1927145.749 2
  19798848.357   -13103207.183 7 -10146700.556 2
  23337158.521    -7432266.464 5    814821.549 1
  19999207.990   -24751871.882 7 -18797755.773 2
  20884392.850   -18486934.474 7 -13915107.127 2
 90 10 17 13  5 29.9980000  0  5 02 06 15 13 09
  21197712.826     1627848.510 7   1938496.640 2
  19798103.732   -13107125.765 7 -10149754.004 2
  23340360.084    -7415446.746 5    827927.780 1
  19994030.068   -24779083.691 7 -18818959.773 2
  20876279.490   -18529568.517 7 -13948328.457 2
 90 10 17 13  5 44.9980000  0  5 02 06 15 13 09
  21200495.592     1642459.927 7   1949882.140 2
  19797381.998   -13110913.021 7 -10152705.116 2
  23343587.162    -7398496.694 5    841135.602 1
  19988877.748   -24806155.073 7 -18840054.355 2
  20868179.889   -18572123.633 7 -13981488.283 2
 90 10 17 13  5 59.9980000  0  5 02 06 15 13 09
  21203283.506     1657113.865 7   1961300.776 2
  19796686.561   -13114570.707 7 -10155555.265 2
  23346836.295    -7381418.316 5    854443.384 1
  19983752.662   -24833088.099 7 -18861041.121 2
  20860097.186   -18614601.434 7 -14014587.864 2
 90 10 17 13  6 14.9980000  0  5 02 06 15 13 09
  21206080.053     1671808.073 7   1972750.795 2
  19796014.771   -13118100.934 7 -10158306.085 2
  23350110.795    -7364214.062 5    867849.255 1
  19978654.998   -24859885.183 7 -18881921.960 2
  20852028.107   -18657003.899 7 -14047628.742 2
 90 10 17 13  6 29.9980000  0  5 02 06 15 13 09
  21208883.436     1686541.552 7   1984231.406 2
  19795367.436   -13121504.632 7 -10160958.302 2
  23353407.818    -7346884.903 5    881352.437 1
  19973580.201   -24886547.365 7 -18902697.682 2
  20843974.756   -18699331.465 7 -14080611.263 2
 90 10 17 13  6 44.9980000  0  5 02 06 15 13 09
  21211696.709     1701322.312 7   1995748.871 2
  19794744.889   -13124773.617 7 -10163505.566 2
  23356730.342    -7329423.056 5    894959.022 1
  19968533.068   -24913066.322 7 -18923361.792 2
  20835934.889   -18741575.776 7 -14113528.907 2
 90 10 17 13  6 59.9980000  0  5 02 06 15 13 09
  21214516.521     1716142.953 7   2007297.401 2
  19794146.912   -13127915.289 7 -10165953.633 2
  23360075.842    -7311836.484 5    908662.796 1
  19963513.186   -24939449.630 7 -18943920.206 2
  20827911.795   -18783744.433 7 -14146387.595 2
 90 10 17 13  7 14.9980000  0  5 02 06 15 13 09
  21217342.537     1731000.413 7   2018874.630 2
  19793572.147   -13130932.363 7 -10168304.610 2
  23363447.811    -7294128.257 5    922461.364 1
  19958518.146   -24965700.241 7 -18964375.220 2
  20819900.904   -18825839.664 7 -14179189.066 2
 90 10 17 13  7 29.9980000  0  5 02 06 15 13 09
  21220178.311     1745900.800 7   2030485.308 2
  19793024.092   -13133818.630 7 -10170553.664 2
  23366842.209    -7276292.478 5    936359.364 1
  19953549.084   -24991811.956 7 -18984721.997 2
  20811904.928   -18867855.101 7 -14211928.359 2
 90 10 17 13  7 44.9980000  0  5 02 06 15 13 09
  21223022.006     1760839.999 7   2042126.227 2
  19792498.701   -13136578.174 7 -10172703.959 2
  23370258.146    -7258333.334 5    950353.492 1
  19948605.631   -25017789.111 7 -19004963.918 2
  20803925.951   -18909794.628 7 -14244608.510 2
 90 10 17 13  7 59.9980000  0  5 02 06 15 13 09
  21225873.100     1775824.565 7   2053802.498 2
  19791999.131   -13139204.379 7 -10174750.358 2
  23373702.131    -7240244.612 5    964448.580 1
  19943689.350   -25043625.119 7 -19025095.869 2
  20795957.912   -18951651.441 7 -14277224.210 2
 90 10 17 13  8 14.9980000  0  5 02 06 15 13 09
  21228733.084     1790852.410 7   2065512.493 2
  19791524.568   -13141699.095 7 -10176694.295 2
  23377168.115    -7222028.581 5    978642.851 1
  19938798.686   -25069321.957 7 -19045119.371 2
  20788010.061   -18993427.290 7 -14309776.812 2
 90 10 17 13  8 29.9980000  0  5 02 06 15 13 09
  21231601.506     1805923.233 7   2077255.974 2
  19791074.256   -13144062.475 7 -10178535.897 2
  23380658.264    -7203685.618 5    992936.020 1
  19933935.436   -25094880.048 7 -19065034.758 2
  20780076.553   -19035122.078 7 -14342266.251 2
 90 10 17 13  8 44.9980000  0  5 02 06 15 13 09
  21234476.764     1821035.819 7   2089031.990 2
  19790649.303   -13146295.684 7 -10180276.070 2
  23384175.365    -7185217.477 5   1007326.760 1
  19929098.131   -25120300.504 7 -19084842.894 2
  20772156.201   -19076736.608 7 -14374693.165 2
 90 10 17 13  8 59.9980000  0  5 02 06 15 13 09
  21237360.115     1836193.418 7   2100843.085 2
  19790249.318   -13148395.414 7 -10181912.230 2
  23387711.521    -7166620.815 5   1021817.667 1
  19924288.553   -25145580.064 7 -19104541.248 2
  20764252.787   -19118267.451 7 -14407054.855 2
 90 10 17 13  9 14.9980000  0  5 02 06 15 13 09
  21240254.506     1851397.167 7   2112690.147 2
  19789877.131   -13150360.197 7 -10183443.227 2
  23391275.897    -7147894.902 5   1036409.262 1
  19919502.951   -25170717.714 7 -19124129.020 2
  20756365.584   -19159713.128 7 -14439350.190 2
 90 10 17 13  9 29.9980000  0  5 02 06 15 13 09
  21243153.826     1866640.759 7   2124568.251 2
  19789527.553   -13152196.381 7 -10184874.028 2
  23394861.021    -7129046.285 5   1051096.452 1
  19914747.217   -25195719.880 7 -19143611.227 2
  20748494.529   -19201079.538 7 -14471583.751 2
 90 10 17 13  9 44.9980000  0  5 02 06 15 13 09
  21246061.787     1881922.608 7   2136476.171 2
  19789201.975   -13153905.243 7 -10186205.609 2
  23398467.662    -7110076.298 5   1065878.215 1
  19910012.740   -25220587.872 7 -19162988.874 2
  20740637.061   -19242367.837 7 -14503756.443 2
 90 10 17 13  9 59.9980000  0  5 02 06 15 13 09
  21248976.615     1897248.283 7   2148418.227 2
  19788903.443   -13155481.425 7 -10187433.810 2
  23402106.545    -7090979.972 5   1080758.443 1
  19905307.967   -25245316.123 7 -19182257.635 2
  20732797.279   -19283572.378 7 -14535863.863 2
 90 10 17 13 10 14.9980000  0  5 02 06 15 13 09
  21251903.740     1912618.456 7   2160394.972 2
  19788626.936   -13156923.887 7 -10188557.805 2
  23405761.568    -7071756.891 5   1095737.448 1
  19900629.264   -25269904.342 7 -19201417.274 2
  20724972.123   -19324692.284 7 -14567905.347 2
 90 10 17 13 10 29.9980000  0  5 02 06 15 13 09
  21254837.311     1928032.629 7   2172405.999 2
  19788378.686   -13158233.194 7 -10189578.048 2
  23409443.264    -7052407.702 5   1110814.714 1
  19895977.186   -25294352.912 7 -19220468.101 2
  20717163.959   -19365727.541 7 -14599880.871 2
 90 10 17 13 10 44.9980000  0  5 02 06 15 13 09
  21257779.842     1943488.785 7   2184449.731 2
  19788153.131   -13159411.128 7 -10190495.927 2
  23413149.943    -7032934.601 5   1125988.520 1
  19891350.412   -25318663.664 7 -19239411.537 2
  20709368.826   -19406679.826 7 -14631791.741 2
 90 10 17 13 10 59.9980000  0  5 02 06 15 13 09
  21260728.920     1958986.489 7   2196525.835 2
  19787954.553   -13160458.212 7 -10191311.840 2
  23416877.553    -7013338.186 5   1141258.387 1
  19886751.209   -25342837.514 7 -19258248.296 2
  20701591.826   -19447549.401 7 -14663638.160 2
 90 10 17 13 11 14.9980000  0  5 02 06 15 13 09
  21263685.646     1974528.101 7   2208636.163 2
  19787780.029   -13161371.844 7 -10192023.763 2
  23420635.834    -6993616.602 5   1156625.803 1
  19882175.818   -25366872.041 7 -19276976.494 2
  20693831.654   -19488333.542 7 -14695418.002 2
 90 10 17 13 11 29.9980000  0  5 02 06 15 13 09
  21266650.631     1990114.105 7   2220781.079 2
  19787631.857   -13162151.362 7 -10192631.188 2
  23424407.615    -6973769.536 5   1172091.014 1
  19877629.389   -25390766.548 7 -19295595.586 2
  20686086.772   -19529031.425 7 -14727130.636 2
 90 10 17 13 11 44.9980000  0  5 02 06 15 13 09
  21269625.037     2005741.791 7   2232958.472 2
  19787510.029   -13162799.458 7 -10193136.206 2
  23428208.943    -6953799.774 5   1187651.819 1
  19873107.998   -25414523.770 7 -19314107.694 2
  20678359.381   -19569645.236 7 -14758777.759 2
 90 10 17 13 11 59.9980000  0  5 02 06 15 13 09
  21272605.537     2021410.421 7   2245167.762 2
  19787411.193   -13163316.821 7 -10193539.356 2
  23432031.732    -6933708.249 5   1203307.512 1
  19868613.654   -25438144.398 7 -19332513.367 2
  20670646.693   -19610175.573 7 -14790359.838 2
 90 10 17 13 12 14.9980000  0  5 02 06 15 13 09
  21275595.139     2037119.405 7   2257408.510 2
  19787336.787   -13163703.878 7 -10193840.971 2
  23435878.045    -6913496.102 5   1219057.200 1
  19864144.811   -25461629.333 7 -19350813.306 2
  20662948.295   -19650622.874 7 -14821877.219 2
 90 10 17 13 12 29.9980000  0  5 02 06 15 13 09
  21278591.873     2052868.174 7   2269680.257 2
  19787287.764   -13163961.041 7
  23439748.482    -6893163.936 5   1234900.384 1
  19859702.287   -25484978.936 7 -19369007.790 2
  20655268.732   -19690987.135 7 -14853329.889 2
 90 10 17 13 12 44.9980000  0  6 02 06 12 15 13 09
  21281597.951     2068662.797 7   2281987.727 2
  19787265.256   -13164082.121 7
  24161701.803          -0.54312
  23443641.967    -6872705.640 5   1250841.874 1
  19855284.717   -25508187.336 7 -19387092.254 2
  20647605.014   -19731261.864 7 -14884712.801 2
 90 10 17 13 12 59.9980000  0  6 02 06 12 15 13 09
  21284612.514     2084503.323 7   2294330.976 2
  19787269.326   -13164067.011 7
  24151000.584      -56230.923 2
  23447557.311    -6852121.761 5   1266881.212 1
  19850895.318   -25531254.444 7 -19405066.613 2
  20639958.178   -19771446.987 7 -14916025.891 2
 90 10 17 13 13 14.9980000  0  6 02 06 12 15 13 09
  21287636.318     2100383.983 7   2306705.494 2
  19787295.631   -13163921.430 7
  24140300.709     -112471.431 3
  23451497.576    -6831418.099 5   1283013.909 1
  19846532.303   -25554185.939 7 -19422935.304 2
  20632326.537   -19811547.903 7 -14947273.361 2
 90 10 17 13 13 29.9980000  0  6 02 06 12 15 13 09
  21290665.537     2116307.443 7   2319113.367 2
  19787346.779   -13163642.610 7
  24129595.264     -168719.121 3
  23455462.959    -6810592.523 5   1299241.571 1
  19842195.162   -25576979.331 7 -19440696.384 2
  20624711.865   -19851561.514 7 -14978452.803 2
 90 10 17 13 13 44.9980000  0  6 02 06 12 15 13 09
  21293703.318     2132272.206 7   2331553.416 2
  19787427.404   -13163231.852 7
  24118891.498     -224975.124 3
  23459448.490    -6789646.326 5   1315563.250 1
  19837883.381   -25599636.034 7 -19458350.954 2
  20617114.350   -19891488.733 7 -15009564.928 2
 90 10 17 13 13 59.9980000  0  6 02 06 12 15 13 09
  21296749.686     2148283.029 7   2344029.353 2
  19787529.303   -13162684.282 7        -0.05012
  24108184.037     -281234.605 3
  23463457.522    -6768575.197 5   1331982.290 1
  19833598.279   -25622151.399 7 -19475895.386 2
  20609533.100   -19931324.931 7 -15040606.114 2
 90 10 17 13 14 14.9980000  0  6 02 06 12 15 13 09
  21299804.771     2164336.552 7   2356538.563 2
  19787661.436   -13162003.126 7       530.718 2
  24097477.803     -337500.721 2
  23467489.459    -6747382.696 5   1348495.883 1
  19829341.279   -25644528.855 7 -19493332.358 2
  20601969.412   -19971073.013 7 -15071578.647 2
 90 10 17 13 14 29.9980000  0  6 02 06 12 15 13 09
  21302866.740     2180428.470 6   2369077.695 2
  19787814.701   -13161192.935 7      1162.029 2
  24086766.146     -393777.743 3
  23471547.225    -6726073.626 5   1365100.317 1
  19825107.725   -25666772.887 7 -19510665.358 2
  20594421.514   -20010736.963 7 -15102485.626 2
 90 10 17 13 14 44.9980000  0  6 02 06 12 15 13 09
  21305937.068     2196559.603 7   2381647.387 2
  19787994.248   -13160252.766 7      1894.619 2
  24076050.279     -450064.477 2        -0.11911
  23475624.631    -6704647.183 5   1381796.199 1
  19820899.154   -25688882.716 7 -19527893.798 2
  20586889.639   -20050315.503 7 -15133326.050 2
 90 10 17 13 14 59.9980000  0  6 02 06 12 15 13 09
  21309015.350     2212737.315 7   2394253.374 2
  19788199.154   -13159174.857 7      2734.542 2
  24065340.545     -506353.276 3    -43861.523 1
  23479722.811    -6683096.105 5   1398589.225 1
  19816719.670   -25710850.817 7 -19545011.789 2
  20579376.975   -20089801.126 7 -15164094.064 2
 90 10 17 13 15 14.9980000  0  6 02 06 12 15 13 09
  21312100.795     2228959.027 6   2406893.634 2
  19788430.209   -13157961.788 7      3679.796 2
  24054635.436     -562646.632 3    -87726.491 1
  23483848.186    -6661423.280 5   1415477.109 1
  19812565.951   -25732679.979 7 -19562021.528 2
  20571881.170   -20129196.061 7 -15194791.415 2
 90 10 17 13 15 29.9980000  0  6 02 06 12 15 13 09
  21315197.811     2245224.360 6   2419567.892 2
  19788686.732   -13156613.966 7      4730.040 2
  24043916.959     -618944.728 4
  23487994.787    -6639629.598 5   1432459.131 1
  19808438.107   -25754370.503 7 -19578923.229 2
  20564400.646   -20168500.256 7 -15225418.069 2
 90 10 17 13 15 44.9980000  0  6 02 06 12 15 13 09
  21318301.217     2261532.395 7   2432275.428 2
  19788967.553   -13155132.254 7      5884.613 2
  24033205.678     -675248.189 4
  23492164.725    -6617716.155 5   1449534.495 1
  19804337.670   -25775923.249 7 -19595717.576 2
  20556937.662   -20207714.355 7 -15255974.512 2
 90 10 17 13 15 59.9980000  0  6 02 06 12 15 13 09
  21321413.248     2277880.347 7   2445014.064 2
  19789275.381   -13153519.258 7      7141.489 2
  24022486.201     -731559.687 4
  23496357.428    -6595685.746 5   1466701.011 1
  19800260.428   -25797341.370 7 -19612407.015 2
  20549493.576   -20246841.114 7 -15286462.900 2
 90 10 17 13 16 14.9980000  0  6 02 06 12 15 13 09
  21324531.381     2294272.647 7   2457787.253 2
  19789608.037   -13151770.514 7      8504.134 2
  24011771.350     -787874.585 4        -0.36811
  23500575.342    -6573534.467 5   1483961.705 1
  19796211.873   -25818620.709 7 -19628988.324 2
  20542065.318   -20285875.477 7 -15316879.294 2
 90 10 17 13 16 29.9980000  0  6 02 06 12 15 13 09
  21327659.490     2310709.631 7   2470595.267 2
  19789966.865   -13149885.639 7      9972.866 2
  24001055.701     -844192.327 4    -43884.280 1
  23504811.740    -6551261.893 5   1501316.911 1
  19792188.100   -25839760.455 7 -19645460.846 2
  20534654.342   -20324816.865 7 -15347223.239 2
 90 10 17 13 16 44.9980000  0  6 02 06 12 15 13 09
  21330796.639     2327191.842 7   2483438.525 2
  19790352.186   -13147863.912 7     11548.229 2
  23990337.529     -900512.115 4    -87769.836 1
  23509074.178    -6528868.060 5   1518766.596 1
  19788192.131   -25860760.191 7 -19661824.276 2
  20527261.678   -20363664.341 7 -15377493.996 2
 90 10 17 13 16 59.9980000  0  6 02 06 12 15 13 09
  21333939.818     2343715.452 6   2496314.022 2
  19790761.139   -13145709.158 7     13227.249 2
  23979622.428     -956837.528 4
  23513357.428    -6506357.036 5   1536307.601 1
  19784222.951   -25881624.033 7 -19678081.811 2
  20519885.670   -20402421.363 7 -15407694.277 2
 90 10 17 13 17 14.9980000  0  6 02 06 12 15 13 09
  21337092.850     2360286.750 6   2509226.695 2
  19791198.396   -13143414.968 7     15014.923 2
  23968906.186    -1013162.175 5
  23517665.014    -6483722.667 5   1553944.744 1
  19780279.740   -25902345.687 7 -19694228.554 2
  20512531.193   -20441081.518 7 -15437819.075 2
 90 10 17 13 17 29.9980000  0  6 02 06 12 15 13 09
  21340255.154     2376899.947 7   2522172.014 2
  19791659.686   -13140987.178 7     16906.696 2
  23958182.100    -1069491.665 5
  23521989.350    -6460971.057 5   1571673.223 1
  19776360.646   -25922930.996 7 -19710269.049 2
  20505190.443   -20479650.154 7 -15467872.559 2
 90 10 17 13 17 44.9980000  0  6 02 06 12 15 13 09
  21343423.147     2393552.897 6   2535148.306 2
  19792147.232   -13138428.003 7     18900.851 2
  23947462.271    -1125828.011 4
  23526342.607    -6438104.581 5   1589491.169 1
  19772471.123   -25943382.194 7 -19726205.048 2
  20497868.209   -20518129.349 7 -15497856.350 2
 90 10 17 13 17 59.9980000  0  6 02 06 12 15 13 09
  21346600.998     2410250.511 6   2548159.394 2
  19792660.717   -13135732.307 7     21001.375 2
  23936741.131    -1182165.969 5        -0.39511
  23530721.631    -6415118.609 5   1607402.253 1
  19768604.592   -25963694.549 7 -19742032.852 2
  20490564.436   -20556513.825 7 -15527766.333 2
 90 10 17 13 18 14.9980000  0  6 02 06 12 15 13 09
  21349789.139     2426993.922 7   2561206.172 2
  19793198.951   -13132898.785 7     23209.298 2
  23926020.537    -1238504.041 5    -43900.208 1
  23535115.014    -6392012.071 5   1625407.303 1
  19764765.623   -25983866.902 7 -19757751.569 2
  20483278.686   -20594801.833 7 -15557601.143 2
 90 10 17 13 18 29.9980000  0  6 02 06 12 15 13 09
  21352981.287     2443779.931 7   2574286.141 2
  19793763.951   -13129930.614 7     25522.141 2
  23915300.748    -1294845.238 5    -87802.463 1
  23539537.951    -6368788.920 5   1643503.214 1
  19760954.545   -26003902.689 7 -19773363.866 2
  20476009.889   -20632996.478 7 -15587363.199 2
 90 10 17 13 18 44.9980000  0  6 02 06 12 15 13 09
  21356184.154     2460606.276 7   2587397.536 2
  19794353.998   -13126829.948 7     27938.237 2
  23904577.857    -1351191.694 5   -131708.845 1
  23543976.615    -6345451.233 5   1661688.352 1
  19757166.748   -26023804.031 7 -19788871.412 2
  20468758.717   -20671099.700 7 -15617054.020 2
 90 10 17 13 18 59.9980000  0  6 02 06 12 15 13 09
  21359394.897     2477478.719 6   2600544.856 2
  19794970.967   -13123590.732 7     30462.286 2
  23893856.342    -1407537.139 5   -175614.381 1
  23548436.818    -6321993.188 5   1679967.293 1
  19753407.326   -26043564.943 7 -19804269.521 2
  20461526.826   -20709105.128 7 -15646668.641 2
 90 10 17 13 19 14.9980000  0  6 02 06 12 15 13 09
  21362611.811     2494392.889 6   2613724.686 2
  19795612.693   -13120217.319 7     33090.913 2
  23883136.357    -1463885.804 5
  23552928.514    -6298419.552 5   1698336.316 1
  19749671.272   -26063190.028 7 -19819561.794 2
  20454313.850   -20747016.682 7 -15676210.120 2
 90 10 17 13 19 29.9980000  0  6 02 06 12 15 13 09
  21365837.678     2511351.178 6   2626938.904 2
  19796281.615   -13116707.817 7     35825.577 2
  23872406.725    -1520235.465 4
  23557430.865    -6274728.856 5   1716796.545 1
  19745964.115   -26082677.061 7 -19834746.491 2
  20447117.639   -20784832.321 7 -15705676.850 2
 90 10 17 13 19 44.9980000  0  6 02 06 12 15 13 09
  21369076.068     2528353.666 6   2640187.557 2
  19796973.842   -13113061.928 7     38666.514 2
  23861684.709    -1576585.866 5
  23561965.412    -6250921.182 5   1735347.912 1
  19742281.209   -26102026.200 7 -19849823.740 2
  20439939.029   -20822551.362 7 -15735068.301 2
 90 10 17 13 19 59.9980000  0  6 02 06 12 15 13 09
  21372317.615     2545398.916 6   2653469.525 2
  19797694.193   -13109280.747 7     41612.873 2
  23850964.748    -1632938.093 5        -0.01011
  23566517.256    -6226998.001 5   1753989.283 1
  19738625.764   -26121238.907 7 -19864794.679 2
  20432779.334   -20860175.077 7 -15764385.486 2
 90 10 17 13 20 14.9980000  0  6 02 06 12 15 13 09
  21375571.990     2562488.199 6   2666785.814 2
  19798438.701   -13105362.952 7     44665.683 3
  23840241.498    -1689290.370 4    -43910.826 1
  23571091.717    -6202958.022 5   1772721.673 1
  19734995.217   -26140313.906 7 -19879658.311 2
  20425638.498   -20897701.605 7 -15793626.941 2
 90 10 17 13 20 29.9980000  0  6 02 06 12 15 13 09
  21378831.662     2579617.181 6   2680133.036 2
  19799208.740   -13101312.939 7     47821.521 2
  23829514.912    -1745647.050 5    -87825.112 1
  23575686.107    -6178806.117 5   1791541.246 1
  19731391.725   -26159255.631 7 -19894418.095 2
  20418514.787   -20935134.945 7 -15822795.780 2
 90 10 17 13 20 44.9980000  0  6 02 06 12 15 13 09
  21382098.889     2596790.130 6   2693514.511 2
  19800006.240   -13097126.240 7     51083.873 2
  23818788.756    -1802003.560 4   -131739.314 1
  23580300.951    -6154538.152 5   1810451.296 1
  19727812.701   -26178060.019 7 -19909070.860 2
  20411409.795   -20972470.574 7 -15851888.477 2
 90 10 17 13 20 59.9980000  0  6 02 06 12 15 13 09
  21385375.115     2614006.374 6   2706929.730 2
  19800829.068   -13092803.715 7     54452.063 3
  23808068.654    -1858360.435 5   -175653.697 1
  23584947.928    -6130155.380 5   1829450.781 1
  19724260.936   -26196727.868 7 -19923617.235 2
  20404324.709   -21009709.103 7 -15880905.518 2
 90 10 17 13 21 14.9980000  0  6 02 06 12 15 13 09
  21388660.623     2631269.326 6   2720381.340 2
  19801677.521   -13088341.826 7     57928.851 2
  23797339.717    -1914714.057 5   -219565.606 1
  23589612.240    -6105654.456 5   1848542.353 1
  19720734.732   -26215255.785 7 -19938054.577 2
  20397256.443   -21046846.486 7 -15909843.741 2
 90 10 17 13 21 29.9980000  0  6 02 06 12 15 13 09
  21391951.272     2648566.779 6   2733859.839 2
  19802551.623   -13083752.674 7     61504.810 2
  23786616.561    -1971076.333 5   -263484.258 1
  23594291.881    -6081047.805 5   1867716.288 1
  19717233.818   -26233656.127 7 -19952392.503 2
  20390206.936   -21083894.745 7 -15938712.518 2
 90 10 17 13 21 44.9980000  0  6 02 06 12 15 13 09
  21395251.467     2665911.122 6   2747374.872 2
  19803451.803   -13079023.767 7     65189.650 3
  23775894.818    -2027434.700 5   -307399.843 1
  23598995.459    -6056323.357 5   1886982.037 1
  19713758.553   -26251916.555 7 -19966621.405 2
  20383176.131   -21120840.970 7 -15967501.789 2
 90 10 17 13 21 59.9980000  0  6 02 06 12 15 13 09
  21398560.600     2683300.525 6   2760925.017 2
  19804377.607   -13074156.962 7     68981.953 2
  23765168.061    -2083790.706 5   -351313.582 1
  23603722.756    -6031483.205 5   1906337.952 1
  19710310.084   -26270038.648 7 -19980742.515 2
  20376163.756   -21157687.244 7 -15996213.176 2
 90 10 17 13 22 14.9980000  0  6 02 06 12 15 13 09
  21401877.264     2700732.900 6   2774508.645 2
  19805330.623   -13069154.182 7     72880.211 2
  23754443.889    -2140146.184 5   -395226.954 1
  23608471.146    -6006529.474 5   1925782.367 1
  19706886.537   -26288024.914 7 -19994757.784 2
  20369172.889   -21194434.656 7 -16024847.523 2
 90 10 17 13 22 29.9980000  0  6 02 06 12 15 13 09
  21405203.498     2718205.933 6   2788123.961 2
  19806307.217   -13064018.007 7     76882.405 2
  23743719.795    -2196503.438 4   -439141.663 1
  23613238.982    -5981465.401 5   1945312.755 1
  19703490.287   -26305877.674 7 -20008669.026 2
  20362198.561   -21231085.577 7 -16053406.689 2
 90 10 17 13 22 44.9980000  0  6 02 06 12 15 13 09
  21408537.498     2735727.641 6   2801777.207 2
  19807310.928   -13058740.401 7     80994.810 2
  23732996.803    -2252854.177 4   -483051.352 1
  23618032.248    -5956283.259 5   1964935.116 1
  19700118.881   -26323589.243 7 -20022470.240 2
  20355243.279   -21267632.031 7 -16081884.450 2
 90 10 17 13 22 59.9980000  0  6 02 06 12 15 13 09
  21411880.646     2753291.467 6   2815463.269 2
  19808342.131   -13053327.747 7     85212.447 2
  23722273.029    -2309204.773 4   -526960.863 1
  23622843.037    -5930989.605 5   1984644.386 1
  19696775.740   -26341166.096 7 -20036166.487 2
  20348306.740   -21304079.947 7 -16110285.425 2
 90 10 17 13 23 14.9980000  0  6 02 06 12 15 13 09
  21415231.014     2770899.051 6   2829183.420 2
  19809397.295   -13047778.447 7     89536.559 2
  23711551.521    -2365553.325 4   -570868.863 1
  23627679.482    -5905583.232 5   2004441.496 1
  19693455.795   -26358606.722 7 -20049756.579 2
  20341390.107   -21340427.487 7 -16138608.188 2
 90 10 17 13 23 29.9980000  0  6 02 06 12 15 13 09
  21418588.467     2788546.315 6   2842934.502 2
  19810478.615   -13042096.308 7     93964.195 2
  23700831.795    -2421903.560 4   -614778.115 1
  23632534.506    -5880067.883 5   2024323.516 1
  19690161.850   -26375915.251 7 -20063243.736 2
  20334491.920   -21376678.100 7 -16166855.421 2
 90 10 17 13 23 44.9980000  0  6 02 06 12 15 13 09
  21421954.803     2806240.489 6   2856722.135 1
  19811586.295   -13036274.047 7     98501.006 3
  23690103.420    -2478247.843 4   -658682.756 1
  23637413.615    -5854437.189 5   2044295.395 1
  19686896.201   -26393084.274 7 -20076622.196 2
  20327613.967   -21412824.194 7 -16195021.212 2
 90 10 17 13 23 59.9980000  0  6 02 06 12 15 13 09
  21425333.092     2823984.217 6   2870548.381 2
  19812720.756   -13030308.980 7    103149.089 3
  23679382.396    -2534583.213 4   -702580.430 1
  23642313.256    -5828688.137 5   2064359.553 1
  19683655.092   -26410111.329 7 -20089890.025 2
  20320755.537   -21448862.728 7 -16223103.181 2
 90 10 17 13 24 14.9980000  0  6 02 06 12 15 13 09
  21428718.311     2841769.066 6   2884406.661 2
  19813883.404   -13024209.583 7    107901.849 2
  23668666.998    -2590918.259 4   -746477.813 1
  23647237.693    -5802829.849 5   2084508.791 1
  19680440.006   -26427005.234 7 -20103054.112 2
  20313916.545   -21484802.247 7 -16251108.005 2
 90 10 17 13 24 29.9980000  0  6 02 06 12 15 13 09
  21432110.693     2859597.060 6   2898298.570 2
  19815067.686   -13017973.909 7    112760.795 3
  23657945.334    -2647250.838 4   -790373.309 1
  23652175.467    -5776860.752 5   2104744.396 1
  19677251.318   -26443764.005 7 -20116112.894 2
  20307095.607   -21520640.399 7 -16279033.834 2
 90 10 17 13 24 44.9980000  0  6 02 06 12 15 13 09
  21435509.912     2877468.138 6   2912224.046 1
  19816282.107   -13011601.972 7    117725.928 3
  23647224.295    -2703580.635 4   -834266.636 1
  23657135.068    -5750780.996 5   2125066.207 1
  19674088.209   -26460387.918 7 -20129066.595 2
  20300298.303   -21556376.645 7 -16306880.255 2
 90 10 17 13 24 59.9980000  0  6 02 06 12 15 13 09
  21438920.068     2895385.108 6   2926185.282 1
  19817520.076   -13005090.758 7    122799.581 3
  23636504.834    -2759904.618 4   -878155.405 1
  23662118.678    -5724588.156 5   2145476.134 1
  19670951.725   -26476874.088 7 -20141912.965 2
  20293515.279   -21592008.271 7 -16334645.166 2
 90 10 17 13 25 14.9980000  0  6 02 06 12 15 13 09
  21442336.990     2913345.047 6   2940180.000 1
  19818784.717   -12998443.509 7    127979.242 2
  23625792.490    -2816225.279 4   -922041.620 1
  23667129.256    -5698285.283 5   2165971.816 1
  19667838.357   -26493225.710 7 -20154654.488 2
  20286755.451   -21627537.460 7 -16362330.257 2
 90 10 17 13 25 29.9980000  0  6 02 06 12 15 13 09
  21445763.357     2931348.871 6   2954208.909 1
  19820077.272   -12991658.860 7    133265.966 2
  23615070.920    -2872541.503 4   -965924.370 1
  23672158.084    -5671872.044 5   2186553.476 1
  19664752.818   -26509442.024 7 -20167290.584 2
  20280013.756   -21662963.057 7 -16389934.619 2
 90 10 17 13 25 44.9980000  0  6 02 06 12 15 13 09
  21449198.107     2949396.811 6   2968272.193 1
  19821393.639   -12984736.710 7    138659.839 3
  23604357.537    -2928853.039 4  -1009803.447 1
  23677200.912    -5645348.329 5   2207221.241 1
  19661693.022   -26525522.903 7 -20179821.137 2
  20273293.061   -21698284.726 7 -16417458.003 2
 90 10 17 13 25 59.9980000  0  6 02 06 12 15 13 09
  21452639.201     2967488.268 6   2982369.395 1
  19822736.678   -12977677.784 7    144160.281 3
  23593643.326    -2985160.155 4  -1053679.123 1
  23682271.443    -5618714.914 5   2227974.473 1
  19658658.201   -26541468.951 7 -20192246.633 2
  20266590.521   -21733502.495 7 -16444900.422 2
 90 10 17 13 26 14.9970000  0  6 02 06 12 15 13 09
  21456089.884     2985622.044 6   2996499.569 2
  19824107.251   -12970482.313 7    149767.126 3
  23582928.938    -3041458.860 4  -1097548.251 1
  23687357.618    -5591974.025 5   2248811.466 1
  19655649.501   -26557279.388 7 -20204566.456 2
  20259909.462   -21768614.010 7 -16472260.045 2
 90 10 17 13 26 29.9970000  0  6 02 06 12 15 13 09
  21459552.493     3003803.389 6   3010666.815 1
  19825502.728   -12963146.496 7    155483.327 3
  23572218.556    -3097753.370 4  -1141414.097 1
  23692468.048    -5565119.348 5   2269737.080 1
  19652667.212   -26572953.301 7 -20216779.896 2
  20253246.548   -21803620.511 7 -16499537.843 2
 90 10 17 13 26 44.9970000  0  6 02 06 12 15 13 09
  21463019.290     3022025.241 6   3024865.612 1
  19826925.040   -12955676.865 7    161303.800 3
  23561504.071    -3154045.866 4  -1185278.330 1
  23697599.626    -5538159.099 5   2290744.990 1
  19649709.228   -26588495.617 7 -20228890.788 2
  20246606.056   -21838525.538 7 -16526736.573 2
 90 10 17 13 26 59.9970000  0  6 02 06 12 15 13 09
  21466494.587     3040287.597 6   3039095.973 1
  19828371.017   -12948073.307 7    167228.632 3
  23550795.657    -3210335.934 4  -1229140.725 1
  23702751.048    -5511093.337 5   2311835.115 1
  19646776.274   -26603906.648 7 -20240899.385 2
  20239983.368   -21873328.560 7 -16553855.816 2
 90 10 17 13 27 14.9970000  0  6 02 06 12 15 13 09
  21469978.501     3058596.527 6   3053362.633 1
  19829844.759   -12940329.482 7    173262.763 3
  23540083.196    -3266617.023 4  -1272996.102 1
  23707919.423    -5483916.305 5   2333011.936 1
  19643869.696   -26619180.177 7 -20252800.832 2
  20233380.306   -21908022.859 7 -16580890.346 2
 90 10 17 13 27 29.9970000  0  6 02 06 12 15 13 09
  21473471.501     3076951.860 6   3067665.452 1
  19831344.790   -12932445.924 7    179405.774 3
  23529375.220    -3322889.603 4  -1316844.827 1
  23713110.634    -5456628.864 5   2354274.805 1
  19640989.689   -26634316.810 7 -20264595.618 2
  20226799.228   -21942609.001 7 -16607840.597 2
 90 10 17 13 27 44.9970000  0  6 02 06 12 15 13 09
  21476971.751     3095351.007 6   3082002.409 1
  19832870.204   -12924425.074 7    185655.780 3
  23518667.290    -3379155.804 5  -1360688.604 1
  23718329.204    -5429233.352 5   2375621.865 1
  19638135.181   -26649319.111 7 -20276285.730 2
  20220237.728   -21977088.892 7 -16634708.050 2
 90 10 17 13 27 59.9970000  0  6 02 06 12 15 13 09
  21480482.595     3113795.481 6   3096374.682 1
  19834424.235   -12916265.602 7    192013.789 3
  23507963.595    -3435414.122 5  -1404526.296 1
  23723561.063    -5401728.912 5   2397053.800 1
  19635305.149   -26664185.859 7 -20287870.211 2
  20213697.688   -22011460.914 7 -16661491.446 2
 90 10 17 13 28 14.9970000  0  6 02 06 12 15 13 09
  21484000.837     3132284.238 6   3110781.456 1
  19836003.071   -12907968.331 7    198479.176 3
  23497258.181    -3491665.064 5  -1448358.166 1
  23728814.923    -5374117.053 5   2418569.485 1
  19632502.876   -26678918.112 7 -20299349.896 2
  20207175.806   -22045725.763 7 -16688191.339 2
 90 10 17 13 28 29.9970000  0  6 02 06 12 15 13 09
  21487528.313     3150815.290 6   3125221.197 1
  19837606.704   -12899535.260 7    205050.381 3
  23486559.274    -3547910.447 5  -1492185.745 1
  23734091.931    -5346399.513 5   2440167.440 1
  19629725.243   -26693518.025 7 -20310726.461 2
  20200675.829   -22079885.033 7 -16714808.962 2
 90 10 17 13 28 44.9970000  0  6 02 06 12 15 13 09
  21491061.618     3169389.515 6   3139694.579 1
  19839238.290   -12890965.420 7    211728.156 3
  23475855.915    -3604149.074 5  -1536008.035 1
  23739384.220    -5318575.760 5   2461848.214 1
  19626971.845   -26707984.715 7 -20321999.206 2
  20194195.837   -22113937.404 7 -16741343.280 2
 90 10 17 13 28 59.9970000  0  6 02 06 12 15 13 09
  21494605.314     3188010.109 6   3154204.082 1
  19840894.923   -12882255.637 7    218514.974 3
  23465154.399    -3660377.532 5  -1579822.393 1
  23744700.462    -5290643.267 5   2483613.676 1
  19624244.790   -26722315.179 7 -20333165.813 2
  20187737.415   -22147879.538 7 -16767791.692 2
 90 10 17 13 29 14.9970000  0  6 02 06 12 15 13 09
  21498156.407     3206671.901 6   3168745.686 1
  19842578.235   -12873411.003 7    225406.883 3
  23454456.415    -3716600.509 5  -1623632.485 1
  23750037.376    -5262607.095 5   2505459.991 1
  19621542.954   -26736514.624 7 -20344230.321 2
  20181299.251   -22181716.269 7 -16794157.984 2
 90 10 17 13 29 29.9970000  0  6 02 06 12 15 13 09
  21501715.540     3225378.212 6   3183321.989 1
  19844287.392   -12864428.528 7    232406.191 3
  23443756.712    -3772814.831 5  -1667435.844 1
  23755392.938    -5234464.582 5   2527389.159 1
  19618866.509   -26750580.308 7 -20355190.601 2
  20174880.728   -22215443.944 7 -16820439.298 2
 90 10 17 13 29 44.9970000  0  6 02 06 12 15 13 09
  21505283.392     3244126.892 6   3197931.302 1
  19846023.407   -12855310.143 7    239511.398 3
  23433061.845    -3829022.294 5  -1711233.828 1
  23760764.571    -5206218.376 5   2549399.116 1
  19616214.228   -26764514.344 7 -20366048.297 2
  20168482.298   -22249064.745 7 -16846637.334 2
 90 10 17 13 29 59.9970000  0  6 02 06 12 15 13 09
  21508861.024     3262918.603 6   3212574.143 1
  19847782.939   -12846055.555 7    246722.738 3
  23422366.774    -3885222.103 5  -1755025.857 1
  23766162.829    -5177867.919 5   2571490.302 1
  19613588.415   -26778316.185 7 -20376802.984 2
  20162106.181   -22282577.401 7 -16872751.097 2
 90 10 17 13 30 14.9970000  0  6 02 06 12 15 13 09
  21512444.829     3281756.719 6   3227253.149 1
  19849572.243   -12836660.830 7    254043.269 3
  23411672.540    -3941410.502 5  -1798809.028 1
  23771575.618    -5149409.994 5   2593665.216 1
  19610987.024   -26791982.425 7 -20387452.005 2
  20155749.649   -22315978.198 7 -16898777.705 2
 90 10 17 13 30 29.9970000  0  6 02 06 12 15 13 09
  21516038.782     3300641.323 6   3241968.375 1
  19851386.532   -12827125.931 7    261473.036 3
  23400986.071    -3997587.074 5  -1842582.983 1
  23777015.743    -5120844.875 5   2615923.657 1
  19608412.446   -26805513.109 7 -20397995.397 2
  20149414.368   -22349266.682 7 -16924716.792 2
 90 10 17 13 30 44.9970000  0  6 02 06 12 15 13 09
  21519641.743     3319568.986 6   3256717.146 1
  19853226.087   -12817454.475 7    269009.211 3
  23390295.103    -4053754.950 5  -1886350.181 1
  23782470.462    -5092176.302 5   2638262.717 1
  19605863.493   -26818911.695 7 -20408435.856 2
  20143099.876   -22382446.167 7 -16950570.945 2
 90 10 17 13 30 59.9970000  0  6 02 06 12 15 13 09
  21523251.149     3338542.758 6   3271501.858 1
  19855092.478   -12807643.391 7    276654.179 3
  23379609.946    -4109910.872 5  -1930108.040 1
  23787946.993    -5063401.539 5   2660684.462 1
  19603337.931   -26832175.464 7 -20418771.266 2
  20136808.267   -22415513.147 7 -16976337.435 2
 90 10 17 13 31 14.9970000  0  6 02 06 12 15 13 09
  21526870.876     3357559.499 6   3286320.049 1
  19856986.493   -12797695.733 7    284405.579 3
  23368925.251    -4166057.744 5  -1973858.854 1
  23793442.204    -5034523.755 4   2683186.526 1
  19600839.985   -26845307.574 7 -20429004.080 2
  20130537.407   -22448470.239 7 -17002018.300 2
 90 10 17 13 31 29.9970000  0  6 02 06 12 15 13 09
  21530497.759     3376619.088 6   3301171.626 1
  19858906.212   -12787611.683 7    292263.253 3
  23358244.532    -4222195.654 5  -2017602.678 1
  23798954.610    -5005543.283 5   2705768.592 1
  19598366.063   -26858308.606 7 -20439134.755 2
  20124285.696   -22481317.732 7 -17027613.760 2
 90 10 17 13 31 44.9970000  0  6 02 06 12 15 13 09
  21534131.564     3395725.794 6   3316059.916 1
  19860852.024   -12777387.088 7    300230.436 3
  23347562.079    -4278319.945 5  -2061335.882 1
  23804493.024    -4976456.749 5   2728433.332 1
  19595917.579   -26871174.160 7 -20449159.865 1
  20118058.048   -22514051.111 7 -17053120.297 2
 90 10 17 13 31 59.9970000  0  6 02 06 12 15 13 09
  21537776.556     3414880.331 6   3330985.479 1
  19862823.493   -12767021.355 7    308307.601 3
  23336886.337    -4334429.718 5  -2105057.767 1
  23810044.173    -4947263.838 5   2751180.956 1
  19593495.173   -26883903.767 7 -20459079.040 2
  20111851.173   -22546668.965 7 -17078536.816 2
 90 10 17 13 32 14.9970000  0  6 02 06 12 15 13 09
  21541431.509     3434075.385 6   3345942.617 1
  19864821.696   -12756521.518 7    316489.266 3
  23326209.704    -4390531.942 5  -2148773.789 1
  23815618.681    -4917971.649 4   2774005.947 1
  19591097.376   -26896505.020 7 -20468898.206 2
  20105664.993   -22579178.592 7 -17103869.003 2
 90 10 17 13 32 29.9970000  0  6 02 06 12 15 13 09
  21545090.759     3453317.317 6   3360936.272 1
  19866847.282   -12745881.277 7    324780.332 3
  23315533.845    -4446619.976 5  -2192478.750 1
  23821212.782    -4888574.396 4   2796912.790 1
  19588726.009   -26908971.533 7 -20478612.381 2
  20099499.993   -22611573.214 7 -17129111.575 2
 90 10 17 13 32 44.9970000  0  6 02 06 12 15 13 09
  21548763.079     3472603.745 6   3375964.606 1
  19868897.876   -12735103.245 7    333178.771 3
  23304864.392    -4502696.194 5  -2236174.504 1
  23826830.001    -4859074.808 3   2819899.375 1
  19586377.673   -26921306.105 7 -20488223.742 2
  20093356.423   -22643855.097 7 -17154266.293 2
 90 10 17 13 32 59.9970000  0  6 02 06 12 15 13 09
  21552439.876     3491932.275 6   3391025.742 1
  19870974.337   -12724189.642 7    341682.849 3
  23294195.079    -4558762.566 5  -2279862.606 1
  23832458.228    -4829475.507 3   2842963.649 1
  19584056.181   -26933510.957 7 -20497734.027 1
  20087234.282   -22676026.098 7 -17179334.611 2
 90 10 17 13 33 14.9970000  0  6 02 06 12 15 13 09
  21556128.564     3511315.607 6   3406129.586 1
  19873079.110   -12713127.908 7    350302.352 3
  23283530.298    -4614806.022 5  -2323532.836 1
  23838114.438    -4799763.929 3   2866115.428 1
  19581760.368   -26945573.500 7 -20507133.421 1
  20081136.259   -22708073.168 7 -17204306.365 2
 90 10 17 13 33 29.9970000  0  6 02 06 12 15 13 09
  21559826.774     3530737.689 6   3421263.625 1
  19875209.790   -12701934.032 7    359024.820 3
  23272866.868    -4670842.437 5  -2367197.591 1
  23843784.540    -4769956.563 4   2889341.846 1
  19579488.235   -26957510.031 7 -20516434.624 1
  20075057.931   -22740012.125 7 -17229193.876 2
 90 10 17 13 33 44.9970000  0  6 02 06 12 15 13 09
  21563526.188     3550202.118 6   3436430.652 1
  19877365.938   -12690604.589 7    367852.933 3
  23262205.853    -4726868.219 5  -2410854.047 1
  23849478.915    -4740050.383 4   2912645.270 1
  19577241.118   -26969317.510 7 -20525635.271 2
  20069002.009   -22771839.574 7 -17253994.493 2
 90 10 17 13 33 59.9970000  0  6 02 06 12 15 13 09
  21567242.024     3569716.122 6   3451636.318 1
  19879549.524   -12679132.176 7    376792.453 3
  23251546.173    -4782875.558 5  -2454496.129 1
  23855189.603    -4710038.215 3   2936031.300 1
  19575020.899   -26980988.262 7 -20534729.372 1
  20062968.478   -22803547.485 7 -17278701.967 2
 90 10 17 13 34 14.9970000  0  6 02 06 12 15 13 09
  21570964.376     3589271.159 6   3466873.948 1
  19881756.634   -12667525.437 7    385836.638 3
  23240892.493    -4838872.752 5  -2498130.322 1
  23860917.165    -4679929.099 4   2959492.819 1
  19572824.532   -26992531.191 7 -20543723.865 1
  20056955.165   -22835143.928 7 -17303322.576 2
 90 10 17 13 34 29.9970000  0  6 02 06 12 15 13 09
  21574692.860     3608870.790 6   3482146.333 1
  19883991.384   -12655780.792 7    394988.287 3
  23230239.110    -4894856.048 5  -2541753.689 1
  23866668.235    -4649719.399 4   2983032.753 1
  19570652.837   -27003943.105 7 -20552616.277 1
  20050964.728   -22866625.359 7 -17327853.566 2
 90 10 17 13 34 44.9970000  0  6 02 06 12 15 13 09
  21578430.720     3628514.345 6   3497452.940 1
  19886252.532   -12643899.161 7    404246.675 3
  23219589.431    -4950825.868 5  -2585366.575 1
  23872435.290    -4619410.502 4   3006649.983 1
  19568506.032   -27015224.746 7 -20561407.172 1
  20044995.743   -22897992.398 7 -17352295.429 2
 90 10 17 13 34 59.9970000  0  6 02 06 12 15 13 09
  21582178.985     3648202.608 6   3512794.386 1
  19888539.345   -12631879.534 7    413612.589 3
  23208942.860    -5006781.074 5  -2628968.021 1
  23878218.720    -4589001.796 3   3030344.976 1
  19566383.978   -27026375.525 7 -20570096.097 2
  20039049.751   -22929243.610 7 -17376647.027 2
 90 10 17 13 35 14.9970000  0  5 02 06 12 13 09
  21585934.329     3667938.092 6   3528172.632 1
  19890854.962   -12619719.507 7    423087.905 3
  23198295.462    -5062718.961 5  -2672555.970 1
  19564287.681   -27037392.942 7 -20578681.102 2
  20033124.634   -22960376.207 7 -17400906.198 2
 90 10 17 13 35 29.9970000  0  5 02 06 12 13 09
  21589697.118     3687718.814 6   3543586.122 1
  19893193.970   -12607421.029 7    432671.096 3
  23187655.384    -5118641.366 5  -2716131.864 1
  19562215.892   -27048279.168 7 -20587163.881 1
  20027222.540   -22991391.924 7 -17425074.301 2
 90 10 17 13 35 44.9970000  0  5 02 06 12 13 09
  21593468.587     3707544.959 6   3559035.008 1
  19895562.345   -12594984.244 7    442362.070 3
  23177017.149    -5174547.899 5  -2759695.374 1
  19560169.673   -27059034.314 7 -20595544.522 2
  20021343.759   -23022290.351 7 -17449151.004 2
 90 10 17 13 35 59.9970000  0  5 02 06 12 13 09
  21597253.556     3727427.735 6   3574528.026 1
  19897957.649   -12582397.850 7    452169.614 3
  23166384.298    -5230427.052 5  -2803237.539 1
  19558147.767   -27069647.463 7 -20603814.512 2
  20015486.743   -23053060.112 7 -17473127.448 2
 90 10 17 13 36 14.9970000  0  5 02 06 12 13 09
  21601048.212     3747365.371 6   3590063.781 1
  19900379.954   -12569663.751 7    462092.266 3
  23155755.009    -5286280.340 5  -2846759.569 1
  19556156.540   -27080120.448 7 -20611975.283 1
  20009657.728   -23083702.773 7 -17497004.859 2
 90 10 17 13 36 29.9970000  0  5 02 06 12 13 09
  21604849.204     3767347.578 6   3605634.272 1
  19902830.720   -12556791.857 7    472122.271 3
  23145131.220    -5342117.537 5  -2890269.073 1
  19554188.032   -27090463.577 7 -20620034.873 2
  20003848.665   -23114227.643 7 -17520790.484 2
 90 10 17 13 36 44.9970000  0  5 02 06 12 13 09
  21608660.556     3787372.563 6   3621238.114 1
  19905304.790   -12543784.313 7    482257.984 3
  23134506.501    -5397940.289 5  -2933767.322 1
  19552245.313   -27100678.785 7 -20627994.777 1
  19998060.853   -23144636.798 7 -17544485.945 2
 90 10 17 13 36 59.9970000  0  5 02 06 12 13 09
  21612481.017     3807444.313 6   3636878.368 1
  19907807.610   -12530636.917 7    492502.683 3
  23123886.892    -5453744.346 5  -2977251.005 1
  19550325.454   -27110761.945 7 -20635851.792 1
  19992297.220   -23174925.809 7 -17568087.780 2
 90 10 17 13 37 14.9970000  0  5 02 06 12 13 09
  21616309.993     3827562.706 6   3652554.972 1
  19910335.267   -12517349.843 7    502856.217 3
  23113270.970    -5509529.448 5  -3020719.897 1
  19548432.634   -27120713.857 7 -20643606.539 1
  19986556.259   -23205094.449 7 -17591595.827 2
 90 10 17 13 37 29.9970000  0  5 02 06 12 13 09
  21620143.829     3847727.997 6   3668268.130 1
  19912890.493   -12503923.427 7    513318.331 3
  23102659.251    -5565295.454 5  -3064173.932 1
  19546562.462   -27130534.658 7 -20651259.117 2
  19980839.462   -23235142.405 7 -17615009.833 2
 90 10 17 13 37 44.9970000  0  5 02 06 12 13 09
  21623993.649     3867935.217 6   3684013.953 1
  19915470.657   -12490362.077 7    523885.588 3
  23092049.267    -5621046.798 5  -3107616.530 1
  19544718.149   -27140229.122 7 -20658813.259 2
  19975142.774   -23265074.040 7 -17638333.189 2
 90 10 17 13 37 59.9970000  0  5 02 06 12 13 09
  21627847.423     3888190.637 6   3699797.328 1
  19918077.806   -12476659.731 7    534562.704 3
  23081446.173    -5676776.853 5  -3151042.560 1
  19542899.071   -27149791.255 7 -20666264.272 1
  19969470.665   -23294882.837 7 -17661560.826 2
 90 10 17 13 38 14.9970000  0  5 02 06 12 13 09
  21631709.478     3908492.478 6   3715616.879 1
  19920712.696   -12462818.290 7    545348.207 3
  23070846.282    -5732487.307 5  -3194453.282 1
  19541103.626   -27159222.926 7 -20673613.638 2
  19963821.548   -23324570.540 7 -17684694.112 2
 90 10 17 13 38 29.9970000  0  5 02 06 12 13 09
  21635580.024     3928838.115 6   3731470.568 1
  19923373.759   -12448840.488 7    556239.968 3
  23060244.774    -5788180.460 5  -3237850.547 1
  19539333.782   -27168527.006 7 -20680863.578 1
  19958194.970   -23354139.407 7 -17707734.796 2
 90 10 17 13 38 44.9970000  0  5 02 06 12 13 09
  21639463.868     3949231.436 6   3747361.406 1
  19926059.431   -12434722.415 7    567241.031 3
  23049651.501    -5843852.105 5  -3281231.046 1
  19537587.774   -27177699.806 7 -20688011.221 1
  19952589.931   -23383585.205 7 -17730679.576 2
 90 10 17 13 38 59.9970000  0  5 02 06 12 13 09
  21643350.587     3969670.156 6   3763287.614 1
  19928772.962   -12420466.402 7    578349.583 3
  23039063.939    -5899504.371 5  -3324596.449 1
  19535867.728   -27186743.714 7 -20695058.433 1
  19947010.829   -23412910.066 7 -17753530.130 2
 90 10 17 13 39 14.9970000  0  5 02 06 12 13 09
  21647250.962     3990155.431 6   3779250.105 1
  19931510.353   -12406071.397 7    589566.427 3
  23028478.212    -5955135.845 5  -3367945.661 1
  19534169.423   -27195657.664 7 -20702004.382 2
  19941453.728   -23442112.408 7 -17776285.209 2
 90 10 17 13 39 29.9970000  0  5 02 06 12 13 09
  21651158.860     4010692.803 6   3795253.184 1
  19934279.173   -12391532.043 7    600895.754 3
  23017894.985    -6010740.778 5  -3411274.175 1
  19532499.993   -27204436.532 7 -20708845.066 1
  19935920.759   -23471186.553 7 -17798940.399 2
 90 10 17 13 39 44.9970000  0  5 02 06 12 13 09
  21655075.751     4031273.719 6   3811290.196 1
  19937069.954   -12376856.756 7    612331.004 3
  23007317.939    -6066327.428 5  -3454588.444 1
  19530854.001   -27213088.968 7 -20715587.232 1
  19930410.712   -23500140.711 7 -17821502.082 2
 90 10 17 13 39 59.9970000  0  5 02 06 12 13 09
  21658999.399     4051896.705 6   3827359.990 1
  19939886.431   -12362046.962 7    623871.069 3
  22996741.064    -6121896.723 5  -3497889.184 1
  19529231.556   -27221616.412 7 -20722232.006 1
  19924923.806   -23528975.916 7 -17843971.083 2
 90 10 17 13 40 14.9970000  0  5 02 06 12 13 09
  21662932.423     4072571.329 6   3843470.025 1
  19942734.501   -12347093.300 7    635523.241 3
  22986174.103    -6177438.943 5  -3541168.833 1
  19527633.501   -27230009.726 7 -20728772.254 2
  19919461.642   -23557682.315 7 -17866339.723 2
 90 10 17 13 40 29.9970000  0  5 02 06 12 13 09
  21666876.907     4093295.335 6   3859618.539 1
  19945608.532   -12331998.164 7    647285.651 3
  22975608.595    -6232956.295 5  -3584429.106 1
  19526061.970   -27238271.259 7 -20735209.831 1
  19914022.907   -23586262.093 7 -17888609.688 2
 90 10 17 13 40 44.9970000  0  5 02 06 12 13 09
  21670827.962     4114061.337 6   3875799.767 1
  19948505.360   -12316769.056 7    659152.455 3
  22965047.532    -6288456.016 5  -3627675.657 1
  19524513.321   -27246408.951 7 -20741550.903 1
  19908607.165   -23614722.590 7 -17910786.722 2
 90 10 17 13 40 59.9970000  0  5 02 06 12 13 09
  21674788.478     4134872.009 6   3892015.814 1
  19951428.618   -12301403.154 7    671125.836 3
  22954489.024    -6343934.812 5  -3670905.885 1
  19522988.587   -27254420.058 7 -20747793.329 1
  19903214.009   -23643060.574 7 -17932868.284 2
 90 10 17 13 41 14.9970000  0  5 02 06 12 13 09
  21678760.243     4155732.339 6   3908270.544 1
  19954379.610   -12285895.456 7    683209.721 3
  22943939.313    -6399387.247 5  -3714115.594 1
  19521489.782   -27262299.479 7 -20753933.157 1
  19897845.907   -23671270.344 7 -17954849.931 2
 90 10 17 13 41 29.9970000  0  5 02 06 12 13 09
  21682738.399     4176641.260 6   3924563.142 1
  19957359.321   -12270247.324 7    695403.033 3
  22933392.220    -6454814.362 5  -3757305.558 1
  19520015.095   -27270048.649 7 -20759971.477 1
  19892502.603   -23699353.182 7 -17976732.681 2
 90 10 17 13 41 44.9970000  0  5 02 06 12 13 09
  21686723.689     4197595.667 6   3940891.186 1
  19960360.759   -12254461.886 7    707703.335 3
  22922848.220    -6510218.947 5  -3800477.973 1
  19518564.048   -27277670.962 7 -20765910.964 2
  19887182.329   -23727311.834 7 -17998518.655 2
 90 10 17 13 41 59.9970000  0  5 02 06 12 13 09
  21690723.353     4218596.638 6   3957255.511 1
  19963391.470   -12238538.055 7    720111.480 3
  22912308.657    -6565599.600 5  -3843631.746 1
  19517137.056   -27285165.397 7 -20771750.797 1
  19881886.384   -23755144.895 7 -18020206.760 2
 90 10 17 13 42 14.9970000  0  5 02 06 12 13 09
  21694727.376     4239642.057 6   3973654.468 1
  19966448.548   -12222478.152 7    732625.656 3
  22901772.423    -6620958.283 5  -3886768.416 1
  19515735.618   -27292534.419 7 -20777492.907 1
  19876612.399   -23782854.363 7 -18041798.565 2
 90 10 17 13 42 29.9970000  0  5 02 06 12 13 09
  21698738.134     4260737.571 6   3990092.466 1
  19969531.751   -12206276.474 7    745250.304 3
  22891244.360    -6676288.874 5  -3929883.179 1
  19514359.392   -27299772.674 7 -20783133.122 1
  19871363.978   -23810434.234 7 -18063289.386 2
 90 10 17 13 42 44.9970000  0  5 02 06 12 13 09
  21702763.790     4281878.566 6   4006565.901 1
  19972640.915   -12189937.939 7    757981.588 3
  22880719.017    -6731595.975 5  -3972979.642 1
  19513005.360   -27306885.080 7 -20788675.272 2
  19866139.298   -23837888.923 7 -18084682.665 2
 90 10 17 13 42 59.9970000  0  5 02 06 12 13 09
  21706795.634     4303068.877 6   4023077.762 1
  19975777.634   -12173458.506 7    770822.673 3
  22870200.103    -6786875.314 5  -4016054.464 1
  19511676.063   -27313867.946 7 -20794116.480 1
  19860941.228   -23865214.100 7 -18105975.024 2
 90 10 17 13 43 14.9970000  0  5 02 06 12 13 09
  21710836.478     4324307.085 6   4039626.955 1
  19978939.876   -12156839.924 7    783772.176 3
  22859687.618    -6842128.082 5  -4059108.583 1
  19510371.939   -27320722.846 7 -20799457.971 1
  19855764.462   -23892411.114 7 -18127167.517 2
 90 10 17 13 43 29.9970000  0  5 02 06 12 13 09
  21714889.728     4345595.291 6   4056215.094 1
  19982129.306   -12140080.004 7    796831.812 3
  22849180.524    -6897351.926 5  -4102140.162 1
  19509092.563   -27327447.708 7 -20804698.143 2
  19850613.071   -23919477.579 7 -18148258.282 2
 90 10 17 13 43 44.9970000  0  5 02 06 12 13 09
  21718946.103     4366926.694 6   4072836.892 1
  19985342.688   -12123185.731 7    809996.140 3
  22838673.024    -6952553.405 5  -4145154.300 1
  19507835.626   -27334049.713 7 -20809842.577 1
  19845486.720   -23946420.041 7 -18169252.429 2
 90 10 17 13 43 59.9970000  0  5 02 06 12 13 09
  21723015.556     4388309.606 6   4089498.837 1
  19988585.313   -12106148.622 7    823271.770 3
  22828173.540    -7007723.749 5  -4188144.194 1
  19506603.868   -27340520.584 7 -20814884.829 2
  19840385.353   -23973229.757 7 -18190143.134 2
 90 10 17 13 44 14.9970000  0  5 02 06 12 13 09
  21727096.376     4409738.859 6   4106196.883 1
  19991852.274   -12088974.244 7    836654.370 3
  22817679.821    -7062867.936 5  -4231113.698 1
  19505396.767   -27346865.829 7 -20819829.191 1
  19835308.814   -23999911.900 7 -18210934.436 2
 90 10 17 13 44 29.9970000  0  5 02 06 12 13 09
  21731179.157     4431210.287 6   4122927.787 1
  19995146.673   -12071666.710 7    850140.720 3
  22807190.907    -7117989.863 5  -4274065.866 1
  19504212.931   -27353089.633 7 -20824678.930 1
  19830253.071   -24026470.102 7 -18231629.163 2
 90 10 17 13 44 44.9970000  0  5 02 06 12 13 09
  21735275.040     4452731.016 6   4139697.115 1
  19998468.579   -12054218.975 7    863736.330 3
  22796707.978    -7173082.078 5  -4316994.894 1
  19503053.274   -27359185.348 7 -20829428.856 1
  19825224.649   -24052897.018 7 -18252221.573 2
 90 10 17 13 44 59.9970000  0  5 02 06 12 13 09
  21739380.845     4474298.630 6   4156502.980 1
  20001813.415   -12036633.494 7    877439.260 3
  22786229.392    -7228146.800 5  -4359902.483 1
  19501915.946   -27365155.522 7 -20834080.958 1
  19820221.485   -24079194.885 7 -18272713.428 2
 90 10 17 13 45 14.9970000  0  5 02 06 12 13 09
  21743491.103     4495911.000 6   4173343.716 1
  20005186.634   -12018912.598 7    891247.722 3
  22775757.501    -7283185.792 5  -4402790.046 1
  19500803.915   -27371002.502 7 -20838637.062 1
  19815241.446   -24105365.636 7 -18293106.235 2
 90 10 17 13 45 29.9970000  0  5 02 06 12 13 09
  21747617.337     4517575.942 6   4190225.418 1
  20008585.743   -12001048.512 7    905167.750 3
  22765288.360    -7338190.907 5  -4445651.187 1
  19499716.071   -27376718.569 7 -20843091.162 1
  19810286.431   -24131400.964 7 -18313393.517 2
 90 10 17 13 45 44.9970000  0  5 02 06 12 13 09
  21751747.696     4539283.226 6   4207140.105 1
  20012011.267   -11983051.667 7    919191.230 3
  22754825.337    -7393172.270 5  -4488493.823 1
  19498651.079   -27382314.210 7 -20847451.415 1
  19805355.728   -24157311.049 7 -18333583.210 2
 90 10 17 13 45 59.9970000  0  5 02 06 12 13 09
  21755886.517     4561039.372 6   4224092.869 1
  20015460.993   -11964915.460 7    933323.301 3
  22744370.314    -7448122.821 5  -4531312.457 1
  19497611.149   -27387782.959 7 -20851712.798 1
  19800450.274   -24183088.974 7 -18353669.918 2
 90 10 17 13 46 14.9970000  0  5 02 06 12 13 09
  21760037.915     4582843.909 6   4241083.348 1
  20018939.024   -11946640.279 7    947563.665 3
  22733919.696    -7503042.602 5  -4574107.102 1
  19496594.673   -27393125.412 7 -20855875.768 1
  19795569.688   -24208734.714 7 -18373653.622 2
 90 10 17 13 46 29.9970000  0  5 02 06 12 13 09
  21764196.462     4604703.064 6   4258116.375 1
  20022443.603   -11928220.227 7    961916.908 3
  22723476.462    -7557925.423 6  -4616872.948 1
  19495602.337   -27398335.740 7 -20859935.771 1
  19790716.478   -24234242.064 7 -18393529.489 2
 90 10 17 13 46 44.9970000  0  5 02 06 12 13 09
  21768363.892     4626616.861 6   4275191.988 1
  20025978.087   -11909655.323 7    976383.036 3
  22713039.337    -7612770.824 6  -4659609.649 1
  19494636.728   -27403414.148 7 -20863892.990 1
  19785889.110   -24259610.720 7 -18413297.286 2
 90 10 17 13 46 59.9970000  0  5 02 06 12 13 09
  21772544.243     4648579.737 6   4292305.845 1
  20029536.228   -11890951.204 7    990957.632 3
  22702608.821    -7667584.244 5  -4702321.424 1
  19493693.438   -27408366.656 7 -20867752.111 1
  19781087.290   -24284846.142 7 -18432961.262 2
 90 10 17 13 47 14.9970000  0  5 02 06 12 13 09
  21776733.314     4670591.632 6   4309457.892 1
  20033121.040   -11872108.353 7   1005640.340 3
  22692183.071    -7722365.375 5  -4745008.042 1
  19492775.368   -27413193.305 7 -20871513.152 1
  19776310.915   -24309947.980 7 -18452521.148 2
 90 10 17 13 47 29.9970000  0  5 02 06 12 13 09
  21780929.462     4692653.299 6   4326648.729 1
  20036735.196   -11853125.933 7   1020431.795 3
  22681765.517    -7777113.115 5  -4787668.628 1
  19491881.728   -27417893.482 7 -20875175.647 2
  19771559.415   -24334915.156 7 -18471976.102 2
 90 10 17 13 47 44.9970000  0  5 02 06 12 13 09
  21785137.485     4714765.457 6   4343878.906 1
  20040373.962   -11834003.346 7   1035332.474 3
  22671355.118    -7831826.547 5  -4830302.486 1
  19491010.087   -27422466.871 7 -20878739.343 1
  19766832.728   -24359747.030 7 -18491325.630 2
 90 10 17 13 47 59.9970000  0  5 02 06 12 13 09
  21789353.868     4736923.534 6   4361144.859 1
  20044038.306   -11814745.193 7   1050338.789 3
  22660950.509    -7886509.987 5  -4872912.981 1
  19490164.321   -27426918.234 7 -20882207.958 1
  19762133.009   -24384447.671 7 -18510572.896 2
 90 10 17 13 48 14.9970000  0  5 02 06 12 13 09
  21793583.751     4759133.260 6   4378451.062 1
  20047729.845   -11795345.854 7   1065455.113 3
  22650549.743    -7941157.357 5  -4915495.380 1
  19489340.415   -27431242.100 7 -20885577.221 1
  19757459.853   -24409011.145 7 -18529713.280 2
 90 10 17 13 48 29.9970000  0  5 02 06 12 13 09
  21797818.970     4781388.396 6   4395792.650 1
  20051446.040   -11775811.457 7   1080676.682 3
  22640154.267    -7995774.462 5  -4958054.196 1
  19488540.251   -27435444.755 7 -20888852.036 1
  19752810.563   -24433443.187 7 -18548751.253 2
 90 10 17 13 48 44.9970000  0  5 02 06 12 13 09
  21802065.071     4803692.193 6   4413172.151 1
  20055189.798   -11756139.093 7   1096005.757 3
  22629768.024    -8050357.774 5  -5000586.663 1
  19487764.814   -27439523.175 7 -20892030.052 1
  19748187.259   -24457740.396 7 -18567684.164 2
 90 10 17 13 48 59.9970000  0  5 02 06 12 13 09
  21806316.274     4826043.598 6   4430588.746 1
  20058959.978   -11736329.912 7   1111441.446 3
  22619389.845    -8104908.099 5  -5043093.433 1
  19487011.493   -27443478.694 7 -20895112.291 1
  19743587.056   -24481903.568 7 -18586512.627 2
 90 10 17 13 49 14.9970000  0  5 02 06 12 13 09
  21810580.040     4848443.590 6   4448043.208 1
  20062755.001   -11716382.936 7   1126984.504 3
  22609012.907    -8159424.162 5  -5085573.505 1
  19486283.071   -27447310.551 7 -20898098.169 2
  19739015.235   -24505931.705 7 -18605235.860 2
 90 10 17 13 49 29.9970000  0  5 02 06 12 13 09
  21814850.907     4870891.677 6   4465535.141 1
  20066577.634   -11696298.915 7   1142634.350 3
  22598645.595    -8213906.265 5  -5128027.115 1
  19485577.626   -27451019.551 7 -20900988.312 1
  19734469.235   -24529824.861 7 -18623853.923 2
 90 10 17 13 49 44.9970000  0  5 02 06 12 13 09
  21819134.188     4893387.621 6   4483064.364 1
  20070424.743   -11676078.154 7   1158390.746 3
  22588283.454    -8268354.219 5  -5170454.116 1
  19484894.642   -27454606.003 7 -20903782.961 1
  19729947.298   -24553583.051 7 -18642366.817 2
 90 10 17 13 49 59.9970000  0  5 02 06 12 13 09
  21823420.470     4915935.767 6   4500634.267 1
  20074299.665   -11655716.461 7   1174256.960 3
  22577932.938    -8322763.551 5  -5212851.012 1
  19484236.524   -27458066.016 7 -20906479.100 1
  19725453.189   -24577201.693 7 -18660770.969 2
 90 10 17 13 50 14.9970000  0  5 02 06 12 13 09
  21827719.446     4938536.649 6   4518245.267 1
  20078203.024   -11635213.394 7   1190233.335 3
  22567586.173    -8377133.279 5  -5255217.067 1
  19483601.899   -27461399.106 7 -20909076.329 1
  19720986.899   -24600680.055 7 -18679065.818 2
 90 10 17 13 50 29.9970000  0  5 02 06 12 13 09
  21832035.813     4961187.559 6   4535895.253 1
  20082128.251   -11614571.635 7   1206317.779 3
  22557244.540    -8431465.957 6  -5297554.238 1
  19482991.345   -27464608.285 7 -20911577.008 2
  19716544.204   -24624020.618 7 -18697253.296 2
 90 10 17 13 50 44.9970000  0  5 02 06 12 13 09
  21836353.735     4983889.192 6   4553584.752 1
  20086084.767   -11593790.848 7   1222510.556 3
  22546914.399    -8485760.440 5  -5339861.658 1
  19482404.899   -27467693.137 7 -20913980.809 1
  19712128.314   -24647222.156 7 -18715332.433 2
 90 10 17 13 50 59.9970000  0  5 02 06 12 13 09
  21840682.540     5006636.820 6   4571310.097 1
  20090065.634   -11572875.770 7   1238807.974 3
  22536591.282    -8540021.191 6  -5382142.778 1
  19481838.743   -27470658.599 7 -20916291.587 1
  19707739.603   -24670289.582 7 -18733307.069 2
 90 10 17 13 51 14.9970000  0  5 02 06 12 13 09
  21845020.673     5029435.124 6   4589074.937 1
  20094072.032   -11551821.833 7   1255213.595 3
  22526270.314    -8594243.215 6  -5424393.721 1
  19481299.251   -27473499.970 7 -20918505.665 2
  19703376.837   -24693217.643 7 -18751173.110 2
 90 10 17 13 51 29.9970000  0  5 02 06 12 13 09
  21849368.892     5052281.312 6   4606877.070 1
  20098104.267   -11530631.874 7   1271725.210 3
  22515957.196    -8648428.996 6  -5466616.438 1
  19480781.345   -27476220.290 7 -20920625.422 1
  19699038.845   -24716009.002 7 -18768932.629 2
 90 10 17 13 51 44.9970000  0  5 02 06 12 13 09
  21853721.431     5075175.502 6   4624716.621 1
  20102161.079   -11509305.966 7   1288342.753 3
  22505656.063    -8702578.139 6  -5508810.600 1
  19480287.188   -27478819.772 7 -20922651.011 1
  19694729.626   -24738663.286 7 -18786585.339 2
 90 10 17 13 51 59.9970000  0  5 02 06 12 13 09
  21858088.329     5098113.468 6   4642590.286 1
  20106245.267   -11487848.610 7   1305062.727 3
  22495356.470    -8756694.561 6  -5550979.269 1
  19479813.634   -27481303.147 7 -20924586.130 1
  19690443.298   -24761184.458 7 -18804134.327 2
 90 10 17 13 52 14.9970000  0  5 02 06 12 13 09
  21862463.821     5121097.323 6   4660499.700 1
  20110352.618   -11466257.650 7   1321886.808 3
  22485065.774    -8810775.892 6  -5593120.580 1
  19479363.915   -27483668.461 7 -20926429.253 1
  19686183.993   -24783570.471 7 -18821577.993 2
 90 10 17 13 52 29.9970000  0  5 02 06 12 13 09
  21866846.142     5144130.580 6   4678447.602 1
  20114489.048   -11444529.682 7   1338817.648 3
  22474782.603    -8864818.173 6  -5635231.468 1
  19478936.642   -27485912.113 7 -20928177.567 2
  19681950.360   -24805817.264 7 -18838913.178 2
 90 10 17 13 52 44.9970000  0  5 02 06 12 13 09
  21871241.446     5167216.641 6   4696436.661 1
  20118648.485   -11422661.523 7   1355857.721 3
  22464507.712    -8918817.814 6  -5677309.134 1
  19478534.181   -27488031.144 7 -20929828.783 1
  19677743.720   -24827921.277 7 -18856137.111 2
 90 10 17 13 52 59.9970000  0  5 02 06 12 13 09
  21875642.626     5190351.630 6   4714463.840 1
  20122837.267   -11400657.125 7   1373003.959 3
  22454237.110    -8972778.327 6  -5719356.303 1
  19478153.438   -27490029.708 7 -20931386.121 1
  19673565.321   -24849885.954 7 -18873252.465 2
 90 10 17 13 53 14.9970000  0  5 02 06 12 13 09
  21880056.837     5213537.508 6   4732530.686 1
  20127049.938   -11378514.789 7   1390257.678 3
  22443976.196    -9026697.476 6  -5761371.226 1
  19477796.579   -27491906.241 7 -20932848.371 1
  19669410.759   -24871709.309 7 -18890257.696 2
 90 10 17 13 53 29.9970000  0  5 02 06 12 13 09
  21884479.438     5236776.127 6   4750638.609 1
  20131290.345   -11356232.447 7   1407620.496 3
  22433725.814    -9080572.964 6  -5803352.152 1
  19477462.860   -27493658.979 7 -20934214.163 1
  19665286.056   -24893389.146 7 -18907151.101 2
 90 10 17 13 53 44.9970000  0  5 02 06 12 13 09
  21888906.634     5260066.925 6   4768787.200 1
  20135558.478   -11333811.071 7   1425091.657 3
  22423480.728    -9134405.241 6  -5845299.416 1
  19477152.774   -27495288.411 7 -20935483.875 1
  19661187.228   -24914925.761 7 -18923932.897 2
 90 10 17 13 53 59.9970000  0  5 02 06 12 13 09
  21893349.790     5283402.538 6   4786970.717 1
  20139847.392   -11311258.194 7   1442665.274 3
  22413247.064    -9188201.294 6  -5887218.446 1
  19476865.431   -27496802.269 7 -20936663.523 1
  19657115.517   -24936326.290 7 -18940608.657 2
 90 10 17 13 54 14.9970000  0  5 02 06 12 13 09
  21897800.876     5306787.208 6   4805192.449 1
  20144166.392   -11288569.429 7   1460344.788 3
  22403015.915    -9241956.495 6  -5929105.656 1
  19476599.876   -27498196.597 7 -20937750.031 1
  19653068.696   -24957586.264 7 -18957174.893 2
 90 10 17 13 54 29.9970000  0  5 02 06 12 13 09
  21902261.673     5330225.602 6   4823456.047 1
  20148510.056   -11265740.478 7   1478133.527 3
  22392792.837    -9295665.806 6  -5970957.094 1
  19476358.587   -27499466.953 7 -20938739.939 1
  19649049.931   -24978700.952 7 -18973627.923 2
 90 10 17 13 54 44.9970000  0  5 02 06 12 13 09
  21906728.649     5353714.347 6   4841758.893 1
  20152881.673   -11242774.854 7   1496028.776 3
  22382581.306    -9349332.522 6  -6012775.340 1
  19476140.353   -27500616.830 7 -20939635.965 1
  19645060.056   -24999673.326 7 -18989970.057 2
 90 10 17 13 54 59.9970000  0  5 02 06 12 13 09
  21911210.954     5377255.170 6   4860102.305 1
  20157276.782   -11219670.795 7   1514031.890 3
  22372380.853    -9402954.554 6  -6054558.769 1
  19475942.329   -27501644.905 7 -20940437.082 1
  19641097.063   -25020501.394 7 -19006199.748 2
 90 10 17 13 55 14.9970000  0  5 02 06 12 13 09
  21915701.259     5400847.440 6   4878485.811 1
  20161699.915   -11196429.211 7   1532142.169 3
  22362183.399    -9456532.090 6  -6096307.528 1
  19475771.298   -27502552.179 7 -20941144.072 1
  19637161.462   -25041185.749 7 -19022317.451 2
 90 10 17 13 55 29.9970000  0  5 02 06 12 13 09
  21920199.165     5424487.687 6   4896906.694 1
  20166148.673   -11173053.667 7   1550356.831 3
  22351997.696    -9510068.358 6  -6138024.143 1
  19475620.892   -27503342.276 7 -20941759.750 1
  19633251.993   -25061729.333 7 -19038325.465 2
 90 10 17 13 55 44.9970000  0  5 02 06 12 13 09
  21924703.806     5448171.393 6   4915361.454 1
  20170622.220   -11149548.948 7   1568672.151 3
  22341815.751    -9563567.707 6  -6179711.977 1
  19475492.923   -27504020.004 7 -20942287.885 1
  19629367.681   -25082136.744 7 -19054227.367 2
 90 10 17 13 55 59.9970000  0  5 02 06 12 13 09
  21929221.282     5471904.622 6
  20175119.782   -11125908.891 7
  22331643.110    -9617023.529 6  -6221365.912 1
  19475385.767   -27504579.424 7 -20942723.827 1
  19625512.149   -25102401.620 7 -19070018.209 2
 90 10 17 13 56 14.9970000  0  5 02 06 12 13 09
  21933746.626     5495691.025 6
  20179645.095   -11102130.365 7
  22321479.259    -9670431.934 6  -6262982.880 1
  19475304.704   -27505017.110 7 -20943064.909 1
  19621683.603   -25122520.072 7 -19085694.956 2
 90 10 17 13 56 29.9970000  0  5 02 06 12 13 09
  21938280.134     5519521.897 6   4970958.984 1
  20184195.681   -11078221.873 7   1624251.555 3
  22311323.728    -9723801.373 6  -6304569.480 1
  19475238.634   -27505342.003 7 -20943318.098 1
  19617881.813   -25142500.442 7 -19101264.102 2
 90 10 17 13 56 44.9970000  0  5 02 06 12 13 09
  21942827.978     5543402.080 6   4989566.832 1
  20188770.415   -11054178.974 7   1642986.233 3
  22301176.313    -9777126.785 6  -6346121.791 1
  19475201.314   -27505549.769 7
  19614105.743   -25162337.934 7 -19116721.916 2
 90 10 17 13 56 59.9970000  0  5 02 06 12 13 09
  21947382.407     5567335.611 6   5008216.265 1
  20193371.196   -11029997.636 7   1661828.790 3
  22291039.360    -9830403.479 6  -6387636.120 1
  19475186.306   -27505636.230 7
  19610358.642   -25182027.969 7 -19132064.824 2
 90 10 17 13 57 14.9970000  0  5 02 06 12 13 09
  21951946.181     5591318.525 6   5026904.140 1
  20197998.548   -11005682.273 7   1680775.780 3
  22280906.603    -9883635.498 6  -6429115.645 1
  19475192.306   -27505606.227 7
  19606640.282   -25201574.656 7 -19147296.031 2
 90 10 17 13 57 29.9970000  0  5 02 06 12 13 09
  21956515.915     5615355.575 6   5045634.227 1
  20202652.540   -10981227.914 7   1699831.075 3
  22270789.517    -9936817.674 6  -6470556.307 1
  19475219.688   -27505455.021 7
  19602949.681   -25220973.085 7 -19162411.720 2
 90 10 17 13 57 44.9970000  0  5 02 06 12 13 09
  21961105.118     5639448.346 6   5064407.735 1
  20207333.337   -10956633.457 7   1718995.543 3
  22260676.439    -9989947.939 6  -6511956.541 1
  19475271.735   -27505181.178 7
  19599284.118   -25240221.168 7 -19177410.247 2
 90 10 17 13 57 59.9970000  0  5 02 06 12 13 09
  21965701.228     5663591.443 6   5083220.453 1
  20212038.298   -10931904.146 7   1738265.084 3
  22250577.759   -10043031.379 6  -6553320.283 1
  19475345.212   -27504790.271 7        -0.33011
  19595649.978   -25259324.083 7 -19192295.657 2
 90 10 17 13 58 14.9970000  0  5 02 06 12 13 09
  21970299.095     5687779.353 6   5102068.083 1
  20216767.728   -10907045.648 7   1757635.290 2
  22240483.462   -10096073.153 6  -6594651.565 1
  19475442.259   -27504288.044 7       390.985 2
  19592041.938   -25278287.077 7 -19207072.046 2
 90 10 17 13 58 29.9970000  0  5 02 06 12 13 09
  21974913.446     5712009.689 6   5120948.784 1
  20221522.345   -10882060.635 7   1777104.087 3
  22230398.228   -10149075.325 6  -6635951.987 1
  19475559.204   -27503676.964 7       867.125 1
  19588459.415   -25297112.408 7 -19221741.161 2
 90 10 17 13 58 44.9970000  0  5 02 06 12 13 09
  21979530.579     5736289.942 6   5139868.365 1
  20226302.978   -10856941.493 7   1796677.396 3
  22220319.860   -10202030.087 6  -6677215.465 1
  19475695.540   -27502949.831 7      1433.695 1
  19584905.235   -25315792.160 7 -19236296.837 2
 90 10 17 13 58 59.9970000  0  5 02 06 12 13 09
  21984164.228     5760624.966 6   5158830.631 1
  20231108.423   -10831683.797 7   1816358.666 3
  22210254.618   -10254932.121 6  -6718437.860 1
  19475857.806   -27502102.046 7      2094.272 1
  19581378.493   -25334321.330 7 -19250735.182 2
 90 10 17 13 59 14.9970000  0  5 02 06 12 13 09
  21988804.884     5785010.821 6   5177832.507 1
  20235941.142   -10806291.676 7   1836144.686 3
  22200195.399   -10307785.299 6  -6759622.176 1
  19476041.501   -27501137.963 7      2845.472 2
  19577881.532   -25352704.018 7 -19265059.378 2
 90 10 17 13 59 29.9970000  0  5 02 06 12 13 09
  21993452.407     5809443.778 6   5196871.081 1
  20240798.704   -10780769.198 7   1856032.278 3
  22190145.540   -10360593.094 6  -6800771.133 1
  19476246.267   -27500061.745 7      3684.053 1
  19574410.321   -25370943.591 7 -19279272.058 2
 90 10 17 13 59 44.9970000  0  5 02 06 12 13 09
  21998111.798     5833924.975 6   5215947.242 1
  20245679.579   -10755115.018 7   1876022.501 3
  22180106.970   -10413353.970 6  -6841883.520 1
  19476473.446   -27498872.503 7      4610.711 1
  19570966.962   -25389038.547 7 -19293372.052 2
 90 10 17 13 59 59.9970000  0  5 02 06 12 13 09
  22002783.048     5858461.414 6   5235066.463 1
  20250588.196   -10729322.563 7   1896120.467 3
  22170077.673   -10466060.552 6  -6882953.617 1
  19476721.290   -27497563.274 7      5630.865 1
  19567552.337   -25406981.761 7 -19307353.805 2
 90 10 17 14  0 14.9970000  0  5 02 06 12 13 09
  22007463.196     5883045.554 6   5254222.844 1
  20255520.134   -10703399.376 7   1916320.300 3
  22160057.431   -10518720.067 6  -6923987.034 1
  19476991.368   -27496141.987 7      6738.326 1
  19564166.103   -25424780.573 7 -19321223.033 2
 90 10 17 14  0 29.9970000  0  5 02 06 12 13 09
  22012151.188     5907683.802 6   5273421.381 1
  20260480.587   -10677339.325 7   1936626.788 3
  22150045.212   -10571325.944 6  -6964978.655 1
  19477285.712   -27494602.285 7      7938.076 1
  19560807.939   -25442428.415 7 -19334974.630 1
 90 10 17 14  0 44.9970000  0  5 02 06 12 13 09
  22016847.923     5932371.306 6   5292658.315 1
  20265463.892   -10651147.403 7   1957036.025 3
  22140044.478   -10623882.479 6  -7005931.822 1
  19477599.876   -27492949.425 7      9225.989 2
  19557477.579   -25459929.877 7 -19348612.163 2
 90 10 17 14  0 59.9970000  0  5 02 06 12 13 09
  22021555.829     5957112.104 6   5311936.757 1
  20270474.712   -10624819.640 7   1977551.116 3
  22130052.556   -10676385.387 6  -7046843.201 1
  19477936.220   -27491179.588 7     10605.058 1
  19554174.267   -25477280.634 7 -19362132.254 2
 90 10 17 14  1 14.9970000  0  5 02 06 12 13 09
  22026274.337     5981902.871 6   5331254.134 1
  20275508.978   -10598359.646 7   1998169.240 3
  22120071.353   -10728837.648 6  -7087715.111 1
  19478294.493   -27489296.243 7     12072.575 1
  19550900.899   -25494483.901 7 -19375537.416 1
 90 10 17 14  1 29.9970000  0  5 02 06 12 13 09
  22031000.493     6006738.868 6   5350606.780 1
  20280569.196   -10571772.148 7   2018886.727 3
  22110098.071   -10781243.690 6  -7128551.005 1
  19478673.087   -27487304.376 7     13624.654 1
  19547654.353   -25511544.176 7 -19388831.168 2
 90 10 17 14  1 44.9970000  0  5 02 06 12 13 09
  22035731.220     6031621.882 6   5369996.035 1
  20285654.032   -10545055.610 7   2039704.760 3
  22100135.079   -10833601.268 6  -7169349.145 1
  19479073.103   -27485202.581 7     15262.390 1
  19544436.845   -25528459.405 7 -19402011.890 2
 90 10 17 14  1 59.9970000  0  5 02 06 12 13 09
  22040476.704     6056555.114 6   5389424.446 1
  20290764.095   -10518206.925 7   2060625.765 3
  22090182.267   -10885906.992 6  -7210106.883 1
  19479495.181   -27482987.885 7     16988.105 1
  19541245.837   -25545226.137 7 -19415076.910 2
 90 10 17 14  2 14.9970000  0  5 02 06 12 13 09
  22045234.704     6081543.066 6   5408895.475 1
  20295897.251   -10491222.010 7   2081652.917 3
  22080241.001   -10938156.065 6  -7250820.473 1
  19479938.821   -27480655.998 7     18805.132 1
  19538083.282   -25561840.001 7 -19428022.808 2
 90 10 17 14  2 29.9970000  0  5 02 06 12 13 09
  22049997.274     6106579.116 6   5428403.984 1
  20301058.485   -10464107.609 7   2102780.971 3
  22070306.767   -10990354.763 6  -7291494.810 1
  19480405.110   -27478213.853 7     20708.078 2
  19534949.595   -25578307.104 7 -19440854.341 2
 90 10 17 14  2 44.9970000  0  5 02 06 12 13 09
  22054772.181     6131670.031 6   5447955.256 1
  20306243.978   -10436857.182 7   2124015.021 3
  22060385.235   -11042495.934 6  -7332124.315 1
  19480890.415   -27475655.119 7     22701.874 1
  19531846.032   -25594620.710 7 -19453566.267 2
 90 10 17 14  2 59.9970000  0  5 02 06 12 13 09
  22059557.064     6156810.554 6   5467545.176 1
  20311454.251   -10409476.014 7   2145350.945 3
  22050471.626   -11094584.537 6  -7372712.867 1
  19481399.384   -27472985.128 7     24782.354 1
  19528769.837   -25610785.858 7 -19466162.515 2
 90 10 17 14  3 14.9970000  0  5 02 06 12 13 09
  22064350.306     6182005.183 6   5487177.257 1
  20316690.931   -10381959.831 7   2166792.073 3
  22040570.884   -11146615.711 6  -7413256.658 1
  19481928.985   -27470199.564 7     26952.897 1
  19525722.790   -25626797.590 7 -19478639.213 2
 90 10 17 14  3 29.9970000  0  5 02 06 12 13 09
  22069155.024     6207243.591 6   5506843.459 1
  20321949.165   -10354319.059 7   2188330.291 3
  22030677.720   -11198599.363 6  -7453763.434 1
  19482478.899   -27467308.823 7     29205.393 1
  19522702.564   -25642666.326 7 -19491004.494 2
 90 10 17 14  3 44.9970000  0  5 02 06 12 13 09
  22073964.532     6232535.459 6   5526551.304 1
  20327235.189   -10326544.327 7   2209972.886 3
  22020799.618   -11250525.584 6  -7494225.452 1
  19483051.259   -27464303.917 7     31546.852 2
  19519712.032   -25658381.938 7 -19503250.451 2
 90 10 17 14  3 59.9970000  0  5 02 06 12 13 09
  22078789.290     6257875.137 6   5546296.413 1
  20332544.759   -10298641.405 7   2231715.368 3
  22010927.337   -11302399.788 6  -7534646.934 1
  19483643.337   -27461190.498 7     33972.867 1
  19516750.540   -25673950.044 7 -19515381.478 2
 90 10 17 14  4 14.9970000  0  5 02 06 12 13 09
  22083620.798     6283265.732 6   5566081.195 1
  20337879.688   -10270607.229 7   2253560.131 3
  22001066.603   -11354218.383 6  -7575025.093 1
  19484256.728   -27457965.787 7     36485.605 1
  19513817.720   -25689367.101 7 -19527394.801 1
 90 10 17 14  4 29.9970000  0  5 02 06 12 13 09
  22088460.915     6308706.240 6   5585904.859 1
  20343238.814   -10242443.068 7   2275506.179 3
  21991215.360   -11405981.958 6  -7615360.370 1
  19484890.626   -27454630.941 7     39084.154 2
  19510912.220   -25704634.174 7 -19539291.247 1
 90 10 17 14  4 44.9970000  0  5 02 06 12 13 09
  22093314.243     6334195.503 6   5605766.530 1
  20348623.634   -10214150.265 7   2297552.468 3
  21981375.493   -11457691.380 6  -7655653.452 1
  19485546.892   -27451187.372 7     41767.421 1
  19508035.720   -25719752.212 7 -19551071.566 2
 90 10 17 14  4 59.9970000  0  5 02 06 12 13 09
  22098171.524     6359735.694 6   5625667.864 1
  20354033.368   -10185726.932 7   2319700.471 3
  21971548.220   -11509344.291 6  -7695902.501 1
  19486223.384   -27447633.342 7     44536.770 1
  19505186.353   -25734718.656 7 -19562733.753 2
 90 10 17 14  5 14.9970000  0  5 02 06 12 13 09
  22103039.446     6385326.235 6   5645608.462 1
  20359466.103   -10157173.852 7   2341949.576 3
  21961730.540   -11560940.902 6  -7736107.677 1
  19486919.126   -27443969.714 7     47391.515 1
  19502367.767   -25749534.351 7 -19574278.475 1
 90 10 17 14  5 29.9970000  0  5 02 06 12 13 09
  22107919.501     6410962.739 6   5665584.854 1
  20364923.157   -10128495.563 7   2364296.244 3
  21951920.931   -11612485.273 6  -7776272.146 1
  19487637.681   -27440201.356 7     50327.867 2
  19499575.868   -25764203.256 7 -19585708.822 2
 90 10 17 14  5 44.9970000  0  5 02 06 12 13 09
  22112806.985     6436650.565 6   5685601.233 1
  20370404.751   -10099686.948 7   2386744.464 3
  21942122.329   -11663971.705 6  -7816391.474 1
  19488375.134   -27436323.008 7     53349.926 2
  19496813.540   -25778719.756 7 -19597020.403 1
 90 10 17 14  5 59.9970000  0  5 02 06 12 13 09
  22117707.735     6462387.222 6   5705655.670 1
  20375911.540   -10070750.417 7   2409292.358 2
  21932334.985   -11715402.220 6  -7856467.227 1
  19489133.142   -27432337.170 7     56455.737 1
  19494080.095   -25793086.061 7 -19608214.950 1
 90 10 17 14  6 14.9970000  0  5 02 06 12 13 09
  22122612.774     6488169.159 6   5725745.390 1
  20381440.923   -10041690.133 7   2431936.679 3
  21922557.001   -11766780.202 6  -7896502.049 1
  19489913.017   -27428247.964 7     59642.104 1
  19491373.040   -25807305.819 7 -19619295.306 2
 90 10 17 14  6 29.9970000  0  5 02 06 12 13 09
  22127528.978     6514000.063 6   5745873.262 1
  20386995.509   -10012502.278 7   2454680.409 3
  21912793.423   -11818101.469 6  -7936492.674 1
  19490710.446   -27424051.780 7     62911.835 2
  19488696.220   -25821375.035 7 -19630258.357 1
 90 10 17 14  6 44.9970000  0  5 02 06 12 13 09
  22132452.954     6539881.689 6   5766040.654 1
  20392574.915    -9983185.423 7   2477524.659 3
  21903036.712   -11869363.890 6  -7976437.451 1
  19491530.040   -27419747.134 7     66266.068 2
  19486047.923   -25835291.694 7 -19641102.535 1
 90 10 17 14  6 59.9970000  0  5 02 06 12 13 09
  22137390.337     6565821.465 6   5786253.360 1
  20398179.712    -9953732.347 7   2500475.055 3
  21893294.384   -11920559.793 6  -8016330.395 1
  19492370.353   -27415326.894 7     69710.383 1
  19483430.821   -25849048.388 7 -19651822.066 2
 90 10 17 14  7 14.9970000  0  5 02 06 12 13 09
  22142336.056     6591807.072 6   5806501.780 1
  20403807.017    -9924155.515 7   2523521.882 3
  21883563.642   -11971701.116 6  -8056180.813 1
  19493231.103   -27410803.606 7     73234.991 1
  19480841.431   -25862657.198 7 -19662426.363 1
 90 10 17 14  7 29.9970000  0  5 02 06 12 13 09
  22147290.548     6617841.333 6   5826788.106 1
  20409459.626    -9894452.306 7   2546667.182 3
  21873842.243   -12022784.755 6  -8095986.275 1
  19494112.173   -27406174.735 7     76841.872 2
  19478279.579   -25876114.988 7 -19672912.985 2
 90 10 17 14  7 44.9970000  0  5 02 06 12 13 09
  22152251.704     6643925.555 6   5847113.359 1
  20415137.860    -9864621.546 7   2569911.882 3
  21864133.806   -12073808.880 6  -8135745.365 1
  19495014.079   -27401439.129 7     80531.924 2
  19475747.524   -25889420.359 7 -19683280.833 2
 90 10 17 14  7 59.9970000  0  5 02 06 12 13 09
  22157227.946     6670059.567 6   5867477.422 1
  20420837.384    -9834663.660 7   2593255.631 3
  21854434.954   -12124773.453 6  -8175458.056 1
  19495935.298   -27396597.371 7     84304.695 2
  19473244.868   -25902573.274 7 -19693529.884 1
 90 10 17 14  8 14.9970000  0  5 02 06 12 13 09
  22162208.009     6696250.753 6   5887886.033 1
  20426564.642    -9804571.429 7   2616704.070 3
  21844747.454   -12175670.849 6  -8215118.393 1
  19496877.845   -27391642.337 7     88165.731 2
  19470773.923   -25915566.158 7 -19703654.232 1
 90 10 17 14  8 29.9970000  0  5 02 06 12 13 09
  22167207.579     6722486.684 6   5908329.509 1
  20432313.196    -9774357.689 7   2640247.183 3
  21835075.196   -12226513.165 6  -8254735.809 1
  19497840.884   -27386586.749 7     92105.116 1
  19468327.689   -25928411.306 7 -19713663.477 1
 90 10 17 14  8 44.9970000  0  5 02 06 12 13 09
  22172203.868     6748774.105 6   5928813.108 1
  20438087.017    -9744015.618 7   2663890.302 2
  21825413.110   -12277293.183 6  -8294304.675 1
  19498821.767   -27381424.177 7     96127.871 1
  19465914.040   -25941101.949 7 -19723552.309 2
 90 10 17 14  8 59.9970000  0  5 02 06 12 13 09
  22177216.728     6775115.318 6   5949338.620 1
  20443887.657    -9713543.320 7   2687634.897 2
  21815761.759   -12328008.245 6  -8333822.931 1
  19499826.204   -27376152.433 7    100235.693 2
  19463528.274   -25953635.615 7 -19733318.824 1
 90 10 17 14  9 14.9970000  0  5 02 06 12 13 09
  22182240.493     6801504.887 6   5969901.823 1
  20449709.001    -9682946.426 7   2711476.576 2
  21806121.056   -12378663.488 6  -8373294.582 1
  19500847.853   -27370777.313 7    104424.069 1
  19461172.884   -25966017.314 7 -19742966.926 2
 90 10 17 14  9 29.9970000  0  5 02 06 12 13 09
  22187272.759     6827942.283 6   5990502.272 1
  20455554.220    -9652225.661 7   2735414.780 2
  21796493.360   -12429259.102 6  -8412719.770 1
  19501891.673   -27365299.520 7    108692.447 1
  19458844.767   -25978247.566 7 -19752497.020 2
 90 10 17 14  9 44.9970000  0  5 02 06 12 13 09
  22192311.837     6854431.410 6   6011143.053 1
  20461425.212    -9621377.278 7   2759452.421 2
  21786878.821   -12479790.958 6  -8452095.270 1
  19502952.634   -27359715.473 7    113043.624 1
  19456547.735   -25990322.384 7 -19761905.992 2
 90 10 17 14  9 59.9970000  0  5 02 06 12 13 09
  22197364.642     6880981.575 6   6031831.389 1
  20467322.134    -9590392.064 7   2783596.687 2
  21777276.595   -12530249.234 6  -8491413.440 1
  19504038.126   -27354016.221 7    117484.562 2
  19454279.681   -26002232.294 7 -19771186.470 1
 90 10 17 14 10 14.9970000  0  5 02 06 12 13 09
  22202423.063     6907578.677 6   6052556.294 1
  20473241.337    -9559284.518 7   2807836.277 2
  21767684.665   -12580647.696 6  -8530684.998 1
  19505141.774   -27348216.091 7    122004.105 1
  19452042.782   -26013990.916 7 -19780349.062 1
 90 10 17 14 10 29.9970000  0  5 02 06 12 13 09
  22207496.782     6934231.349 6   6073324.511 1
  20479185.470    -9528046.084 7   2832177.852 2
  21758109.478   -12630977.366 6  -8569902.946 1
  19506265.876   -27342306.664 7    126608.824 2
  19449835.501   -26025589.745 7 -19789387.140 2
 90 10 17 14 10 44.9970000  0  5 02 06 12 13 09
  22212578.634     6960937.630 6   6094134.484 1
  20485154.876    -9496678.965 7   2856619.708 2
  21748543.274   -12681239.782 6  -8609068.493 1
  19507411.767   -27336290.206 7    131296.940 2
  19447658.728   -26037030.692 7 -19798302.181 1
 90 10 17 14 10 59.9970000  0  5 02 06 12 13 09
  22217668.821     6987686.227 6   6114977.437 1
  20491146.212    -9465194.777 7   2881152.781 2
  21738989.243   -12731445.970 6  -8648190.228 1
  19508574.743   -27330178.366 7    136059.380 2
  19445510.595   -26048324.656 7 -19807102.702 1
 90 10 17 14 11 14.9970000  0  5 02 06 12 13 09
  22222768.985     7014479.562 6   6135855.257 1
  20497159.392    -9433591.235 7   2905778.867 2
  21729447.931   -12781593.147 6  -8687265.974 1
  19509756.548   -27323968.838 7    140897.940 2
  19443388.540   -26059469.111 7 -19815786.718 1
 90 10 17 14 11 29.9970000  0  5 02 06 12 13 09
  22227877.970     7041323.528 6   6156772.540 1
  20503197.298    -9401862.792 7   2930502.269 2
  21719915.899   -12831675.136 6  -8726290.930 1
  19510957.728   -27317656.288 7    145816.778 1
  19441298.032   -26070458.187 7 -19824349.662 1
 90 10 17 14 11 44.9970000  0  5 02 06 12 13 09
  22232995.853     7068228.269 6   6177737.158 1
  20509260.509    -9369999.202 7   2955330.982 2
  21710400.274   -12881681.239 6  -8765256.752 1
  19512180.853   -27311230.478 7    150823.867 2
  19439238.345   -26081281.278 7 -19832783.264 2
 90 10 17 14 11 59.9970000  0  5 02 06 12 13 09
  22238124.079     7095182.664 6   6198740.483 1
  20515348.556    -9338012.154 7   2980255.896 2
  21700899.079   -12931622.438 6  -8804172.002 1
  19513422.524   -27304703.096 7    155910.107 2
  19437208.399   -26091949.575 7 -19841096.247 1
 90 10 17 14 12 14.9970000  0  5 02 06 12 13 09
  22243264.493     7122187.168 6   6219782.854 1
  20521459.392    -9305901.005 7   3005277.514 2
  21691405.853   -12981497.831 6  -8843035.968 1
  19514684.376   -27298073.873 7    161075.701 2
  19435209.063   -26102462.525 7 -19849288.177 1
 90 10 17 14 12 29.9970000  0  5 02 06 12 13 09
  22248411.415     7149239.389 5   6240862.400 1
  20527591.048    -9273668.678 7   3030393.553 2
  21681926.446   -13031309.527 6  -8881850.306 1
  19515963.454   -27291345.319 7    166318.700 2
  19433236.556   -26112822.280 7 -19857360.743 1
 90 10 17 14 12 44.9970000  0  5 02 06 12 13 09
  22253569.399     7176343.013 6   6261982.000 1
  20533750.860    -9241311.662 7   3055606.756 2
  21672461.907   -13081053.541 6  -8920611.902 1
  19517264.454   -27284514.219 7    171641.602 2
  19431295.306   -26123024.954 7 -19865310.903 1
 90 10 17 14 12 59.9970000  0  5 02 06 12 13 09
  22258740.024     7203500.657 6   6283143.704 1
  20539930.556    -9208827.533 7   3080919.004 2
  21663010.298   -13130726.871 6  -8959318.415 1
  19518583.767   -27277578.085 7    177046.348 2
  19429383.548   -26133067.717 7 -19873136.461 1
 90 10 17 14 13 14.9970000  0  5 02 06 12 13 09
  22263915.243     7230709.204 6   6304345.068 1
  20546135.868    -9176219.667 7   3106327.680 2
  21653569.079   -13180332.339 6  -8997972.062 1
  19519924.001   -27270540.479 7    182530.168 2
  19427503.899   -26142953.915 7 -19880840.014 1
 90 10 17 14 13 29.9970000  0  5 02 06 12 13 09
  22269104.978     7257968.978 6   6325586.344 1
  20552364.157    -9143487.676 7   3131833.064 2
  21644143.079   -13229869.007 6  -9036572.084 1
  19521281.517   -27263400.954 7    188093.401 2
  19425651.228   -26152682.493 7 -19888420.759 1
 90 10 17 14 13 44.9970000  0  5 02 06 12 13 09
  22274301.704     7285276.709 6   6346864.983 1
  20558616.274    -9110635.353 6   3157432.225 2
  21634728.556   -13279340.045 6  -9075120.978 1
  19522659.110   -27256163.276 7    193733.112 2
  19423830.118   -26162256.959 7 -19895881.407 1
 90 10 17 14 13 59.9970000  0  5 02 06 12 13 09
  22279502.782     7312630.398 5   6368179.440 1
  20564892.470    -9077664.910 7   3183123.417 2
  21625326.868   -13328747.036 6  -9113619.956 1
  19524055.626   -27248829.664 7    199447.583 2
  19422036.728   -26171679.232 7 -19903223.465 1
 90 10 17 14 14 14.9970000  0  5 02 06 12 13 09
  22284718.368     7340029.595 5   6389529.368 1
  20571185.767    -9044576.985 7   3208906.152 2
  21615937.931   -13378089.956 6  -9152069.011 1
  19525468.985   -27241401.039 7    205236.089 2
  19420271.634   -26180949.435 7 -19910447.026 2
 90 10 17 14 14 29.9970000  0  5 02 06 12 13 09
  22289943.829     7367479.898 6   6410919.108 1
  20577508.462    -9011366.119 7   3234784.702 2
  21606562.103   -13427362.872 6  -9190463.522 1
  19526902.970   -27233872.056 7    211102.796 2
  19418537.720   -26190061.923 7 -19917547.691 1
 90 10 17 14 14 44.9970000  0  5 02 06 12 13 09
  22295176.899     7394984.917 6   6432351.492 1
  20583850.978    -8978028.953 7   3260761.647 2
  21597197.962   -13476561.933 6  -9228800.477 1
  19528353.899   -27226239.316 7    217050.351 2
  19416835.024   -26199012.837 7 -19924522.459 2
 90 10 17 14 14 59.9970000  0  5 02 06 12 13 09
  22300419.689     7422539.860 5   6453822.759 1
  20590218.720    -8944570.564 7   3286833.064 2
  21587850.087   -13525691.574 6  -9267083.342 1
  19529825.517   -27218507.872 7    223074.813 2
  19415162.431   -26207806.857 7 -19931374.966 1
 90 10 17 14 15 14.9970000  0  5 02 06 12 13 09
  22305674.907     7450151.361 5   6475338.118 1
  20596610.321    -8910984.390 7   3313004.048 2
  21578514.954   -13574744.673 6  -9305306.559 1
  19531316.954   -27210671.259 7    229181.233 2
  19413520.188   -26216437.382 7 -19938100.082 1
 90 10 17 14 15 29.9970000  0  5 02 06 12 13 09
  22310940.110     7477811.542 5   6496891.400 1
  20603024.493    -8877278.604 7   3339268.236 2
  21569195.423   -13623728.746 6  -9343475.996 1
  19532827.126   -27202737.784 7    235363.134 1
  19411905.938   -26224911.830 7 -19944703.574 1
 90 10 17 14 15 44.9970000  0  5 02 06 12 13 09
  22316210.954     7505517.029 5   6518479.977 1
  20609459.204    -8843456.922 6   3365622.735 2
  21559886.485   -13672646.961 6  -9381594.115 1
  19534353.556   -27194710.966 7    241617.757 2
  19410324.134   -26233233.795 7 -19951188.250 2
 90 10 17 14 15 59.9970000  0  5 02 06 12 13 09
  22321488.595     7533274.796 5   6540109.287 1
  20615918.962    -8809512.592 7   3392072.806 2
  21550590.813   -13721491.890 6  -9419655.124 1
  19535900.415   -27186583.997 7    247950.425 2
  19408769.884   -26241395.892 7 -19957548.353 1
 90 10 17 14 16 14.9970000  0  5 02 06 12 13 09
  22326783.720     7561087.774 5   6561781.637 1
  20622402.235    -8775442.809 7   3418620.625 2
  21541309.415   -13770260.213 6  -9457656.440 1
  19537465.728   -27178354.554 7    254362.947 2
  19407248.220   -26249395.301 7 -19963781.690 1
 90 10 17 14 16 29.9970000  0  5 02 06 12 13 09
  22332088.212     7588948.908 5   6583491.510 1
  20628907.782    -8741254.975 6   3445260.440 2
  21532042.790   -13818958.774 6  -9495603.404 1
  19539051.024   -27170029.819 7    260849.718 2
  19405755.165   -26257239.020 7 -19969893.707 1
 90 10 17 14 16 44.9970000  0  5 02 06 12 13 09
  22337399.454     7616855.250 5   6605236.584 1
  20635436.938    -8706952.028 7   3471989.953 2
  21522788.751   -13867590.004 6  -9533497.887 1
  19540652.009   -27161612.929 7    267408.298 2
  19404292.696   -26264929.323 7 -19975886.175 1
 90 10 17 14 16 59.9970000  0  5 02 06 12 13 09
  22342717.767     7644811.918 5   6627020.891 1
  20641985.415    -8672529.295 7   3498812.792 2
  21513548.931   -13916148.448 6  -9571335.655 1
  19542272.985   -27153098.967 7    274042.519 2
  19402857.626   -26272461.476 7 -19981755.412 1
 90 10 17 14 17 14.9970000  0  5 02 06 12 13 09
  22348048.314     7672818.592 5   6648844.152 1
  20648558.642    -8637987.233 6   3525728.632 2
  21504320.868   -13964634.050 6  -9609116.668 1
  19543910.845   -27144488.685 7    280751.793 2
  19401455.524   -26279835.363 7 -19987501.326 1
 90 10 17 14 17 29.9970000  0  5 02 06 12 13 09
  22353387.204     7700876.888 5   6670707.649 1
  20655155.946    -8603324.468 6   3552738.516 2
  21495110.540   -14013044.928 6  -9646839.462 1
  19545567.017   -27135780.678 7    287537.218 2
  19400083.274   -26287049.430 7 -19993122.704 1
 90 10 17 14 17 44.9970000  0  5 02 06 12 13 09
  22358737.556     7728991.585 5   6692615.095 1
  20661775.860    -8568536.636 6   3579845.857 2
  21485912.181   -14061375.918 6  -9684500.006 1
  19547243.759   -27126970.552 7    294402.219 2
  19398740.009   -26294098.832 7 -19998615.767 1
 90 10 17 14 17 59.9970000  0  5 02 06 12 13 09
  22364093.228     7757151.530 5   6714557.788 1
  20668416.571    -8533634.875 6   3607041.971 2
  21476729.149   -14109637.751 6  -9722106.655 1
  19548938.431   -27118069.485 7    301338.082 2
  19397429.478   -26300994.581 7 -20003989.111 2
 90 10 17 14 18 14.9970000  0  5 02 06 12 13 09
  22369464.767     7785362.840 5   6736540.514 1
  20675081.423    -8498613.516 6   3634331.286 2
  21467558.415   -14157824.066 6  -9759654.453 1
  19550649.962   -27109071.794 7    308349.234 2
  19396147.306   -26307730.445 7 -20009237.860 1
 90 10 17 14 18 29.9970000  0  5 02 06 12 13 09
  22374841.860     7813622.220 5   6758560.695 1
  20681768.189    -8463476.054 6   3661711.065 2
  21458403.829   -14205937.832 6  -9797145.727 1
  19552380.212   -27099981.259 7    315432.737 2
  19394895.415   -26314309.615 7 -20014364.514 1
 90 10 17 14 18 44.9970000  0  5 02 06 12 13 09
  22380234.603     7841938.497 5   6780625.205 1
  20688478.110    -8428213.724 6   3689188.145 2
  21449263.001   -14253969.613 6  -9834573.117 1
  19554130.181   -27090789.048 7    322595.469 2
  19393674.345   -26320722.906 7 -20019361.909 1
 90 10 17 14 18 59.9970000  0  5 02 06 12 13 09
  22385629.368     7870304.827 5   6802728.723 1
  20695209.993    -8392833.837 6   3716756.830 2
  21440137.743   -14301926.069 6  -9871941.807 1
  19555897.540   -27081502.422 7    329831.765 2
  19392484.478   -26326977.266 7 -20024235.462 1
 90 10 17 14 19 14.9970000  0  5 02 06 12 13 09
  22391036.103     7898714.729 5   6824866.188 1
  20701965.079    -8357343.176 6   3744411.833 2
  21431024.071   -14349813.499 6  -9909256.722 1
  19557681.063   -27072128.290 7    337136.249 2
  19391323.181   -26333079.210 7 -20028990.255 1
 90 10 17 14 19 29.9970000  0  5 02 06 12 13 09
  22396452.267     7927181.219 5   6847047.753 1
  20708741.040    -8321728.832 6   3772163.210 2
  21421928.204   -14397618.325 6  -9946507.266 1
  19559483.860   -27062653.750 7    344518.966 2
  19390193.095   -26339015.448 7 -20033615.914 1
 90 10 17 14 19 44.9970000  0  5 02 06 12 13 09
  22401877.845     7955696.804 5   6869267.575 1
  20715540.899    -8285998.556 6   3800004.922 2
  21412846.556   -14445347.624 6  -9983698.951 1
  19561304.892   -27053086.612 7    351973.844 2
  19389093.751   -26344793.460 7 -20038118.288 1
 90 10 17 14 19 59.9970000  0  5 02 06 12 13 09
  22407313.306     7984267.185 5   6891530.086 1
  20722363.688    -8250146.824 6   3827941.277 2
  21403778.157   -14492995.440 6 -10020827.143 1
  19563144.087   -27043421.439 7    359505.118 2
  19388026.235   -26350407.348 7 -20042492.772 1
 90 10 17 14 20 14.9970000  0  5 02 06 12 13 09
  22412762.579     8012891.498 5   6913834.636 1
  20729209.345    -8214174.683 6   3855971.458 2
  21394727.087   -14540562.094 6 -10057892.090 1
  19565000.470   -27033659.214 7    367112.010 2
  19386989.314   -26355857.883 7 -20046739.967 1
 90 10 17 14 20 29.9970000  0  5 02 06 12 13 09
  22418216.509     8041564.728 5   6936177.292 1
  20736076.431    -8178087.484 6   3884091.289 2
  21385689.040   -14588052.313 6 -10094897.483 1
  19566875.603   -27023805.146 7    374790.474 2
  19385982.696   -26361149.656 7 -20050863.455 2
 90 10 17 14 20 44.9970000  0  5 02 06 12 13 09
  22423684.220     8070287.866 5   6958558.831 1
  20742965.009    -8141884.300 6   3912301.505 2
  21376667.571   -14635464.591 6 -10131842.142 1
  19568768.415   -27013858.372 7    382541.171 2
  19385005.579   -26366281.884 7 -20054862.619 1
 90 10 17 14 20 59.9970000  0  5 02 06 12 13 09
  22429157.110     8099061.813 5   6980979.979 1
  20749877.798    -8105564.715 6   3940602.420 2
  21367659.126   -14682797.819 6 -10168725.202 1
  19570679.353   -27003818.639 7    390364.310 2
  19384059.470   -26371253.498 7 -20058736.633 1
 90 10 17 14 21 14.9970000  0  5 02 06 12 13 09
  22434645.946     8127881.762 5   7003436.965 1
  20756811.399    -8069133.608 6   3968990.231 2
  21358666.313   -14730056.322 6 -10205550.033 1
  19572607.337   -26993690.955 7    398255.977 2
  19383142.798   -26376069.342 7 -20062489.267 1
 90 10 17 14 21 29.9970000  0  5 02 06 12 13 09
  22440141.462     8156749.719 5   7025931.349 1
  20763763.884    -8032589.408 6   3997466.175 2
  21349689.696   -14777237.911 6 -10242314.930 1
  19574551.829   -26983473.674 7    406217.459 2
  19382256.939   -26380727.301 7 -20066118.872 1
 90 10 17 14 21 44.9970000  0  5 02 06 12 13 09
  22445640.649     8185668.204 5   7048465.115 1
  20770739.056    -7995929.794 6   4026032.049 2
  21340726.517   -14824339.666 6 -10279017.623 1
  19576512.735   -26973164.248 7    414250.746 2
  19381400.243   -26385224.505 7 -20069623.216 1
 90 10 17 14 21 59.9970000  0  5 02 06 12 13 09
  22451154.415     8214637.097 5   7071038.163 1
  20777738.579    -7959155.073 6   4054687.615 2
  21331776.720   -14871361.368 6 -10315657.933 1
  19578492.360   -26962763.392 7    422355.276 2
  19380575.595   -26389561.077 7 -20073002.393 1
 90 10 17 14 22 14.9970000  0  5 02 06 12 13 09
  22456676.657     8243655.566 5   7093649.834 1
  20784757.642    -7922266.394 6   4083431.982 2
  21322843.071   -14918303.466 6 -10352236.218 1
  19580489.634   -26952271.996 7    430530.353 2
  19379780.884   -26393738.024 7 -20076257.188 1
 90 10 17 14 22 29.9960000  0  5 02 06 12 13 09
  22462206.121     8272722.292 5   7116299.094 1
  20791797.559    -7885265.704 6   4112263.626 2
  21313928.832   -14965161.781 6 -10388749.206 1
  19582502.684   -26941690.271 7    438775.816 2
  19379016.348   -26397753.892 7 -20079386.467 1
 90 10 17 14 22 44.9960000  0  5 02 06 12 13 09
  22467744.637     8301837.668 5   7138986.287 1
  20798861.270    -7848151.905 6   4141183.408 2
  21305025.965   -15011945.702 6 -10425204.238 1
  19584532.621   -26931020.856 7    447089.618 2
  19378281.684   -26401612.953 7 -20082393.560 1
 90 10 17 14 22 59.9960000  0  5 02 06 12 13 09
  22473298.340     8331005.140 5   7161714.068 1
  20805946.059    -7810922.230 6   4170193.479 2
  21296139.316   -15058646.197 6 -10461594.257 1
  19586581.496   -26920259.393 7    455475.138 2
  19377579.012   -26405309.336 7 -20085273.892 2
 90 10 17 14 23 14.9960000  0  5 02 06 12 13 09
  22478862.441     8360220.219 5   7184478.922 1
  20813051.668    -7773581.505 6   4199290.089 2
  21287267.137   -15105267.463 6 -10497922.542 1
  19588646.020   -26909410.495 7    463928.785 2
  19376905.535   -26408847.447 7 -20088030.892 2
 90 10 17 14 23 29.9960000  0  5 02 06 12 13 09
  22484429.480     8389486.967 5   7207284.052 1
  20820178.356    -7736126.008 6   4228476.127 2
  21278411.887   -15151805.207 6 -10534185.747 1
  19590727.652   -26898470.473 7    472453.441 2
  19376263.262   -26412223.321 7 -20090661.477 1
 90 10 17 14 23 44.9960000  0  5 02 06 12 13 09
  22490003.332     8418800.759 5   7230125.847 1
  20827327.645    -7698560.542 6   4257747.847 2
  21269571.106   -15198263.679 6 -10570387.179 1
  19592825.879   -26887444.289 7    481045.237 2
  19375649.840   -26415441.249 7 -20093168.985 1
 90 10 17 14 23 59.9960000  0  5 02 06 12 13 09
  22495592.746     8448160.879 5   7253003.739 1
  20834496.129    -7660886.133 6   4287104.469 2
  21260745.277   -15244643.292 6 -10606527.159 1
  19594940.527   -26876332.758 7    489703.534 2
  19375067.777   -26418501.932 7 -20095553.962 2
 90 10 17 14 24 14.9960000  0  5 02 06 12 13 09
  22501192.496     8477568.951 5   7275918.991 1
  20841687.902    -7623101.365 6   4316547.080 2
  21251934.645   -15290941.811 6 -10642603.953 1
  19597070.996   -26865134.762 7    498429.213 2
  19374516.473   -26421403.755 7 -20097815.157 1
 90 10 17 14 24 29.9960000  0  5 02 06 12 13 09
  22506797.059     8507026.949 5   7298873.152 1
  20848897.496    -7585204.341 6   4346077.161 2
  21243140.801   -15337156.945 7 -10678615.765 1
  19599218.035   -26853848.273 7    507223.841 2
  19373995.621   -26424144.428 7 -20099950.784 1
 90 10 17 14 24 44.9960000  0  5 02 06 12 13 09
  22512404.809     8536536.117 5   7321867.191 1
  20856132.723    -7547194.196 6   4375695.394 2
  21234361.535   -15383287.017 6 -10714561.305 1
  19601383.262   -26842472.261 7    516088.227 2
  19373503.637   -26426722.843 7 -20101959.972 1
 90 10 17 14 24 59.9960000  0  5 02 06 12 13 09
  22518033.395     8566095.454 5   7344900.309 1
  20863385.840    -7509072.340 6   4405400.671 2
  21225599.777   -15429332.822 6 -10750441.171 1
  19603564.941   -26831008.175 7    525021.243 2
  19373044.395   -26429139.916 7 -20103843.441 1
 90 10 17 14 25 14.9960000  0  5 02 06 12 13 09
  22523670.848     8595702.228 5   7367970.407 1
  20870661.254    -7470841.613 6   4435190.782 2
  21216853.262   -15475296.697 6 -10786257.200 1
  19605762.277   -26819459.130 7    534020.460 2
  19372615.449   -26431398.055 7 -20105603.062 1
 90 10 17 14 25 29.9960000  0  5 02 06 12 13 09
  22529314.238     8625354.421 5   7391075.887 1
  20877956.035    -7432504.246 6   4465063.984 2
  21208122.543   -15521180.124 7 -10822010.543 1
  19607975.871   -26807827.276 7    543084.209 2
  19372214.645   -26433499.308 7 -20107240.440 1
 90 10 17 14 25 44.9960000  0  5 02 06 12 13 09
  22534962.988     8655056.651 5   7414220.352 1
  20885272.356    -7394056.097 6   4495023.518 2
  21199405.543   -15566978.369 6 -10857697.509 1
  19610207.129   -26796108.311 7    552215.831 2
  19371845.543   -26435439.133 7 -20108752.024 1
 90 10 17 14 25 59.9960000  0  5 02 06 12 13 09
  22540623.926     8684796.928 5   7437394.457 1
  20892607.840    -7355509.280 6   4525059.934 2
  21190704.457   -15612702.997 6 -10893327.116 1
  19612451.684   -26784314.705 7    561405.617 2
  19371506.098   -26437229.591 7 -20110147.219 2
 90 10 17 14 26 14.9960000  0  5 02 06 12 13 09
  22546296.598     8714591.233 5   7460610.687 1
  20899964.934    -7316848.145 6   4555185.417 2
  21182021.465   -15658337.664 7 -10928886.615 1
  19614712.754   -26772430.451 7    570666.037 2
  19371195.801   -26438854.348 7 -20111413.299 1
 90 10 17 14 26 29.9960000  0  5 02 06 12 13 09
  22551974.035     8744431.391 5   7483862.622 1
  20907342.559    -7278081.019 6   4585393.505 2
  21173352.918   -15703890.071 7 -10964382.029 1
  19616989.777   -26760464.102 7    579990.428 2
  19370916.121   -26440321.646 7 -20112556.684 1
 90 10 17 14 26 44.9960000  0  5 02 06 12 13 09
  22557664.668     8774332.242 5   7507161.841 1
  20914742.949    -7239193.288 6   4615695.563 2
  21164704.387   -15749344.919 7 -10999801.418 1
  19619285.168   -26748401.092 7    589390.145 2
  19370669.965   -26441616.425 7 -20113565.639 1
 90 10 17 14 26 59.9960000  0  5 02 06 12 13 09
  22563363.504     8804282.215 5   7530499.373 1
  20922163.301    -7200196.765 6   4646082.396 2
  21156070.090   -15794713.325 6 -11035153.442 1
  19621596.074   -26736252.997 7    598856.155 2
  19370455.215   -26442750.055 7 -20114449.017 1
 90 10 17 14 27 14.9960000  0  5 02 06 12 13 09
  22569071.481     8834280.582 5   7553874.585 1
  20929605.918    -7161092.309 6   4676553.339 2
  21147453.801   -15839995.727 7 -11070438.456 1
  19623924.809   -26724020.938 7    608387.595 2
  19370270.465   -26443723.386 7 -20115207.492 1
 90 10 17 14 27 29.9960000  0  5 02 06 12 13 09
  22574782.488     8864326.018 5   7577286.483 1
  20937065.699    -7121881.794 6   4707106.914 2
  21138852.465   -15885193.148 7 -11105657.252 1
  19626267.918   -26711706.714 7    617983.062 2
  19370113.012   -26444537.436 7 -20115841.849 1
 90 10 17 14 27 44.9960000  0  5 02 06 12 13 09
  22580515.113     8894409.932 5   7600728.363 1
  20944547.520    -7082574.145 6   4737736.184 2
  21130264.481   -15930314.079 6 -11140816.439 2
  19628625.457   -26699319.202 7    627635.634 2
  19369989.918   -26445201.226 7 -20116359.122 2
 90 10 17 14 27 59.9960000  0  5 02 06 12 13 09
  22586244.512     8924547.761 5   7624212.262 1
  20952047.699    -7043154.099 6   4768453.036 2
  21121696.496   -15975342.703 6 -11175903.696 1
  19630998.754   -26686843.159 7    637357.193 2
  19369891.855   -26445699.256 7 -20116747.233 1
 90 10 17 14 28 14.9960000  0  5 02 06 12 13 09
  22591992.340     8954735.690 5   7647735.184 1
  20959569.301    -7003625.524 6   4799254.453 2
  21113146.246   -16020282.070 7 -11210921.405 2
  19633389.074   -26674282.425 7    647144.744 2
  19369830.238   -26446034.674 7 -20117008.626 1
 90 10 17 14 28 29.9960000  0  5 02 06 12 13 09
  22597748.879     8984972.158 5   7671295.932 1
  20967111.309    -6963990.316 6   4830138.962 2
  21104611.887   -16065133.484 7 -11245870.576 2
  19635795.285   -26661639.103 7    656996.650 2
  19369797.105   -26446209.365 7
 90 10 17 14 28 44.9960000  0  5 02 06 12 13 09
  22603510.605     9015261.355 5   7694897.772 1
  20974676.051    -6924244.720 6   4861109.487 2
  21096094.184   -16109892.495 7 -11280747.753 2
  19638218.184   -26648908.970 7    666916.203 2
  19369794.660   -26446219.180 7
 90 10 17 14 28 59.9960000  0  5 02 06 12 13 09
  22609282.223     9045600.697 5   7718538.698 1
  20982260.035    -6884391.502 6   4892163.877 2
  21087592.551   -16154561.188 7 -11315554.536 2
  19640655.887   -26636095.073 7    676901.026 2
  19369822.129   -26446066.400 7
 90 10 17 14 29 14.9960000  0  5 02 06 12 13 09
  22615063.223     9075986.181 5   7742215.570 1
  20989862.723    -6844434.967 6   4923298.773 2
  21079109.480   -16199143.224 7 -11350293.805 2
  19643110.371   -26623201.757 7    686947.725 2
  19369882.996   -26445755.143 7
 90 10 17 14 29 29.9960000  0  5 02 06 12 13 09
  22620859.582     9106423.270 5   7765932.658 1
  20997488.887    -6804369.841 6   4954518.286 2
  21070642.832   -16243632.636 7 -11384960.897 2
  19645578.957   -26610223.859 7    697060.344 2
  19369973.512   -26445279.922 7
 90 10 17 14 29 44.9960000  0  5 02 06 12 13 09
  22626658.918     9136906.851 5   7789685.963 1
  21005131.051    -6764201.337 6   4985818.345 2
  21062194.301   -16288034.142 7 -11419559.495 2
  19648064.356   -26597166.579 7    707234.815 2
  19370095.387   -26444645.587 7        -0.42212
 90 10 17 14 29 59.9960000  0  5 02 06 12 13 09
  22632465.902     9167443.804 5   7813480.869 1
  21012797.129    -6723923.266 6   5017203.793 2
  21053763.301   -16332340.707 7 -11454084.105 2
  19650564.574   -26584023.577 7    717476.078 2
  19370247.020   -26443845.446 7       623.024 2
 90 10 17 14 30 14.9960000  0  5 02 06 12 13 09
  22638295.176     9198028.770 5   7837313.187 1
  21020480.926    -6683540.958 6   5048670.451 1
  21045348.418   -16376557.235 7 -11488538.563 2
  19653081.652   -26570800.372 7    727779.838 2
  19370429.512   -26442884.682 7      1371.635 2
 90 10 17 14 30 29.9960000  0  5 02 06 12 13 09
  22644118.356     9228655.355 5   7861177.911 1
  21028183.551    -6643061.131 6   5080213.108 2
  21036951.496   -16420689.764 7 -11522927.564 2
  19655611.676   -26557503.342 7    738141.129 2
  19370642.395   -26441769.578 7      2240.508 1
 90 10 17 14 30 44.9960000  0  5 02 06 12 13 09
  22649953.262     9259329.177 5   7885079.472 1
  21035908.231    -6602478.494 6   5111835.878 2
  21028569.270   -16464732.213 7 -11557246.382 2
  19658157.340   -26544127.428 7    748563.893 2
  19370884.629   -26440494.501 7      3234.039 1
 90 10 17 14 30 59.9960000  0  5 02 06 12 13 09
  22655804.988     9290053.310 5   7909020.243 1
  21043649.145    -6561790.041 6   5143541.091 2
  21020207.113   -16508681.027 7 -11591492.228 2
  19660717.652   -26530669.557 7    759050.512 2
  19371157.480   -26439056.377 7      4354.616 1
 90 10 17 14 31 14.9960000  0  5 02 06 12 13 09
  22661659.098     9320822.558 5   7932996.138 1
  21051412.051    -6521001.515 6   5175324.291 1
  21011860.387   -16552541.338 7 -11625669.113 2
  19663293.574   -26517135.402 7    769596.570 2
  19371460.731   -26437460.459 7      5598.158 2
 90 10 17 14 31 29.9960000  0  5 02 06 12 13 09
  22667524.926     9351643.769 5   7957012.515 1
  21059195.043    -6480106.351 6   5207190.587 2
  21003532.355   -16596305.913 7 -11659771.402 2
  19665884.129   -26503518.375 7    780207.204 2
  19371797.199   -26435699.737 7      6970.109 1
 90 10 17 14 31 44.9960000  0  5 02 06 12 13 09
  22673399.863     9382513.665 5   7981066.869 1
  21066995.363    -6439107.971 6   5239137.303 1
  20995222.363   -16639977.481 7 -11693801.217 2
  19668491.512   -26489822.094 7    790879.603 2
  19372162.645   -26433777.601 7      8467.843 2
 90 10 17 14 31 59.9960000  0  5 02 06 12 13 09
  22679282.129     9413436.729 5   8005162.634 1
  21074817.082    -6398002.218 6   5271167.695 1
  20986930.066   -16683551.211 7 -11727754.792 2
  19671112.895   -26476042.235 7    801617.118 2
  19372560.121   -26431689.370 7     10095.004 2
 90 10 17 14 32 14.9960000  0  5 02 06 12 13 09
  22685175.816     9444411.412 5   8029298.621 1
  21082659.512    -6356790.817 6   5303280.400 1
  20978656.598   -16727028.271 7 -11761633.048 2
  19673750.980   -26462180.634 7    812418.327 2
  19372987.965   -26429436.481 7     11850.465 2
 90 10 17 14 32 29.9960000  0  5 02 06 12 13 09
  22691076.855     9475433.340 5   8053471.422 1
  21090520.934    -6315478.439 6   5335471.799 1
  20970401.113   -16770412.674 7 -11795439.096 2
  19676403.270   -26448241.924 7    823279.626 2
  19373447.941   -26427023.255 7     13730.863 1
 90 10 17 14 32 44.9960000  0  5 02 06 12 13 09
  22696990.152     9506498.071 5   8077677.552 1
  21098401.574    -6274069.884 6   5367738.144 1
  20962162.293   -16813708.499 7 -11829176.127 2
  19679069.691   -26434230.905 7    834197.264 2
  19373935.926   -26424454.385 7     15732.551 2
 90 10 17 14 32 59.9960000  0  5 02 06 12 13 09
  22702911.207     9537612.122 5   8101922.144 1
  21106301.020    -6232558.824 6   5400084.355 1
  20953943.293   -16856908.871 7 -11862838.767 2
  19681750.449   -26420141.070 7    845176.320 2
  19374456.098   -26421722.975 7     17860.881 2
 90 10 17 14 33 14.9960000  0  5 02 06 12 13 09
  22708842.887     9568778.170 5   8126207.248 1
  21114219.746    -6190942.890 6   5432512.287 1
  20945740.027   -16900010.709 7 -11896424.641 2
  19684446.887   -26405970.197 7    856218.525 2
  19375007.027   -26418826.698 7     20117.696 2
 90 10 17 14 33 29.9960000  0  5 02 06 12 13 09
  22714783.981     9599992.221 5   8150529.739 1
  21122157.926    -6149226.307 6   5465018.646 1
  20937555.645   -16943017.654 7 -11929936.572 2
  19687159.230   -26391722.573 7    867320.530 2
  19375589.332   -26415769.290 7     22500.057 2
 90 10 17 14 33 44.9960000  0  5 02 06 12 13 09
  22720730.160     9631253.799 5   8174889.275 1
  21130115.754    -6107409.822 6   5497602.855 1
  20929389.105   -16985929.770 7 -11963374.608 2
  19689885.777   -26377398.763 7    878481.899 2
  19376202.043   -26412551.131 7     25007.678 2
 90 10 17 14 33 59.9960000  0  5 02 06 12 13 09
  22726690.059     9662570.190 5   8199291.535 1
  21138094.801    -6065486.510 6   5530270.297 1
  20921242.684   -17028739.331 7 -11996732.725 2
  19692626.801   -26362991.872 7    889708.008 2
  19376847.746   -26409164.921 7     27646.256 1
 90 10 17 14 34 14.9960000  0  5 02 06 12 13 09
  22732659.785     9693927.773 5   8223725.891 1
  21146087.676    -6023470.043 6   5563010.338 1
  20913114.051   -17071459.442 7 -12030021.139 2
  19695381.020   -26348515.499 7    900988.261 2
  19377520.387   -26405624.315 7     30405.137 1
 90 10 17 14 34 29.9960000  0  5 02 06 12 13 09
  22738635.520     9725335.796 5   8248199.552 1
  21154104.020    -5981351.598 6   5595829.840 1
  20905004.113   -17114080.702 7 -12063232.532 2
  19698150.715   -26333961.039 7    912329.358 2
  19378225.785   -26401919.979 7     33291.599 2
 90 10 17 14 34 44.9960000  0  5 02 06 12 13 09
  22744625.090     9756794.730 5   8272712.887 1
  21162139.582    -5939131.092 6   5628728.870 1
  20896910.832   -17156602.342 7 -12096366.305 2
  19700935.520   -26319328.117 7    923731.593 2
  19378961.699   -26398051.578 7     36305.901 2
 90 10 17 14 34 59.9960000  0  5 02 06 12 13 09
  22750617.934     9788300.487 5   8297262.688 1
  21170190.723    -5896812.982 6   5661703.947 1
  20888838.129   -17199028.121 7 -12129425.369 2
  19703734.418   -26304621.201 7    935191.490 2
  19379727.121   -26394023.236 7     39444.833 2
 90 10 17 14 35 14.9960000  0  5 02 06 12 13 09
  22756622.035     9819857.445 5   8321852.408 1
  21178263.246    -5854392.994 6   5694758.423 1
  20880783.652   -17241353.203 7 -12162405.971 2
  19706547.871   -26289835.951 7    946712.420 2
  19380526.691   -26389830.501 7     42711.868 1
 90 10 17 14 35 29.9960000  0  5 02 06 12 13 09
  22762637.395     9851462.277 5   8346479.421 1
  21186354.254    -5811874.777 6   5727889.429 1
  20872747.996   -17283580.436 7 -12195310.327 2
  19709375.480   -26274976.010 7    958291.545 2
  19381353.809   -26385476.599 7     46104.481 2
 90 10 17 14 35 44.9960000  0  5 02 06 12 13 09
  22768658.277     9883118.897 5   8371146.812 1
  21194466.231    -5769254.519 6   5761099.956 1
  20864732.965   -17325705.503 7 -12228135.072 2
  19712218.676   -26260037.840 7    969931.635 2
  19382214.652   -26380957.421 7     49625.888 2
 90 10 17 14 35 59.9960000  0  5 02 06 12 13 09
  22774693.355     9914823.280 5   8395851.387 1
  21202592.980    -5726536.652 6   5794386.528 1
  20856735.676   -17367732.014 7 -12260883.016 2
  19715075.168   -26245025.711 7    981629.358 2
  19383105.332   -26376277.000 7     53272.937 2
 90 10 17 14 36 14.9960000  0  5 02 06 12 13 09
  22780735.309     9946571.558 5   8420590.178 1
  21210740.199    -5683725.271 6   5827745.979 1
  20848755.543   -17409663.476 7 -12293556.902 2
  19717944.551   -26229943.740 7    993381.501 2
  19384025.551   -26371439.299 7     57042.542 2
 90 10 17 14 36 29.9960000  0  5 02 06 12 13 09
  22786789.551     9978374.454 5   8445371.520 1
  21218907.434    -5640809.930 6   5861186.435 1
  20840797.145   -17451488.846 7 -12326148.117 2
  19720830.574   -26214781.565 7   1005196.137 2
  19384977.262   -26366433.873 7     60942.843 2
 90 10 17 14 36 44.9960000  0  5 02 06 12 13 09
  22792850.270    10010224.149 5   8470189.349 1
  21227091.707    -5597798.623 6   5894701.667 1
  20832855.606   -17493215.537 7 -12358662.438 2
  19723729.855   -26199546.889 7   1017067.268 2
  19385962.520   -26361267.630 7     64968.452 2
 90 10 17 14 36 59.9960000  0  5 02 06 12 13 09
  22798919.324    10042126.936 5   8495048.506 1
  21235297.332    -5554685.484 6   5928296.252 1
  20824935.254   -17534837.008 7 -12391094.763 2
  19726643.871   -26184233.884 7   1028999.442 2
  19386975.301   -26355935.308 7     69123.477 2
 90 10 17 14 37 14.9960000  0  5 02 06 12 13 09
  22805000.004    10074077.470 5   8519944.903 1
  21243518.113    -5511476.264 6   5961965.703 1
  20817034.731   -17576358.238 7 -12423448.980 2
  19729570.707   -26168848.365 7   1040988.116 2
  19388022.145   -26350441.726 7     73404.158 2
 90 10 17 14 37 29.9960000  0  5 02 06 12 13 09
  22811088.730    10106076.487 5   8544879.057 1
  21251757.785    -5468170.365 6   5995710.489 1
  20809153.066   -17617777.988 7 -12455724.124 2
  19732512.363   -26153389.542 7   1053033.914 2
  19389098.293   -26344786.129 7     77811.090 2
 90 10 17 14 37 44.9960000  0  5 02 06 12 13 09
  22817187.434    10138123.006 5   8569850.236 1
  21260018.574    -5424769.024 6   6029529.645 1
  20801290.035   -17659096.770 7 -12487920.588 2
  19735468.543   -26137858.802 7   1065135.751 2
  19390203.293   -26338969.501 7     82343.500 2
 90 10 17 14 37 59.9960000  0  5 02 06 12 13 09
  22823297.691    10170220.293 5   8594860.960 1
  21268296.215    -5381269.309 6   6063425.460 1
  20793447.582   -17700311.125 7 -12520035.683 2
  19738438.559   -26122253.125 7   1077295.982 2
  19391343.051   -26332988.897 7     87003.685 2
 90 10 17 14 38 14.9960000  0  5 02 06 12 13 09
  22829410.348    10202366.018 5   8619909.448 1
  21276595.246    -5337673.880 6   6097395.848 1
  20785624.793   -17741422.991 7 -12552070.913 2
  19741421.902   -26106574.989 7   1089512.674 2
  19392510.996   -26326846.470 7     91789.963 2
 90 10 17 14 38 29.9960000  0  5 02 06 12 13 09
  22835537.582    10234556.362 5   8644992.693 1
  21284904.981    -5293986.739 6   6131437.691 1
  20777818.902   -17782435.757 7 -12584028.928 2
  19744418.356   -26090828.507 7   1101782.619 2
  19393711.434   -26320546.020 7     96699.383 2
 90 10 17 14 38 44.9960000  0  5 02 06 12 13 09
  22841669.293    10266792.650 5   8670111.738 1
  21293236.527    -5250207.084 6   6165551.641 1
  20770034.684   -17823347.786 7 -12615908.447 2
  19747428.434   -26075012.694 7   1114106.596 2
  19394940.621   -26314086.271 7    101732.925 2
 90 10 17 14 38 59.9960000  0  5 02 06 12 13 09
  22847817.379    10299079.871 5   8695270.462 1
  21301587.363    -5206329.851 6   6199741.625 1
  20762269.066   -17864153.443 7 -12647705.082 2
  19750450.754   -26059122.718 7   1126488.361 2
  19396200.629   -26307461.914 7    106894.741 2
 90 10 17 14 39 14.9960000  0  5 02 06 12 13 09
  22853969.223    10331416.395 5   8720467.592 1
  21309954.082    -5162357.136 6   6234006.000 1
  20754525.027   -17904854.199 7 -12679419.967 2
  19753487.996   -26043160.573 7   1138926.362 2
  19397493.371   -26300674.703 7    112183.447 2
 90 10 17 14 39 29.9960000  0  5 02 06 12 13 09
  22860132.316    10363800.682 5   8745701.950 1
  21318340.035    -5118290.774 6   6268343.354 1
  20746799.488   -17945451.151 7 -12711053.974 2
  19756539.254   -26027128.057 7   1151419.186 2
  19398814.488   -26293726.428 7    117597.662 2
 90 10 17 14 39 44.9960000  0  5 02 06 12 13 09
  22866305.316    10396232.295 5   8770973.181 1
  21326742.043    -5074131.414 6   6302753.161 1
  20739093.145   -17985944.273 7 -12742607.070 2
  19759605.746   -26011025.603 7   1163966.515 2
  19400167.457   -26286617.369 7    123137.160 2
 90 10 17 14 39 59.9960000  0  5 02 06 12 13 09
  22872486.293    10428711.947 5   8796281.851 1
  21335164.090    -5029878.636 6   6337235.771 1
  20731407.059   -18026332.561 7 -12774078.470 2
  19762683.168   -25994852.984 7   1176568.520 2
  19401550.199   -26279346.801 7    128802.507 2
 90 10 17 14 40 14.9960000  0  5 02 06 12 13 09
  22878677.465    10461242.311 5   8821630.028 1
  21343604.355    -4985530.165 6   6371792.947 1
  20723743.137   -18066613.039 7 -12805465.881 2
  19765773.293   -25978607.691 7   1189227.154 2
  19402965.270   -26271912.389 7    134595.525 2
 90 10 17 14 40 29.9960000  0  5 02 06 12 13 09
  22884874.832    10493817.260 5   8847012.963 1
  21352061.027    -4941092.220 6   6406419.836 1
  20716096.895   -18106791.333 7 -12836773.665 2
  19768876.129   -25962296.124 7   1201937.435 2
  19404410.770   -26264319.809 7    140511.788 2
 90 10 17 14 40 44.9960000  0  5 02 06 12 13 09
  22891086.863    10526439.883 5   8872433.034 1
  21360532.551    -4896562.080 6   6441118.570 1
  20708470.301   -18146863.870 7 -12867999.028 2
  19771994.387   -25945915.566 7   1214701.466 2
  19405883.910   -26256565.986 7    146553.690 2
 90 10 17 14 40 59.9960000  0  5 02 06 12 13 09
  22897298.559    10559105.386 5   8897886.515 1
  21369023.723    -4851944.881 6   6475885.142 1
  20700865.262   -18186835.164 7 -12899145.507 2
  19775122.699   -25929470.876 7   1227515.481 2
  19407391.527   -26248656.074 7    152717.222 2
 90 10 17 14 41 14.9960000  0  5 02 06 12 13 09
  22903525.902    10591822.519 5   8923380.234 1
  21377532.238    -4807232.067 6   6510726.215 1
  20693279.645   -18226696.183 7 -12930206.058 2
  19778267.379   -25912953.484 7   1240386.147 2
  19408926.223   -26240581.177 7    159009.315 2
 90 10 17 14 41 29.9960000  0  5 02 06 12 13 09
  22909759.856    10624587.628 5   8948911.344 1
  21386058.223    -4762427.724 6   6545638.604 1
  20685714.027   -18266450.298 7 -12961183.305 2
  19781422.176   -25896367.582 7   1253310.192 2
  19410495.582   -26232344.921 7    165427.146 2
 90 10 17 14 41 44.9960000  0  5 02 06 12 13 09
  22916005.348    10657403.839 5   8974482.283 1
  21394601.606    -4717528.794 6   6580624.704 1
  20678169.934   -18306093.796 7 -12992074.361 2
  19784593.059   -25879710.005 7   1266290.088 2
  19412094.520   -26223944.134 7    171973.182 2
 90 10 17 14 41 59.9960000  0  5 02 06 12 13 09
  22922257.535    10690275.299 5   9000096.254 1
  21403164.535    -4672531.595 6   6615687.380 1
  20670648.785   -18345622.274 7 -13022875.795 2
  19787777.363   -25862976.864 7   1279328.871 2
  19413724.418   -26215374.675 7    178650.646 2
 90 10 17 14 42 14.9960000  0  5 02 06 12 13 09
  22928518.504    10723188.039 5   9025742.393 1
  21411743.988    -4627450.333 6   6650815.550 1
  20663146.363   -18385049.345 7 -13053598.207 2
  19790972.152   -25846182.558 7   1292415.314 2
  19415385.738   -26206650.728 7    185448.502 2
 90 10 17 14 42 29.9960000  0  5 02 06 12 13 09
  22934796.441    10756149.744 5   9051426.701 1
  21420340.098    -4582277.652 6   6686014.961 1
  20655664.809   -18424366.910 7 -13084235.289 2
  19794181.184   -25829319.674 7   1305555.192 2
  19417076.191   -26197764.759 7    192372.597 2
 90 10 17 14 42 44.9960000  0  5 02 06 12 13 09
  22941079.168    10789164.193 5   9077152.108 1
  21428955.324    -4537009.920 6   6721288.434 1
  20648204.762   -18463570.611 7 -13114783.648 2
  19797404.012   -25812384.385 7   1318751.486 2
  19418797.918   -26188712.448 7    199426.322 2
 90 10 17 14 42 59.9960000  0  5 02 06 12 13 09
  22947370.762    10822225.866 5   9102914.287 1
  21437585.348    -4491653.116 6   6756631.313 1
  20640765.059   -18502665.809 7 -13145247.458 2
  19800640.113   -25795382.621 7   1331999.574 2
  19420551.043   -26179499.631 7    206605.111 2
 90 10 17 14 43 14.9960000  0  5 02 06 12 13 09
  22953666.606    10855337.175 5   9128715.149 1
  21446235.301    -4446205.103 6   6792045.268 1
  20633346.145   -18541649.675 7 -13175624.519 2
  19803888.215   -25778312.250 7   1345301.130 2
  19422334.856   -26170124.043 7    213910.732 2
 90 10 17 14 43 29.9960000  0  5 02 06 12 13 09
  22959981.418    10888490.653 5   9154548.896 1
  21454899.910    -4400673.503 6   6827524.348 1
  20625948.293   -18580529.168 7 -13205920.242 2
  19807148.309   -25761180.804 7   1358650.270 2
  19424149.106   -26160593.278 7    221337.273 2
 90 10 17 14 43 44.9960000  0  5 02 06 12 13 09
  22966300.348    10921689.787 5   9180418.198 1
  21463578.965    -4355054.904 6   6863071.212 1
  20618570.723   -18619300.219 7 -13236131.473 2
  19810420.629   -25743984.976 7   1372049.582 2
  19425994.168   -26150903.203 7    228887.954 2
 90 10 17 14 43 59.9960000  0  5 02 06 12 13 09
  22972624.559    10954931.040 5   9206320.347 1
  21472275.715    -4309353.584 6   6898682.550 1
  20611212.270   -18657966.321 7 -13266260.917 2
  19813703.137   -25726728.776 7   1385495.931 2
  19427866.809   -26141058.061 7    236559.458 2
 90 10 17 14 44 14.9960000  0  5 02 06 12 13 09
  22978960.785    10988222.889 5   9232261.885 1
  21480992.168    -4263561.235 6   6934364.815 1
  20603877.223   -18696518.762 7 -13296301.800 2
  19817000.887   -25709403.876 7   1398995.809 2
  19429770.949   -26131049.372 7    244358.417 2
 90 10 17 14 44 29.9960000  0  5 02 06 12 13 09
  22985303.285    11021561.727 5   9258240.058 1
  21489720.809    -4217681.564 6   6970115.105 1
  20596561.816   -18734960.495 7 -13326256.410 2
  19820311.106   -25692014.123 7   1412546.221 2
  19431705.660   -26120880.477 7    252282.200 2
 90 10 17 14 44 44.9960000  0  5 02 06 12 13 09
  22991654.191    11054950.504 5   9284257.143 1
  21498470.449    -4171712.188 6   7005935.311 1
  20589267.215   -18773288.349 7 -13356122.287 2
  19823631.434   -25674556.938 7   1426149.190 2
  19433673.668   -26110548.766 7    260332.860 2
 90 10 17 14 44 59.9960000  0  5 02 06 12 13 09
  22998025.270    11088387.152 5   9310311.524 1
  21507233.277    -4125655.264 6   7041823.731 1
  20581994.652   -18811503.917 7 -13385900.669 2
  19826968.332   -25657034.503 7   1439802.998 2
  19435667.809   -26100055.883 7    268509.104 2
 90 10 17 14 45 14.9960000  0  5 02 06 12 13 09
  23004391.715    11121875.242 4   9336406.008 1
  21516013.543    -4079507.673 6   7077782.796 1
  20574744.535   -18849603.412 7 -13415588.601 2
  19830313.160   -25639443.553 7   1453510.192 2
  19437697.777   -26089398.960 7    276813.173 2
 90 10 17 14 45 29.9960000  0  5 02 06 12 13 09
  23010771.105    11155411.926 4   9362538.342 1
  21524812.613    -4033272.484 6   7113810.127 1
  20567516.262   -18887589.211 7 -13445187.932 2
  19833674.816   -25621787.193 7   1467268.345 2
  19439754.301   -26078580.518 7    285243.096 2
 90 10 17 14 45 44.9960000  0  5 02 06 12 13 09
  23017167.332    11188997.324 4   9388708.616 1
  21533627.160    -3986949.673 6   7149905.724 1
  20560310.316   -18925460.731 7 -13474698.225 2
  19837046.371   -25604065.579 7   1481077.349 2
  19441846.223   -26067600.327 7    293799.055 2
 90 10 17 14 45 59.9960000  0  5 02 06 12 13 09
  23023564.582    11222627.823 4   9414914.045 1
  21542457.254    -3940543.344 6   7186066.414 1
  20553123.746   -18963221.317 7 -13504122.082 2
  19840429.293   -25586282.590 7   1494934.185 2
  19443965.184   -26056462.190 7    302478.092 2
 90 10 17 14 46 14.9960000  0  5 02 06 12 13 09
  23029974.090    11256306.636 3   9441157.143 1
  21551305.559    -3894050.630 6   7222294.400 1
  20545959.605   -19000867.405 7 -13533456.706 2
  19843828.395   -25568435.372 7   1508841.065 2
  19446113.082   -26045163.187 7    311282.476 2
 90 10 17 14 46 29.9960000  0  5 02 06 12 13 09
  23036389.270    11290028.863 3   9467434.033 1
  21560169.691    -3847476.585 6   7258585.768 1
  20538815.590   -19038403.457 7 -13562705.594 2
  19847235.590   -25550528.655 7   1522794.304 2
  19448293.285   -26033707.904 7    320208.640 2
 90 10 17 14 46 44.9960000  0  5 02 06 12 13 09
  23042813.840    11323799.820 3   9493748.888 1
  21569048.363    -3800815.949 6   7294944.615 1
  20531697.113   -19075823.541 7 -13591864.118 2
  19850654.707   -25532557.162 7   1536798.019 2
  19450505.152   -26022090.933 7    329260.802 2
 90 10 17 14 46 59.9960000  0  5 02 06 12 13 09
  23049254.309    11357619.426 3   9520101.681 1
  21577942.801    -3754069.368 6   7331370.422 1
  20524598.738   -19113127.603 7 -13620932.237 2
  19854086.902   -25514521.622 7   1550851.641 2
  19452747.621   -26010312.411 7    338438.846 2
 90 10 17 14 47 14.9960000  0  5 02 06 12 13 09
  23055699.957    11391484.468 3   9546489.852 1
  21586856.988    -3707240.513 6   7367860.341 1
  20517521.418   -19150318.608 7 -13649912.263 2
  19857530.262   -25496425.524 7   1564952.452 2
  19455018.496   -25998376.124 7    347739.821 2
 90 10 17 14 47 29.9960000  0  5 02 06 12 13 09
  23062154.145    11425400.512 4   9572917.768 1
  21595784.488    -3660323.791 6   7404418.718 1
  20510467.332   -19187390.466 7 -13678799.441 2
  19860986.410   -25478263.467 7   1579104.658 2
  19457320.262   -25986276.173 7    357168.328 2
 90 10 17 14 47 44.9960000  0  5 02 06 12 13 09
  23068614.465    11459364.963 4   9599383.402 1
  21604727.676    -3613322.149 6   7441043.275 1
  20503434.590   -19224345.387 7 -13707595.494 2
  19864455.949   -25460038.179 7   1593306.130 2
  19459652.590   -25974015.051 7    366722.418 2
 90 10 17 14 47 59.9960000  0  5 02 06 12 13 09
  23075088.981    11493376.953 4   9625886.114 1
  21613689.535    -3566236.822 6   7477733.047 1
  20496423.574   -19261183.851 7 -13736300.805 2
  19867934.387   -25441750.755 7   1607556.028 2
  19462016.293   -25961593.807 7    376401.282 2
 90 10 17 14 48 14.9960000  0  5 02 06 12 13 09
  23081567.207    11527434.758 5   9652424.487 1
  21622664.090    -3519069.804 6   7514486.468 1
  20489435.301   -19297907.180 7 -13764916.405 2
  19871424.441   -25423402.956 7   1621852.969 2
  19464412.457   -25949014.500 7    386203.310 2
 90 10 17 14 48 29.9960000  0  5 02 06 12 13 09
  23088059.957    11561538.998 5   9678999.051 1
  21631656.105    -3471820.915 6   7551303.679 1
  20482468.887   -19334514.699 7 -13793441.758 2
  19874929.098   -25404994.815 7   1636196.926 2
  19466835.699   -25936276.549 7    396128.952 2
 90 10 17 14 48 44.9960000  0  5 02 06 12 13 09
  23094559.402    11595688.963 5   9705609.269 1
  21640661.605    -3424491.061 6   7588183.984 1
  20475525.363   -19371006.555 7 -13821876.988 2
  19878444.098   -25386527.009 7   1650587.382 2
  19469288.113   -25923380.461 7    406177.822 2
 90 10 17 14 48 59.9960000  0  5 02 06 12 13 09
  23101066.988    11629890.223 5   9732259.440 1
  21649684.652    -3377074.845 6   7625131.583 1
  20468605.254   -19407376.687 7 -13850217.361 2
  19881968.645   -25367994.282 7   1665028.426 2
  19471775.215   -25910320.759 7    416354.182 2
 90 10 17 14 49 14.9960000  0  5 02 06 12 13 09
  23107583.629    11664138.359 5   9758946.153 1
  21658723.215    -3329577.004 6   7662142.795 1
  20461705.660   -19443629.012 7 -13878465.950 2
  19885508.918   -25349401.222 7   1679516.479 2
  19474287.371   -25897101.979 7    426654.498 2
 90 10 17 14 49 29.9960000  0  5 02 06 12 13 09
  23114109.121    11698435.594 5   9785671.117 1
  21667775.957    -3281995.668 6   7699219.060 1
  20454829.988   -19479761.088 7 -13906620.834 2
  19889056.652   -25330745.950 7   1694053.010 2
  19476837.504   -25883721.905 7    437080.497 2
 90 10 17 14 49 44.9960000  0  5 02 06 12 13 09
  23120648.129    11732778.973 5   9812432.022 1
  21676848.457    -3234334.083 6   7736357.855 1
  20447976.356   -19515775.588 7 -13934684.093 2
  19892618.832   -25312031.656 7   1708635.538 2
  19479412.816   -25870183.651 7    447629.752 2
 90 10 17 14 49 59.9960000  0  5 02 06 12 13 09
  23127189.715    11767171.966 5   9839231.588 1
  21685933.684    -3186589.169 6   7773561.580 1
  20441145.863   -19551668.470 7 -13962652.593 2
  19896193.887   -25293255.133 7   1723266.554 2
  19482017.371   -25856483.836 7    458304.904 2
 90 10 17 14 50 14.9960000  0  5 02 06 12 13 09
  23133741.973    11801609.067 5   9866065.526 1
  21695031.043    -3138766.615 6   7810825.804 1
  20434338.652   -19587445.058 7 -13990530.476 2
  19899776.238   -25274422.080 7   1737941.621 2
  19484656.934   -25842628.011 7    469101.617 2
 90 10 17 14 50 29.9960000  0  5 02 06 12 13 09
  23140303.910    11836092.202 5   9892935.358 1
  21704147.621    -3090864.730 6   7848151.843 1
  20427553.582   -19623102.915 7 -14018315.835 2
  19903370.832   -25255530.586 7   1752662.225 2
  19487324.512   -25828614.182 7    480021.451 2
 90 10 17 14 50 44.9960000  0  5 02 06 12 13 09
  23146880.309    11870624.974 5   9919843.841 1
  21713280.152    -3042880.096 6   7885542.369 1
  20420790.387   -19658638.038 7 -14046005.560 2
  19906976.371   -25236577.308 7   1767430.971 2
  19490021.887   -25814438.700 7    491067.256 2
 90 10 17 14 50 59.9960000  0  5 02 06 12 13 09
  23153459.777    11905205.729 5   9946789.724 1
  21722425.387    -2994814.968 6   7922995.605 1
  20414051.949   -19694051.920 7 -14073600.814 2
  19910594.387   -25217564.292 7   1782246.271 2
  19492748.707   -25800103.467 7    502237.540 2
 90 10 17 14 51 14.9960000  0  5 02 06 12 13 09
  23160044.801    11939833.307 5   9973772.091 1
  21731590.871    -2946670.664 6   7960510.550 1
  20407336.582   -19729345.340 7 -14101102.199 2
  19914224.543   -25198492.796 7   1797107.133 2
  19495507.566   -25785609.860 7    513531.228 2
 90 10 17 14 51 29.9960000  0  5 02 06 12 13 09
  23166647.090    11974509.352 5  10000792.242 1
  21740766.402    -2898445.786 6   7998088.275 1
  20400643.184   -19764516.203 7 -14128508.079 2
  19917863.738   -25179361.282 7   1812014.773 2
  19498296.449   -25770956.165 7    524949.664 2
 90 10 17 14 51 44.9960000  0  5 02 06 12 13 09
  23173255.551    12009230.352 5  10027847.388 1
  21749957.082    -2850144.133 6   8035725.814 1
  20393973.777   -19799567.560 7 -14155820.845 2
  19921517.238   -25160173.546 7   1826966.218 1
  19501114.777   -25756145.724 7    536490.234 2
 90 10 17 14 51 59.9960000  0  5 02 06 12 13 09
  23179872.332    12043996.874 4  10054938.039 1
  21759162.941    -2801765.379 6   8073423.441 1
  20387325.590   -19834498.455 7 -14183039.747 2
  19925180.676   -25140929.186 7   1841961.786 2
  19503960.996   -25741178.403 7    548153.046 2
 90 10 17 14 52 14.9960000  0  5 02 06 12 13 09
  23186499.184    12078812.506 5  10082066.950 1
  21768385.457    -2753306.460 6   8111183.544 1
  20380702.488   -19869305.216 7 -14210161.914 2
  19928853.434   -25121625.204 7   1857003.820 2
  19506840.270   -25726050.703 7    559940.826 2
 90 10 17 14 52 29.9960000  0  5 02 06 12 13 09
  23193133.340    12113675.038 4  10109232.393 1
  21777621.707    -2704769.792 6   8149004.220 1
  20374102.465   -19903989.455 7 -14237188.606 2
  19932536.262   -25102263.794 7   1872090.592 2
  19509750.676   -25710764.766 7    571851.905 2
 90 10 17 14 52 44.9960000  0  5 02 06 12 13 09
  23199770.340    12148583.501 3  10136433.627 1
  21786872.910    -2656156.301 6   8186884.756 1
  20367525.426   -19938551.515 7 -14264120.107 2
  19936234.488   -25082846.173 7   1887221.166 2
  19512686.379   -25695321.362 7    583885.691 2
 90 10 17 14 52 59.9960000  0  5 02 06 12 13 09
  23206423.582    12183535.715 3  10163668.958 1
  21796137.738    -2607468.769 6   8224822.997 1
  20360970.941   -19972993.525 7 -14290958.050 2
  19939935.379   -25063374.624 7   1902393.762 2
  19515657.770   -25679722.968 7    596040.243 2
 90 10 17 14 53 14.9960000  0  5 02 06 12 13 09
  23213082.668    12218536.078 3  10190941.768 1
  21805417.785    -2558703.096 6   8262822.113 1
  20354440.488   -20007310.712 7 -14317698.725 2
  19943655.520   -25043844.997 7   1917611.614 2
  19518652.871   -25663965.311 7    608318.902 2
 90 10 17 14 53 29.9960000  0  5 02 06 12 13 09
  23219752.457    12253586.663 2  10218253.778 1
  21814714.004    -2509857.560 6   8300883.469 1
  20347935.184   -20041500.664 7 -14344340.265 2
  19947380.613   -25024255.606 7   1932876.039 2
  19521685.793   -25648046.709 7    620722.970 2
 90 10 17 14 53 44.9960000  0  5 02 06 12 13 09
  23226432.981    12288683.764 2  10245601.996 1
  21824021.527    -2460936.100 6   8339003.974 1
  20341453.379   -20075566.631 7 -14370885.189 2
  19951119.402   -25004610.262 7   1948184.061 2
  19524743.699   -25631970.544 7    633249.817 2
 90 10 17 14 53 59.9960000  0  5 02 06 12 13 09
  23233121.348    12323826.230 2  10272985.521 1
  21833345.301    -2411940.121 6   8377182.556 1
  20334994.340   -20109509.419 7 -14397334.133 2
  19954870.145   -24984910.292 7   1963534.649 2
  19527829.699   -25615738.199 7    645898.357 2
 90 10 17 14 54 14.9960000  0  5 02 06 12 13 09
  23239814.254    12359019.359 1
  21842685.223    -2362864.688 6   8415423.042 1
  20328559.020   -20143323.512 7 -14423682.791 2
  19958629.504   -24965150.755 7   1978931.654 2
  19530950.777   -25599344.570 7    658672.580 2
 90 10 17 14 54 29.9960000  0  4 06 12 13 09
  21852037.816    -2313708.908 6   8453726.134 1
  20322150.020   -20177007.323 7 -14449929.932 2
  19962401.355   -24945330.544 7   1994375.938 2
  19534102.699   -25582788.495 7    671573.376 2
 90 10 17 14 54 44.9960000  0  4 06 12 13 09
  21861404.668    -2264484.041 5   8492083.070 1
  20315762.066   -20210571.410 7 -14476083.780 2
  19966182.152   -24925460.829 7   2009858.800 2
  19537284.363   -25566080.833 7    684592.296 2
 90 10 17 14 54 59.9960000  0  4 06 12 13 09
  21870788.520    -2215180.388 5   8530501.392 1
  20309399.426   -20244005.408 7 -14502136.258 2
  19969973.481   -24905531.912 7   2025387.782 2
  19540492.551   -25549212.061 7    697736.754 2
 90 10 17 14 55 14.9960000  0  4 06 12 13 09
  21880183.699    -2165803.223 6   8568976.995 1
  20303061.949   -20277313.875 7 -14528090.917 2
  19973778.488   -24885548.858 7   2040958.956 2
  19543731.996   -25532187.007 7    711002.996 2
 90 10 17 14 55 29.9960000  0  4 06 12 13 09
  21889594.965    -2116355.491 6   8607507.594 1
  20296747.238   -20310499.186 7 -14553949.616 2
  19977590.848   -24865514.680 7   2056569.965 2
  19546999.676   -25515008.446 7    724388.846 2
 90 10 17 14 55 44.9960000  0  4 06 12 13 09
  21899016.441    -2066832.189 6   8646097.065 1
  20290455.598   -20343555.666 7 -14579707.922 2
  19981414.168   -24845424.206 7   2072224.840 2
  19550298.707   -25497671.137 7    737898.403 2
 90 10 17 14 55 59.9960000  0  5 02 06 12 13 09
  23286947.957          -0.54614
  21908455.973    -2017236.716 5   8684742.763 1
  20284188.832   -20376486.142 7 -14605368.039 2
  19985243.613   -24825280.967 7   2087920.832 2
  19553630.645   -25480178.301 7    751529.142 2
 90 10 17 14 56 14.9960000  0  5 02 06 12 13 09
  23293722.035       35565.562 4
  21917906.137    -1967567.789 5   8723445.717 1
  20277948.785   -20409288.507 7 -14630928.336 2
  19989089.082   -24805083.320 7   2103659.211 2
  19556988.215   -25462528.572 7    765282.140 2
 90 10 17 14 56 29.9960000  0  5 02 06 12 13 09
  23300490.691       71176.000 4
  21927373.395    -1917828.279 6   8762203.665 1
  20271729.473   -20441965.039 7 -14656390.580 2
  19992942.691   -24784834.134 7   2119437.758 2
  19560374.504   -25444724.435 7    779155.452 2
 90 10 17 14 56 44.9960000  0  5 02 06 12 13 09
  23307280.785      106828.891 5
  21936852.746    -1868020.059 6   8801015.146 1
  20265534.957   -20474517.068 7 -14681755.803 2
  19996804.106   -24764535.346 7   2135254.953 2
  19563794.598   -25426767.831 7    793147.568 2
 90 10 17 14 56 59.9960000  0  5 02 06 12 13 09
  23314069.629      142528.773 5
  21946343.840    -1818139.322 6   8839883.141 1
  20259364.730   -20506939.947 7 -14707020.394 3
  20000678.293   -24744182.854 7   2151113.996 2
  19567239.473   -25408654.559 7    807261.767 2
 90 10 17 14 57 14.9960000  0  5 02 06 12 13 09
  23320871.496      178274.441 5
  21955848.731    -1768187.591 5   8878806.458 1
  20253220.301   -20539234.739 7 -14732185.178 2
  20004561.223   -24723778.289 7   2167013.607 2
  19570714.676   -25390386.013 7    821496.962 2
 90 10 17 14 57 29.9960000  0  5 02 06 12 13 09
  23327685.504      214065.816 5
  21965366.621    -1718165.221 5   8917784.817 1
  20247098.543   -20571400.947 7 -14757249.766 2
  20008451.270   -24703321.890 7   2182953.620 2
  19574224.340   -25371962.107 7    835853.218 2
 90 10 17 14 57 44.9960000  0  5 02 06 12 13 09
  23334500.879      249901.681 5
  21974896.668    -1668073.465 5   8956817.236 1
  20241000.988   -20603439.260 7 -14782214.693 2
  20012356.324   -24682814.619 7   2198933.263 2
  19577756.770   -25353384.163 7    850329.502 2
 90 10 17 14 57 59.9960000  0  5 02 06 12 13 09
  23341330.473      285784.678 5
  21984445.707    -1617910.075 5   8995905.460 1
  20234929.879   -20635346.908 7 -14807077.811 2
  20016271.215   -24662253.993 7   2214954.486 2
  19581320.371   -25334649.804 7    864927.668 2
 90 10 17 14 58 14.9960000  0  5 02 06 12 13 09
  23348172.145      321711.149 5
  21994003.512    -1567678.978 5   9035046.458 1
  20228882.137   -20667127.214 7 -14831841.694 2
  20020193.738   -24641644.291 7   2231013.956 1
  19584914.809   -25315762.777 7    879644.796 2
 90 10 17 14 58 29.9960000  0  5 02 06 12 13 09
  23355013.285      357683.513 5
  22003575.598    -1517378.092 5   9074241.839 1
  20222860.160   -20698777.274 7 -14856504.090 2
  20024124.098   -24620983.152 7   2247113.501 1
  19588539.527   -25296720.715 7    894482.732 2
 90 10 17 14 58 44.9960000  0  5 02 06 12 13 09
  23361867.012      393703.013 5
  22013161.996    -1467006.359 5   9113492.426 1
  20216862.066   -20730295.462 7 -14881063.731 2
  20028065.613   -24600269.459 7   2263253.996 2
  19592191.973   -25277522.184 7    909442.587 2
 90 10 17 14 58 59.9960000  0  5 02 06 12 13 09
  23368732.590      429767.321 5
  22022761.949    -1416566.444 5   9152796.139 1
  20210888.816   -20761683.861 7 -14905522.234 2
  20032016.738   -24579505.711 7   2279433.494 2
  19595874.902   -25258170.016 7    924522.167 2
 90 10 17 14 59 14.9960000  0  5 02 06 12 13 09
  23375601.731      465876.619 5
  22032372.371    -1366058.590 5   9192152.792 1
  20204939.801   -20792941.829 7 -14929879.100 2
  20035976.441   -24558691.941 7   2295651.971 2
  19599586.465   -25238664.057 7    939721.576 2
 90 10 17 14 59 29.9960000  0  5 02 06 12 13 09
  23382482.941      502028.571 5
  22041995.418    -1315485.311 5   9231560.411 1
  20199016.777   -20824071.367 7 -14954135.896 2
  20039945.168   -24537830.760 7   2311907.383 2
  19603329.957   -25219006.963 7    955038.755 2
